[[{"header":{"parameterUnit":"m.s-1","parameterCategory":1,"la1":30.6,"la2":28.766,"lo1":-90.7593,"lo2":-88.6598,"dy":0.0162,"dx":0.0183,"nx":116,"ny":114,"refTime":"2023-09-26T00:00:00:Z","depth":0,"parameterNumber":2,"parameterNumberName":"U-component_of_WINDS"},"data":[0.0,0.0,0.0,0.0,0.0,0.0,0.0,0.0,0.0,0.0,0.0,0.0,0.0,0.0,0.0,0.0,0.0,0.0,0.0,0.0,0.0,0.0,0.0,0.0,0.0,0.0,0.0,0.0,0.0,0.0,0.0,0.0,0.0,0.0,0.0,0.0,0.0,0.0,0.0,0.0,0.0,0.0,0.0,0.0,0.0,0.0,0.0,0.0,0.0,0.0,0.0,0.0,0.0,0.0,0.0,0.0,0.0,0.0,0.0,0.0,0.0,0.0,0.0,0.0,0.0,0.0,0.0,0.0,0.0,0.0,0.0,0.0,0.0,0.0,0.0,0.0,0.0,0.0,0.0,0.0,0.0,0.0,0.0,0.0,0.0,0.0,0.0,0.0,0.0,0.0,0.0,0.0,0.0,0.0,0.0,0.0,0.0,0.0,0.0,0.0,0.0,0.0,0.0,0.0,0.0,0.0,0.0,0.0,0.0,0.0,0.0,0.0,0.0,0.0,0.0,0.0,0.0,0.0,0.0,0.0,0.0,0.0,0.0,0.0,0.0,0.0,0.0,0.0,0.0,0.0,0.0,0.0,0.0,0.0,0.0,0.0,0.0,0.0,0.0,0.0,0.0,0.0,0.0,0.0,0.0,0.0,0.0,0.0,0.0,0.0,0.0,0.0,0.0,0.0,0.0,0.0,0.0,0.0,0.0,0.0,0.0,0.0,0.0,0.0,0.0,0.0,0.0,0.0,0.0,0.0,0.0,0.0,0.0,0.0,0.0,0.0,0.0,0.0,0.0,0.0,0.0,0.0,0.0,0.0,0.0,0.0,0.0,0.0,0.0,0.0,0.0,0.0,0.0,0.0,0.0,0.0,0.0,0.0,0.0,0.0,0.0,0.0,0.0,0.0,0.0,0.0,0.0,0.0,0.0,0.0,0.0,0.0,0.0,0.0,0.0,0.0,0.0,0.0,0.0,0.0,0.0,0.0,0.0,0.0,0.0,0.0,0.0,0.0,0.0,0.0,0.0,0.0,0.0,0.0,0.0,0.0,0.0,0.0,0.0,0.0,0.0,0.0,0.0,0.0,0.0,0.0,0.0,0.0,0.0,0.0,0.0,0.0,0.0,0.0,0.0,0.0,0.0,0.0,0.0,0.0,0.0,0.0,0.0,0.0,0.0,0.0,0.0,0.0,0.0,0.0,0.0,0.0,0.0,0.0,0.0,0.0,0.0,0.0,0.0,0.0,0.0,0.0,0.0,0.0,0.0,0.0,0.0,0.0,0.0,0.0,0.0,0.0,0.0,0.0,0.0,0.0,0.0,0.0,0.0,0.0,0.0,0.0,0.0,0.0,0.0,0.0,0.0,0.0,0.0,0.0,0.0,0.0,0.0,0.0,0.0,0.0,0.0,0.0,0.0,0.0,0.0,0.0,0.0,0.0,0.0,0.0,0.0,0.0,0.0,0.0,0.0,0.0,0.0,0.0,0.0,0.0,0.0,0.0,0.0,0.0,0.0,0.0,0.0,0.0,0.0,0.0,0.0,0.0,0.0,0.0,0.0,0.0,0.0,0.0,0.0,0.0,0.0,0.0,0.0,0.0,0.0,0.0,0.0,0.0,0.0,0.0,0.0,0.0,0.0,0.0,0.0,0.0,0.0,0.0,0.0,0.0,0.0,0.0,0.0,0.0,0.0,0.0,0.0,0.0,0.0,0.0,0.0,0.0,0.0,0.0,0.0,0.0,0.0,0.0,0.0,0.0,0.0,0.0,0.0,0.0,0.0,0.0,0.0,0.0,0.0,0.0,0.0,0.0,0.0,0.0,0.0,0.0,0.0,0.0,0.0,0.0,0.0,0.0,0.0,0.0,0.0,0.0,0.0,0.0,0.0,0.0,0.0,0.0,0.0,0.0,0.0,0.0,0.0,0.0,0.0,0.0,0.0,0.0,0.0,0.0,0.0,0.0,0.0,0.0,0.0,0.0,0.0,0.0,0.0,0.0,0.0,0.0,0.0,0.0,0.0,0.0,0.0,0.0,0.0,0.0,0.0,0.0,0.0,0.0,0.0,0.0,0.0,0.0,0.0,0.0,0.0,0.0,0.0,0.0,0.0,0.0,0.0,0.0,0.0,0.0,0.0,0.0,0.0,0.0,0.0,0.0,0.0,0.0,0.0,0.0,0.0,0.0,0.0,0.0,0.0,0.0,0.0,0.0,0.0,0.0,0.0,0.0,0.0,0.0,0.0,0.0,0.0,0.0,0.0,0.0,0.0,0.0,0.0,0.0,0.0,0.0,0.0,0.0,0.0,0.0,0.0,0.0,0.0,0.0,0.0,0.0,0.0,0.0,0.0,0.0,0.0,0.0,0.0,0.0,0.0,0.0,0.0,0.0,0.0,0.0,0.0,0.0,0.0,0.0,0.0,0.0,0.0,0.0,0.0,0.0,0.0,0.0,0.0,0.0,0.0,0.0,0.0,0.0,0.0,0.0,0.0,0.0,0.0,0.0,0.0,0.0,0.0,0.0,0.0,0.0,0.0,0.0,0.0,0.0,0.0,0.0,0.0,0.0,0.0,0.0,0.0,0.0,0.0,0.0,0.0,0.0,0.0,0.0,0.0,0.0,0.0,0.0,0.0,0.0,0.0,0.0,0.0,0.0,0.0,0.0,0.0,0.0,0.0,0.0,0.0,0.0,0.0,0.0,0.0,0.0,0.0,0.0,0.0,0.0,0.0,0.0,0.0,0.0,0.0,0.0,0.0,0.0,0.0,0.0,0.0,0.0,0.0,0.0,0.0,0.0,0.0,0.0,0.0,0.0,0.0,0.0,0.0,0.0,0.0,0.0,0.0,0.0,0.0,0.0,0.0,0.0,0.0,0.0,0.0,0.0,0.0,0.0,0.0,0.0,0.0,0.0,0.0,0.0,0.0,0.0,0.0,0.0,0.0,0.0,0.0,0.0,0.0,0.0,0.0,0.0,0.0,0.0,0.0,0.0,0.0,0.0,0.0,0.0,0.0,0.0,0.0,0.0,0.0,0.0,0.0,0.0,0.0,0.0,0.0,0.0,0.0,0.0,0.0,0.0,0.0,0.0,0.0,0.0,0.0,0.0,0.0,0.0,0.0,0.0,0.0,0.0,0.0,0.0,0.0,0.0,0.0,0.0,0.0,0.0,0.0,0.0,0.0,0.0,0.0,0.0,0.0,0.0,0.0,0.0,0.0,0.0,0.0,0.0,0.0,0.0,0.0,0.0,0.0,0.0,0.0,0.0,0.0,0.0,0.0,0.0,0.0,0.0,0.0,0.0,0.0,0.0,0.0,0.0,0.0,0.0,0.0,0.0,0.0,0.0,0.0,0.0,0.0,0.0,0.0,0.0,0.0,0.0,0.0,0.0,0.0,0.0,0.0,0.0,0.0,0.0,0.0,0.0,0.0,0.0,0.0,0.0,0.0,0.0,0.0,0.0,0.0,0.0,0.0,0.0,0.0,0.0,0.0,0.0,0.0,0.0,0.0,0.0,0.0,0.0,0.0,0.0,0.0,0.0,0.0,0.0,0.0,0.0,0.0,0.0,0.0,0.0,0.0,0.0,0.0,0.0,0.0,0.0,0.0,0.0,0.0,0.0,0.0,0.0,0.0,0.0,0.0,0.0,0.0,0.0,0.0,0.0,0.0,0.0,0.0,0.0,0.0,0.0,0.0,0.0,0.0,0.0,0.0,0.0,0.0,0.0,0.0,0.0,0.0,0.0,0.0,0.0,0.0,0.0,0.0,0.0,0.0,0.0,0.0,0.0,0.0,0.0,0.0,0.0,0.0,0.0,0.0,0.0,0.0,0.0,0.0,0.0,0.0,0.0,0.0,0.0,0.0,0.0,0.0,0.0,0.0,0.0,0.0,0.0,0.0,0.0,0.0,0.0,0.0,0.0,0.0,0.0,0.0,0.0,0.0,0.0,0.0,0.0,0.0,0.0,0.0,0.0,0.0,0.0,0.0,0.0,0.0,0.0,0.0,0.0,0.0,0.0,0.0,0.0,0.0,0.0,0.0,0.0,0.0,0.0,0.0,0.0,0.0,0.0,0.0,0.0,0.0,0.0,0.0,0.0,0.0,0.0,0.0,0.0,0.0,0.0,0.0,0.0,0.0,0.0,0.0,0.0,0.0,0.0,0.0,0.0,0.0,0.0,0.0,0.0,0.0,0.0,0.0,0.0,0.0,0.0,0.0,0.0,0.0,0.0,0.0,0.0,0.0,0.0,0.0,0.0,0.0,0.0,0.0,0.0,0.0,0.0,0.0,0.0,0.0,0.0,0.0,0.0,0.0,0.0,0.0,0.0,0.0,0.0,0.0,0.0,0.0,0.0,0.0,0.0,0.0,0.0,0.0,0.0,0.0,0.0,0.0,0.0,0.0,0.0,0.0,0.0,0.0,0.0,0.0,0.0,0.0,0.0,0.0,0.0,0.0,0.0,0.0,0.0,0.0,0.0,0.0,0.0,0.0,0.0,0.0,0.0,0.0,0.0,0.0,0.0,0.0,0.0,0.0,0.0,0.0,0.0,0.0,0.0,0.0,0.0,0.0,0.0,0.0,0.0,0.0,0.0,0.0,0.0,0.0,0.0,0.0,0.0,0.0,0.0,0.0,0.0,0.0,0.0,0.0,0.0,0.0,0.0,0.0,0.0,0.0,0.0,0.0,0.0,0.0,0.0,0.0,0.0,0.0,0.0,0.0,0.0,0.0,0.0,0.0,0.0,0.0,0.0,0.0,0.0,0.0,0.0,0.0,0.0,0.0,0.0,0.0,0.0,0.0,0.0,0.0,0.0,0.0,0.0,0.0,0.0,0.0,0.0,0.0,0.0,0.0,0.0,0.0,0.0,0.0,0.0,0.0,0.0,0.0,0.0,0.0,0.0,0.0,0.0,0.0,0.0,0.0,0.0,0.0,0.0,0.0,0.0,0.0,0.0,0.0,0.0,0.0,0.0,0.0,0.0,0.0,0.0,0.0,0.0,0.0,0.0,0.0,0.0,0.0,0.0,0.0,0.0,0.0,0.0,0.0,0.0,0.0,0.0,0.0,0.0,0.0,0.0,0.0,0.0,0.0,0.0,0.0,0.0,0.0,0.0,0.0,0.0,0.0,0.0,0.0,0.0,0.0,0.0,0.0,0.0,0.0,0.0,0.0,0.0,0.0,0.0,0.0,0.0,0.0,0.0,0.0,0.0,0.0,0.0,0.0,0.0,0.0,0.0,0.0,0.0,0.0,0.0,0.0,0.0,0.0,0.0,0.0,0.0,0.0,0.0,0.0,0.0,0.0,0.0,0.0,0.0,0.0,0.0,0.0,0.0,0.0,0.0,0.0,0.0,0.0,0.0,0.0,0.0,0.0,0.0,0.0,0.0,0.0,0.0,0.0,0.0,0.0,0.0,0.0,0.0,0.0,0.0,0.0,0.0,0.0,0.0,0.0,0.0,0.0,0.0,0.0,0.0,0.0,0.0,0.0,0.0,0.0,0.0,0.0,0.0,0.0,0.0,0.0,0.0,0.0,0.0,0.0,0.0,0.0,0.0,0.0,0.0,0.0,0.0,0.0,0.0,0.0,0.0,0.0,0.0,0.0,0.0,0.0,0.0,0.0,0.0,0.0,0.0,0.0,0.0,0.0,0.0,0.0,0.0,0.0,0.0,0.0,0.0,0.0,0.0,0.0,0.0,0.0,0.0,0.0,0.0,0.0,0.0,0.0,0.0,0.0,0.0,0.0,0.0,0.0,0.0,0.0,0.0,0.0,0.0,0.0,0.0,0.0,0.0,0.0,0.0,0.0,0.0,0.0,0.0,0.0,0.0,0.0,0.0,0.0,0.0,0.0,0.0,0.0,0.0,0.0,0.0,0.0,0.0,0.0,0.0,0.0,0.0,0.0,0.0,0.0,0.0,0.0,0.0,0.0,0.0,0.0,0.0,0.0,0.0,0.0,0.0,0.0,0.0,0.0,0.0,0.0,0.0,0.0,0.0,0.0,0.0,0.0,0.0,0.0,0.0,0.0,0.0,0.0,0.0,0.0,0.0,0.0,0.0,0.0,0.0,0.0,0.0,0.0,0.0,0.0,0.0,0.0,0.0,0.0,0.0,3.2803,0.0,0.0,0.0,0.0,0.0,0.0,0.0,0.0,0.0,0.0,0.0,0.0,0.0,0.0,0.0,0.0,0.0,0.0,0.0,0.0,0.0,0.0,0.0,0.0,0.0,0.0,0.0,0.0,0.0,0.0,0.0,0.0,0.0,0.0,0.0,0.0,0.0,0.0,2.9091,2.9286,2.9846,3.0736,3.0824,3.0877,3.0877,0.0,0.0,0.0,0.0,0.0,0.0,0.0,0.0,0.0,0.0,0.0,0.0,0.0,0.0,0.0,0.0,0.0,0.0,0.0,0.0,0.0,0.0,0.0,0.0,0.0,0.0,0.0,0.0,0.0,0.0,0.0,0.0,0.0,0.0,0.0,0.0,0.0,0.0,0.0,0.0,0.0,0.0,0.0,0.0,0.0,0.0,0.0,0.0,0.0,0.0,0.0,0.0,0.0,0.0,0.0,0.0,0.0,0.0,0.0,0.0,0.0,0.0,0.0,0.0,0.0,0.0,0.0,0.0,0.0,0.0,0.0,3.2448,0.0,0.0,0.0,0.0,0.0,0.0,0.0,0.0,0.0,0.0,0.0,0.0,0.0,0.0,0.0,0.0,0.0,0.0,0.0,0.0,0.0,0.0,0.0,2.6199,2.6386,2.682,2.6909,2.7037,2.7225,0.0,0.0,0.0,0.0,0.0,2.8838,2.893,2.9183,2.9619,2.9862,3.0425,3.1251,3.1562,3.1717,3.1695,3.1405,0.0,0.0,0.0,0.0,0.0,0.0,0.0,0.0,0.0,0.0,0.0,0.0,0.0,0.0,0.0,0.0,0.0,0.0,0.0,0.0,0.0,0.0,0.0,0.0,0.0,0.0,0.0,0.0,0.0,0.0,0.0,0.0,0.0,0.0,0.0,0.0,0.0,0.0,0.0,0.0,0.0,0.0,0.0,0.0,0.0,0.0,0.0,0.0,0.0,0.0,0.0,0.0,0.0,0.0,0.0,0.0,0.0,0.0,0.0,0.0,0.0,0.0,0.0,3.0818,3.0861,3.1021,3.1158,3.1175,3.1175,3.1822,3.1863,3.1527,3.2193,0.0,0.0,0.0,0.0,0.0,0.0,0.0,0.0,0.0,0.0,0.0,0.0,0.0,0.0,0.0,0.0,0.0,0.0,0.0,2.599,2.6178,2.6199,2.6324,2.6612,2.7016,2.7242,2.7285,0.0,0.0,0.0,0.0,2.9389,2.9389,2.978,3.0055,3.0101,3.0598,3.0913,3.1051,3.1496,3.1717,3.1695,3.1405,3.1294,3.1294,0.0,0.0,0.0,0.0,0.0,0.0,0.0,0.0,0.0,0.0,0.0,0.0,0.0,0.0,0.0,0.0,0.0,0.0,0.0,0.0,0.0,0.0,0.0,0.0,0.0,0.0,0.0,0.0,0.0,0.0,0.0,0.0,0.0,0.0,0.0,0.0,0.0,0.0,0.0,0.0,0.0,3.158,3.2036,0.0,0.0,0.0,0.0,0.0,0.0,0.0,0.0,0.0,0.0,0.0,0.0,0.0,3.1172,3.0677,3.0599,3.0313,2.9816,3.0367,3.0526,3.0339,3.0994,3.1126,3.0854,3.0963,0.0,3.0914,3.1017,0.0,0.0,0.0,0.0,0.0,0.0,0.0,0.0,0.0,0.0,0.0,0.0,0.0,0.0,0.0,0.0,0.0,0.0,0.0,0.0,0.0,2.6032,2.6224,2.6721,2.6965,2.7231,2.7672,2.8229,0.0,0.0,2.9307,2.9715,2.9715,3.0192,3.0487,3.0646,3.1005,3.1162,3.1162,3.1385,3.1496,3.145,3.1071,3.1005,3.1117,3.1117,0.0,0.0,0.0,0.0,0.0,0.0,0.0,0.0,0.0,0.0,0.0,0.0,0.0,0.0,0.0,0.0,0.0,0.0,0.0,0.0,0.0,0.0,0.0,0.0,0.0,0.0,0.0,0.0,0.0,0.0,0.0,0.0,0.0,0.0,0.0,0.0,0.0,0.0,0.0,3.204,3.1711,3.1809,3.1906,3.2247,0.0,0.0,0.0,0.0,0.0,0.0,0.0,0.0,0.0,3.1429,3.1153,3.0873,3.0632,3.0336,3.0039,2.9842,2.9968,3.0048,3.0096,3.0434,3.0507,3.0349,3.0349,3.0266,3.0154,3.0772,3.1333,3.1889,0.0,0.0,0.0,0.0,3.2786,3.2184,0.0,0.0,0.0,0.0,0.0,0.0,0.0,0.0,0.0,0.0,0.0,0.0,2.5906,2.6016,2.6298,2.6776,2.704,2.7392,2.7966,2.85,2.8835,2.8903,2.9534,2.992,2.9966,3.0374,3.0713,3.1006,3.1206,3.1294,3.1294,3.1294,3.1294,3.1272,3.0802,3.0758,3.1006,3.1006,3.1029,3.1072,0.0,0.0,0.0,0.0,0.0,0.0,0.0,0.0,0.0,0.0,0.0,0.0,0.0,0.0,0.0,0.0,0.0,0.0,0.0,0.0,0.0,0.0,0.0,0.0,0.0,0.0,0.0,0.0,0.0,0.0,0.0,0.0,0.0,0.0,0.0,0.0,0.0,3.2193,3.1837,3.1428,3.145,3.1604,0.0,0.0,0.0,0.0,0.0,0.0,3.1646,3.1386,3.1123,3.0855,3.0662,3.057,3.0487,3.0099,2.9897,2.9897,2.98,2.9839,3.0055,3.0291,3.039,3.039,3.0508,3.0434,3.0309,3.0724,3.1073,3.1428,3.2195,3.2513,3.2561,3.2572,3.2249,3.1728,0.0,0.0,0.0,0.0,0.0,0.0,0.0,0.0,0.0,0.0,0.0,2.5906,2.5906,2.63,2.6584,2.6606,2.7435,2.7959,2.8003,2.8692,2.9187,2.9441,2.9737,2.9988,3.017,3.0465,3.0713,3.1006,3.1206,3.1294,3.1294,3.1294,3.1294,3.1272,3.0802,3.0758,3.1006,3.1006,3.1095,3.1273,3.1072,0.0,0.0,0.0,0.0,0.0,0.0,0.0,0.0,0.0,0.0,0.0,0.0,0.0,0.0,0.0,0.0,0.0,0.0,0.0,0.0,0.0,0.0,0.0,0.0,0.0,0.0,0.0,0.0,0.0,0.0,0.0,0.0,0.0,0.0,0.0,0.0,0.0,0.0,3.094,3.1064,0.0,0.0,0.0,0.0,3.1476,3.1629,3.1719,3.1692,3.1162,3.0695,3.0447,3.0183,2.9925,2.9654,2.9626,2.9626,2.9626,3.0009,3.0185,3.0224,3.1035,3.1426,3.1445,3.1885,3.2061,3.1974,3.0625,3.021,3.0522,3.1073,3.134,3.1422,3.1667,3.1394,3.0818,0.0,0.0,0.0,0.0,0.0,0.0,0.0,0.0,2.5906,2.5906,2.5906,2.6016,2.6322,2.6496,2.6911,2.7701,2.8053,2.8451,2.8921,2.9051,2.9209,2.9485,2.9577,2.9988,3.0691,3.0623,3.1057,3.1954,3.1862,3.2075,3.257,3.2225,3.2086,3.2063,3.1553,3.146,3.1669,3.1221,3.1117,3.1296,3.1072,3.1006,0.0,0.0,0.0,0.0,0.0,0.0,0.0,0.0,0.0,0.0,0.0,0.0,0.0,0.0,0.0,0.0,0.0,0.0,0.0,0.0,0.0,0.0,0.0,0.0,0.0,0.0,0.0,0.0,0.0,0.0,0.0,0.0,0.0,0.0,0.0,0.0,0.0,3.0711,3.0594,0.0,3.0634,3.1171,3.1335,3.1037,3.1072,3.0983,3.0625,3.0637,3.0684,3.0726,3.0886,3.1045,3.126,3.1279,3.1279,3.1279,3.1416,3.1494,3.1514,3.1827,3.1934,3.1983,3.214,3.2198,3.2159,3.1623,3.1554,3.1828,3.2033,3.2257,3.2461,3.2324,3.212,3.1877,0.0,0.0,0.0,0.0,0.0,0.0,0.0,2.5906,2.5972,2.6125,2.6147,2.63,2.678,2.6977,2.7414,2.832,2.8541,2.8831,2.9325,2.9186,2.9163,2.9347,2.9596,3.0169,3.1066,3.0928,3.1298,3.225,3.2157,3.2369,3.2887,3.2512,3.2371,3.2347,3.1921,3.185,3.2065,3.1599,3.15,3.1682,3.1455,3.1387,3.1318,0.0,0.0,0.0,0.0,0.0,0.0,0.0,0.0,0.0,0.0,0.0,0.0,0.0,0.0,0.0,0.0,0.0,0.0,0.0,0.0,0.0,0.0,0.0,0.0,0.0,0.0,0.0,0.0,0.0,0.0,0.0,0.0,0.0,0.0,0.0,3.0684,3.0553,3.0398,3.0281,3.0412,3.0795,3.1012,3.0846,3.0979,3.0949,3.0765,3.0983,3.122,3.1338,3.1601,3.1953,3.2413,3.2413,3.2492,3.2598,3.2598,3.2598,3.2598,3.2785,3.2843,3.2843,3.3,3.3058,3.3058,3.3058,3.3132,3.326,3.2688,3.2603,3.2784,3.2542,3.2482,3.2391,0.0,0.0,0.0,0.0,0.0,0.0,2.5906,2.5906,2.6103,2.654,2.6627,2.6802,2.7282,2.7763,2.8138,2.8409,2.8851,2.9094,2.9094,2.9116,2.9115,2.9115,2.9813,3.0519,3.1277,3.1253,3.1419,3.1706,3.1968,3.2087,3.2134,3.2134,3.2134,3.211,3.1919,3.1943,3.2134,3.2134,3.2276,3.2512,3.2205,3.2111,3.2087,0.0,0.0,0.0,0.0,0.0,0.0,0.0,0.0,0.0,0.0,0.0,0.0,0.0,0.0,0.0,0.0,0.0,0.0,0.0,0.0,0.0,0.0,0.0,0.0,0.0,0.0,0.0,0.0,0.0,0.0,0.0,0.0,0.0,3.1392,3.0924,3.0546,3.0419,3.0397,3.0223,2.9713,3.0246,3.0736,3.0928,3.1309,3.1738,3.2198,3.2218,3.2237,3.2257,3.2257,3.2452,3.2851,3.2851,3.3066,3.3425,3.3425,3.3425,3.3476,3.3906,3.4114,3.4153,3.4531,3.4707,3.4707,3.4707,3.4707,3.4531,3.2922,3.2276,3.2276,3.2276,3.2246,3.2185,0.0,0.0,0.0,0.0,0.0,0.0,2.5906,2.619,2.6453,2.6584,2.7063,2.7591,2.8054,2.8388,2.8835,2.9443,2.9418,2.9393,2.9393,2.9355,2.9375,2.9529,2.9925,3.0301,3.07,3.0528,3.0805,3.1626,3.1747,3.2075,3.2613,3.2611,3.2611,3.2611,3.2388,3.246,3.2683,3.2683,3.2832,3.3032,3.2365,3.2111,3.2087,0.0,0.0,0.0,0.0,0.0,0.0,0.0,0.0,0.0,0.0,0.0,0.0,0.0,0.0,0.0,0.0,0.0,0.0,0.0,0.0,0.0,0.0,0.0,0.0,0.0,0.0,0.0,0.0,0.0,0.0,0.0,3.0627,3.0585,3.0908,3.0669,3.0495,3.0545,3.0675,3.0818,3.0957,3.1456,3.1769,3.1846,3.1964,3.2168,3.2598,3.2617,3.291,3.3567,3.3586,3.3782,3.418,3.418,3.4238,3.4355,3.4355,3.4355,3.4355,3.4473,3.4531,3.4531,3.4648,3.4707,3.4707,3.4707,3.4707,3.4648,3.418,3.4004,3.4004,3.4004,3.3714,3.3262,0.0,0.0,0.0,0.0,0.0,0.0,2.5906,2.63,2.6693,2.702,2.7613,2.821,2.8811,2.9014,2.9262,2.9692,2.96,2.9437,2.9288,2.913,2.9189,2.9504,2.9675,2.986,3.0081,3.0077,3.0281,3.0715,3.1016,3.1447,3.1942,3.2091,3.219,3.2291,3.219,3.2266,3.2516,3.2516,3.2768,3.3074,3.2627,3.2495,3.2592,3.2713,3.2762,3.281,3.3075,3.3171,3.3171,3.3171,0.0,0.0,0.0,0.0,0.0,0.0,0.0,0.0,0.0,0.0,0.0,0.0,0.0,0.0,0.0,0.0,0.0,0.0,0.0,0.0,0.0,0.0,0.0,0.0,3.0611,3.0734,3.1048,3.0804,3.0701,3.0935,3.1241,3.1553,3.1758,3.2187,3.2531,3.2676,3.2902,3.3176,3.3574,3.3594,3.3828,3.4349,3.4336,3.4551,3.498,3.498,3.5078,3.5254,3.5254,3.5254,3.5254,3.5254,3.5254,3.5254,3.5254,3.5254,3.5254,3.5254,3.5254,0.0,0.0,0.0,0.0,0.0,3.4167,3.3686,0.0,0.0,0.0,0.0,0.0,0.0,2.5972,2.6366,2.6954,2.7679,2.821,2.8766,2.9463,2.9531,2.9531,2.9531,2.9462,2.9268,2.8911,2.8619,2.8674,2.9173,2.9194,2.9249,2.9355,2.9685,2.9711,2.9402,3.0005,3.0443,3.0655,3.094,3.1197,3.1424,3.1493,3.1695,3.1951,3.2042,3.2374,3.2884,3.2909,3.3062,3.3342,3.3618,3.3766,3.3767,3.4064,3.4162,3.4162,3.4162,0.0,0.0,0.0,0.0,0.0,0.0,0.0,0.0,0.0,0.0,0.0,0.0,0.0,0.0,0.0,0.0,0.0,0.0,0.0,0.0,0.0,0.0,0.0,0.0,3.1055,3.1572,3.163,3.1387,3.1289,3.1621,3.2051,3.2355,3.2413,3.2804,3.3164,3.3503,3.3926,3.4368,3.4766,0.0,0.0,0.0,0.0,3.5039,3.5402,3.5402,3.5577,3.5879,3.5913,3.5947,3.5947,3.5982,3.5982,3.5982,3.5982,3.5982,3.5982,3.5982,3.5982,3.5869,3.509,3.4745,3.4679,3.4387,3.4056,3.3671,0.0,0.0,0.0,0.0,0.0,0.0,2.6409,2.6868,2.7414,2.8165,2.8856,2.9419,2.9783,2.9806,2.9806,2.9806,2.9301,2.8763,2.8297,2.8142,2.8217,2.8489,2.8483,2.8522,2.8521,2.8814,2.89,2.8847,2.9475,2.979,2.9843,3.0104,3.0261,3.0355,3.0921,3.1354,3.1644,3.2237,3.2569,3.2764,3.2974,3.3158,3.3367,3.384,3.4014,3.4064,3.4506,3.4653,3.4653,3.4653,3.4653,3.4653,3.4653,3.4653,0.0,0.0,0.0,0.0,0.0,0.0,0.0,0.0,0.0,0.0,0.0,0.0,0.0,0.0,0.0,0.0,0.0,0.0,0.0,3.1329,3.1699,3.2198,3.25,3.2773,3.2832,3.2578,3.293,3.332,3.3704,3.4082,3.4355,3.4453,3.4531,3.4766,3.5234,3.5254,3.541,3.5762,3.5728,3.5665,3.5491,3.5491,3.5359,3.5127,0.0,0.0,3.5626,3.5879,3.5982,3.5982,3.5982,3.5982,3.5982,3.5982,3.5845,3.5572,3.5399,3.5152,3.4846,3.4777,3.4333,3.3785,0.0,0.0,0.0,0.0,0.0,0.0,2.654,2.6998,2.759,2.8477,2.9126,2.9646,3.0011,2.9943,2.9806,2.9508,2.8897,2.8435,2.8264,2.8185,2.8179,2.8308,2.8301,2.8228,2.8094,2.8361,2.8441,2.8288,2.8734,2.8999,2.9152,2.9533,2.9788,2.9921,3.0505,3.0907,3.1171,3.1536,3.1954,3.2391,3.2464,3.269,3.3082,3.3811,3.4088,3.4162,3.4628,3.4799,3.4799,3.4799,3.4799,3.4799,3.4799,3.4799,3.4799,0.0,0.0,0.0,0.0,0.0,0.0,0.0,0.0,0.0,0.0,0.0,0.0,0.0,0.0,3.1674,3.1446,0.0,3.2125,3.2159,3.2519,3.2949,3.3379,3.3789,3.3906,3.3476,3.3809,3.4141,3.4388,3.4785,3.5039,3.5039,3.5234,3.5469,3.5703,3.5703,3.5699,3.5743,3.5743,3.5572,3.5196,3.5196,3.5188,3.519,3.5398,3.5616,3.5791,3.5965,3.6035,3.6035,3.5826,3.5756,3.5737,3.5354,3.4746,3.411,3.411,3.4317,3.4612,3.4198,3.3694,3.3207,0.0,0.0,0.0,0.0,0.0,0.0,2.6671,2.7129,2.781,2.8813,2.9284,2.9692,3.0148,2.9966,2.9599,2.9016,2.8446,2.8158,2.8221,2.8232,2.8194,2.814,2.814,2.8014,2.7799,2.8067,2.8121,2.7906,2.8147,2.8408,2.8641,2.9102,2.9436,2.9653,3.0201,3.058,3.0795,3.0931,3.1381,3.1975,3.1881,3.2096,3.2545,3.3355,3.3792,3.4014,3.4506,3.4653,3.4653,3.4653,3.4653,3.4653,3.4653,3.4653,3.4677,3.4773,3.4551,0.0,0.0,0.0,0.0,0.0,0.0,0.0,0.0,3.147,3.147,3.0998,3.1505,3.1969,3.17,3.207,3.255,3.2871,3.334,3.3828,3.429,3.4629,3.4746,3.4505,3.4687,3.4863,3.4941,3.5293,3.5508,3.5508,3.582,3.5947,3.5913,3.5991,3.5859,3.5501,3.5578,3.5444,3.5029,3.5029,3.5145,3.5395,3.5484,3.5654,3.5886,3.5958,3.5922,3.5725,3.526,3.5044,3.4972,3.4322,3.3429,3.2544,3.2473,3.2896,3.3529,3.2982,3.2491,3.207,0.0,0.0,0.0,0.0,0.0,0.0,0.0,0.0,2.8293,2.9305,2.9486,2.9692,3.0148,2.9806,2.9224,2.847,2.8045,2.7801,2.7695,2.7861,2.7799,2.7503,2.7503,2.7476,2.7449,2.7772,2.7933,2.7906,2.8147,2.8327,2.8354,2.8758,2.898,2.9047,3.015,3.0668,3.0744,3.1428,3.1633,3.1571,3.1669,3.1634,3.1608,3.2039,3.272,3.3467,3.399,3.4162,3.4162,3.4162,3.4162,3.4162,3.4162,3.4162,3.4256,3.4679,3.4445,3.4081,3.4256,3.329,3.2156,3.1712,3.1584,3.1592,0.0,3.1918,3.1959,3.2025,3.2092,3.215,3.212,3.2734,3.3269,3.334,3.4023,3.4726,3.5176,3.5293,3.543,3.5762,3.5508,3.5469,3.584,3.5884,3.5923,3.5923,3.5962,3.5879,3.5592,3.5904,3.5923,3.5486,3.583,3.5861,3.5541,3.5506,3.5346,3.5061,3.5437,3.542,3.5135,3.5421,3.5188,3.4469,3.3692,3.3384,3.333,3.2895,3.2407,3.1935,3.1659,3.1183,3.0734,3.1105,3.0747,3.0088,0.0,0.0,0.0,0.0,0.0,0.0,0.0,0.0,2.8359,2.9372,2.9508,2.9692,3.0148,2.9531,2.8911,2.8452,2.803,2.785,2.7995,2.8077,2.8067,2.7926,2.7906,2.7906,2.7906,2.804,2.8121,2.8121,2.8247,2.8301,2.8301,2.8711,2.9062,2.9344,3.0083,3.0572,3.0827,3.1149,3.1173,3.1027,3.0953,3.086,3.0734,3.0976,3.1296,3.1757,3.2924,3.3446,0.0,3.3593,3.3593,3.3593,3.3593,3.3779,3.4032,3.4063,3.3957,3.3776,3.3328,3.2593,3.1892,3.147,3.1428,3.1552,3.1663,3.1928,3.2134,3.219,3.2559,3.2891,3.2891,3.3594,3.4258,3.4531,3.4863,3.5254,3.5703,3.5762,3.582,3.5962,3.5859,3.582,3.5962,3.5982,3.5913,3.5709,3.5941,3.5904,3.5524,3.5889,3.5941,3.5552,3.5721,3.5636,3.5242,3.5027,3.492,3.5012,3.4939,3.4828,3.4676,3.4786,3.4177,3.2916,3.2318,3.164,3.0996,3.0809,3.0399,2.9853,2.9704,2.9196,2.8642,2.9745,2.9687,2.8952,0.0,0.0,0.0,0.0,0.0,0.0,0.0,0.0,0.0,0.0,2.9554,2.9692,2.9988,2.9209,2.8642,2.8504,2.8006,2.7853,2.8269,2.8301,2.8301,2.8301,2.8301,2.8301,2.8301,2.8301,2.8301,2.8301,2.8301,2.8301,2.8301,2.8711,2.9082,2.9442,2.9844,3.0215,3.0527,3.0527,3.0495,3.0387,3.021,3.0077,2.9978,3.0034,3.0104,3.0365,3.1739,3.237,3.2521,3.2521,3.2662,3.2848,3.2848,3.3163,3.3566,3.3466,3.3471,3.3334,3.2588,3.2169,3.1872,3.1612,3.1613,3.1719,3.1836,3.2109,3.2433,3.2667,3.3184,3.3633,3.375,3.4394,3.5,3.5332,3.5488,3.5664,3.5976,3.5982,3.5982,3.5982,3.5982,3.6006,3.6054,3.602,3.5917,3.5677,3.5943,3.5927,3.5557,3.5901,3.5948,3.5588,3.57,3.5574,3.5176,3.4885,3.4755,3.4821,3.4451,3.4145,3.3878,3.3407,3.2533,3.127,3.0732,2.9976,2.9188,2.9188,2.8771,2.8183,2.8335,2.7893,2.7358,2.8449,2.8482,2.792,0.0,0.0,0.0,0.0,0.0,0.0,0.0,0.0,0.0,0.0,2.9737,2.9783,2.9554,2.8861,2.8428,2.8479,2.7834,2.7673,2.8269,2.8301,2.8301,2.8301,2.8301,2.8301,2.8301,2.8301,2.8301,2.8301,2.8301,2.8301,2.8301,2.8711,2.8898,2.8937,2.9422,2.9618,2.9637,2.9637,2.9637,2.9607,2.9498,2.9429,2.9396,2.9206,2.9343,2.9738,3.0552,3.0862,3.0862,3.0862,3.1343,3.194,3.194,3.2216,3.2636,3.3159,3.3049,3.269,3.2475,3.2205,3.2028,3.2133,3.2179,3.2276,3.2656,3.2773,3.3008,3.388,3.4075,3.4212,3.459,3.5059,3.5371,3.5391,3.5742,3.5996,3.5982,3.5982,3.5982,3.5982,3.5982,3.6054,3.6082,3.612,3.6085,3.6085,3.6083,3.5939,3.5618,3.5973,3.6015,3.5595,3.5981,3.5978,3.5606,3.5569,3.5158,3.4426,3.4012,3.3407,3.2588,3.0978,3.0013,2.9532,2.8744,2.8353,2.8353,2.8353,2.8065,2.7684,2.8129,2.779,2.7004,2.7083,2.6932,2.6724,0.0,0.0,0.0,0.0,0.0,0.0,0.0,0.0,0.0,0.0,0.0,0.0,0.0,0.0,0.0,0.0,2.8006,2.7853,2.8269,2.8301,2.8301,2.8301,2.8301,2.8301,2.8301,2.8301,2.8301,2.8301,2.8301,2.8301,2.8301,2.8437,2.8652,2.8898,2.9082,2.9297,2.9598,2.9598,2.9422,2.9121,2.9094,2.8905,2.8657,2.858,2.8628,2.8761,0.0,2.9633,3.0303,3.059,3.0831,3.1099,3.1413,3.1806,3.2211,3.2482,3.2539,3.2455,3.2205,3.2256,3.2364,3.222,3.2413,3.2695,3.3105,3.3437,3.384,3.4375,3.4759,3.5,3.5137,3.5508,3.5801,3.5801,3.5903,3.5982,3.5982,3.5982,3.5982,3.5982,3.6029,3.6089,3.6085,3.6105,0.0,3.5767,3.6019,3.601,3.5612,3.5981,3.6017,3.5592,3.5719,3.5493,3.4819,3.4293,3.3596,3.28,3.1523,3.0809,3.05,2.9392,2.8651,2.8221,2.7687,2.7294,2.7057,2.7057,2.6939,2.6821,2.6978,2.686,2.6584,2.6584,2.6581,2.6483,0.0,0.0,0.0,0.0,0.0,0.0,0.0,0.0,0.0,0.0,0.0,0.0,0.0,0.0,0.0,0.0,0.0,2.793,2.8295,2.8301,2.8301,2.8301,2.8301,2.8301,2.8301,2.8301,2.8301,2.8301,2.8301,2.8301,2.8301,2.8301,2.8437,2.8691,2.8691,2.8848,2.9149,2.9149,2.8945,2.8691,2.8691,2.8535,2.8301,2.8301,2.8301,0.0,2.8457,2.8999,2.9653,2.991,3.0289,3.0676,3.0981,3.1388,3.1759,3.1917,3.2005,3.2098,3.2255,3.2471,3.2686,3.2835,3.3078,3.3359,3.3789,3.4101,3.4446,3.4863,3.5176,3.543,3.5586,3.584,3.5982,3.5982,3.5982,3.5982,3.5982,3.5982,3.6006,3.6025,3.607,3.6115,3.614,3.6123,3.606,3.5841,3.6051,3.6017,3.5613,3.585,3.5754,3.5194,3.5157,3.4707,3.3765,3.312,3.2152,3.0886,2.9649,2.8925,2.8612,2.8079,2.7608,2.7175,2.69,2.6623,2.6386,2.6386,2.6386,2.6386,2.6386,2.6386,2.6386,2.6386,2.6386,2.6386,0.0,0.0,0.0,0.0,0.0,0.0,0.0,0.0,0.0,0.0,0.0,0.0,0.0,0.0,0.0,0.0,0.0,0.0,2.8256,2.8281,2.8301,2.8301,2.8301,2.8301,2.8301,2.8301,2.8301,2.8301,2.8301,2.8301,2.8301,2.8301,2.8301,2.8301,2.8301,2.8301,2.8301,2.8301,2.8301,2.8301,2.8301,2.8301,2.8301,2.8301,2.8301,2.8379,2.8742,2.8918,2.8957,2.8957,2.9746,3.0701,3.0701,3.0998,3.1327,3.1446,3.1513,3.1758,3.2578,3.2832,3.3066,3.3899,3.4114,3.4251,3.4629,3.4726,3.4863,3.5332,3.543,3.5547,3.5937,3.5982,3.5982,3.5982,3.5982,3.5982,3.5982,3.6001,3.6074,3.6082,3.6143,3.6153,3.6214,3.6198,3.6161,3.6161,0.0,3.5978,3.5568,3.553,3.5157,3.4331,3.4293,3.3689,3.2473,3.1999,3.077,2.8808,2.8392,2.7779,2.6992,2.6966,2.6769,2.6386,2.64,2.64,2.6386,2.6386,2.6386,2.6386,2.6386,2.6386,2.6386,2.6386,2.6386,2.6386,0.0,0.0,0.0,0.0,0.0,0.0,0.0,0.0,0.0,0.0,0.0,0.0,0.0,0.0,0.0,0.0,0.0,0.0,2.7845,2.8151,2.8301,2.8301,2.8301,2.8301,2.8301,2.8301,2.8301,2.8301,2.8301,2.8301,2.8301,2.8301,2.8301,2.8301,2.8301,2.8301,2.8301,2.8301,2.8301,2.8301,2.8301,2.8301,2.8301,2.8301,2.8496,2.8769,2.8859,2.9336,2.9863,2.9863,3.0311,3.0839,3.0839,3.1133,3.1456,3.1484,3.1973,3.2519,3.2734,3.3262,3.384,3.4055,3.4349,3.4668,3.5117,3.5215,3.5332,3.5762,3.5859,3.5898,3.5962,3.5982,3.5982,3.5982,3.5982,3.5982,3.5982,3.6289,3.6439,3.612,3.6415,3.6533,3.6233,3.5926,3.5758,3.5758,3.5737,3.5456,3.4744,3.4707,3.4218,3.3082,3.2762,3.1999,3.0747,2.9416,2.83,2.749,2.7057,2.6781,2.6558,2.6773,2.668,2.64,2.6613,2.6587,2.6386,2.6386,2.6386,2.6386,2.6386,2.6386,2.6386,2.6386,2.6386,2.6386,0.0,0.0,0.0,0.0,0.0,0.0,0.0,0.0,0.0,0.0,0.0,0.0,0.0,0.0,0.0,0.0,0.0,0.0,0.0,2.847,2.8601,2.8488,2.8488,2.8434,2.8301,2.8301,2.8301,2.8301,2.8301,2.8301,2.8301,2.8301,2.8301,2.8301,2.8301,2.8301,2.8301,2.8301,2.8301,0.0,0.0,2.8301,2.8301,2.8301,2.8555,2.8918,2.9141,2.9766,3.0508,3.0508,3.0684,3.0918,3.1113,3.1328,3.1601,3.1973,3.2422,3.2871,3.3262,3.3743,3.4192,3.4551,3.4824,3.5117,3.5566,3.5664,3.5742,3.5942,3.5982,3.5982,3.5982,3.5982,3.5982,3.5982,3.5982,3.6094,3.6289,3.6523,3.6642,3.6447,3.6656,3.6581,3.5981,3.5739,3.5306,3.4594,3.4894,3.4707,3.3916,3.3521,3.2762,3.1555,3.1117,3.0307,2.9042,2.7869,2.7205,2.6905,2.6693,2.664,2.6774,2.6947,2.6934,2.6787,0.0,2.6921,2.6774,2.6774,2.6774,2.6774,2.6774,2.6774,2.6774,2.6774,2.6774,2.676,0.0,0.0,0.0,0.0,0.0,0.0,0.0,0.0,0.0,0.0,0.0,0.0,0.0,0.0,0.0,0.0,0.0,0.0,0.0,0.0,2.9071,2.8834,2.8781,2.8621,2.8354,2.8327,2.8301,2.8301,2.8301,2.8301,2.8301,2.8301,2.8301,2.8301,2.8354,2.8354,2.8354,2.8354,2.8354,2.8354,2.8308,2.8301,2.8301,0.0,2.8594,2.9062,2.9598,3.0263,3.0898,3.0898,3.0898,3.0957,3.1357,3.1533,3.1758,3.2559,3.2832,3.3047,3.3899,3.4153,3.4388,3.5195,3.543,3.5566,3.5937,3.5982,3.5982,3.5982,3.5982,3.5982,3.5982,3.5982,3.5982,3.5982,3.5982,3.6172,3.6636,3.6753,3.677,3.6793,3.6817,3.6457,3.5606,3.5381,3.4669,3.3158,3.3538,3.3521,3.2816,3.2075,3.1078,2.9819,2.9377,2.8598,2.7437,2.7138,2.6931,2.6787,2.6867,2.7014,2.7309,2.7349,2.7349,2.7309,2.7349,2.7349,2.7309,2.7309,2.7309,2.7309,2.7309,2.7309,2.7309,2.7309,2.7309,2.7269,0.0,0.0,0.0,0.0,0.0,0.0,0.0,0.0,0.0,0.0,3.1451,3.1272,0.0,0.0,0.0,0.0,0.0,0.0,0.0,0.0,0.0,2.9454,2.9185,2.8913,2.8648,2.8408,2.8301,2.8301,2.8301,2.8301,2.8301,2.8301,2.8301,2.8327,2.8541,2.8621,2.8621,2.8621,2.8621,2.8621,2.8381,2.8301,2.8301,2.8301,0.0,0.0,3.04,3.0762,3.0898,3.0898,3.0898,3.0957,3.1357,3.1758,3.2179,3.2656,3.3047,3.3418,3.3958,3.4349,3.4726,3.5254,3.5664,3.5903,3.5962,3.5982,3.5982,3.5982,3.5982,3.5982,3.5982,3.5982,3.5982,3.5982,3.5982,3.6172,3.6636,3.7007,3.71,3.6812,3.6807,3.6349,3.5231,3.4218,3.3217,3.2266,3.1347,3.0786,3.067,3.0191,2.9338,2.8065,2.7647,2.7175,2.6623,2.6746,2.6814,2.6787,2.7068,2.7255,2.7309,2.7509,2.7495,2.7322,2.7522,0.0,2.7309,2.7309,2.7309,2.7309,2.7309,2.7309,2.7309,2.7309,2.7309,2.7296,0.0,0.0,0.0,0.0,0.0,0.0,0.0,3.1629,3.1717,3.1717,3.1606,3.145,3.134,3.0916,3.0488,0.0,0.0,0.0,0.0,0.0,0.0,3.024,3.0057,2.9738,2.9178,2.8867,2.8654,2.8514,0.0,2.8301,2.8301,2.8301,2.8301,2.8308,2.8568,2.8701,2.8701,2.886,2.8834,2.8674,2.8568,2.8434,2.8301,2.8301,0.0,0.0,3.0595,3.0898,3.0898,3.0898,3.0898,3.0996,3.166,3.2042,3.2316,3.293,3.3262,3.3555,3.4219,3.4551,3.4863,3.5547,3.5879,3.5982,3.5982,3.5982,3.5982,3.5982,3.5982,3.5982,3.5982,3.5982,3.5982,3.5982,3.5982,3.625,3.6894,3.6992,3.6935,3.6824,3.6423,3.5605,3.4218,3.3142,3.2037,3.0793,2.9765,2.9236,2.947,2.8651,2.783,2.7018,2.6781,2.6584,2.6386,2.6533,2.668,2.6787,2.7121,2.7389,2.7495,2.7844,2.7898,2.7777,2.7911,0.0,2.7764,2.7764,2.7764,2.7764,2.7764,2.7764,2.7764,2.7764,2.7764,2.7737,0.0,0.0,0.0,0.0,0.0,0.0,0.0,3.1717,3.1717,3.1717,3.1717,3.1629,3.1429,3.1316,3.1138,0.0,0.0,0.0,0.0,0.0,0.0,0.0,0.0,0.0,2.9869,0.0,0.0,2.8887,2.8621,0.0,0.0,0.0,0.0,0.0,2.8648,2.8781,2.8807,2.9079,2.9026,0.0,0.0,2.8541,2.8301,0.0,0.0,0.0,0.0,3.0801,3.0898,3.0898,3.0898,3.1035,3.1925,3.2198,3.2374,3.3184,3.3386,3.3562,3.4355,3.457,3.4746,3.5547,3.5708,3.5708,3.5708,3.5708,3.5728,3.5859,3.5879,3.5918,3.5962,3.5982,3.5982,3.5982,3.5982,3.6255,3.6946,3.6768,3.6525,3.6441,3.5625,3.4464,3.293,3.1922,3.0732,2.9221,2.8364,2.8026,2.8339,2.7412,2.6742,2.6386,2.6386,2.6386,2.6386,2.6453,2.66,2.6787,2.7121,2.7429,2.7615,2.7884,2.8031,2.8085,2.8085,0.0,2.8179,2.8179,2.8179,2.8179,2.8179,2.8179,2.8179,2.8179,2.8179,2.8152,0.0,0.0,0.0,0.0,0.0,0.0,0.0,3.1717,3.1717,3.1717,3.1717,3.1695,3.1673,3.1451,3.1272,0.0,0.0,0.0,0.0,0.0,0.0,0.0,0.0,0.0,0.0,0.0,0.0,2.9527,2.9185,0.0,0.0,0.0,0.0,0.0,0.0,2.9052,2.9079,2.9422,0.0,0.0,0.0,0.0,0.0,0.0,0.0,0.0,0.0,3.0527,3.0898,3.0898,3.0898,3.1035,3.1925,3.2198,3.2374,3.3184,3.3386,3.3503,3.4036,3.4173,3.4271,3.4707,3.4824,3.4824,3.4824,3.4824,3.4941,3.5371,3.5449,3.5566,3.5923,3.5982,3.5982,3.5982,3.5982,3.6035,3.619,3.6188,3.591,3.5248,3.4142,3.2897,3.16,3.0075,2.8808,2.7869,2.7018,2.6584,2.6623,2.6505,2.6426,2.6386,2.6386,2.6386,2.6386,2.6653,2.68,2.6787,2.7121,2.7322,2.7349,2.7376,2.7536,2.7736,2.7736,0.0,0.0,2.8179,2.8179,2.8179,2.8179,2.8179,2.8179,2.8179,2.8179,2.8179,0.0,0.0,0.0,0.0,0.0,0.0,3.1695,3.1717,3.1717,3.1717,3.1717,3.1717,3.1717,3.1582,3.154,3.154,0.0,0.0,0.0,0.0,0.0,0.0,0.0,0.0,0.0,0.0,3.1017,3.0318,3.0026,0.0,0.0,0.0,0.0,0.0,0.0,2.8999,2.8887,2.9158,0.0,0.0,0.0,0.0,0.0,0.0,0.0,0.0,0.0,0.0,3.0898,3.0898,3.0898,3.1035,3.1925,3.2198,3.2374,3.3184,3.3386,3.3516,3.3977,3.4114,3.4212,3.459,3.4707,3.4707,3.4707,3.4707,3.4746,3.4941,3.5195,3.5449,3.5605,3.5859,3.5913,3.5709,3.5709,3.5658,3.5471,3.5231,3.4812,3.4,3.2831,3.1561,3.0346,2.8949,2.7751,2.6939,2.6584,2.6386,2.6386,2.6386,2.6386,2.6386,2.6386,2.6386,2.6386,2.6507,2.656,2.656,2.6854,2.7001,2.7001,2.7229,2.7362,2.7483,2.7483,0.0,0.0,2.7844,2.7924,2.7938,2.8112,2.8179,2.8179,2.8179,2.8179,2.8179,0.0,0.0,0.0,0.0,0.0,3.1717,3.1717,3.1717,3.1717,3.1717,3.1717,3.1717,3.1717,3.1717,3.1717,3.1717,3.154,0.0,0.0,0.0,0.0,0.0,0.0,0.0,0.0,0.0,3.2091,3.1274,3.0991,3.0573,0.0,0.0,2.9527,2.8993,0.0,0.0,0.0,0.0,0.0,0.0,0.0,0.0,0.0,0.0,0.0,0.0,0.0,0.0,0.0,0.0,0.0,3.1016,3.1738,3.2101,3.2374,3.3184,3.3386,3.3464,3.3789,3.3887,3.3945,3.4238,3.4316,3.4316,3.4316,3.4316,3.4355,3.4492,3.4785,3.5078,3.5351,3.5524,3.5607,3.5519,3.5318,3.5069,3.4692,3.4089,3.3385,3.2591,3.1269,3.003,2.9066,2.7908,2.7018,2.6426,2.6386,2.6386,2.6386,2.6386,2.6386,2.6386,2.6386,2.6386,2.6386,2.6386,2.6386,2.6386,2.66,2.6694,2.6694,2.6907,2.7095,2.7134,2.7134,0.0,0.0,2.7482,2.7575,2.7602,2.7938,2.8058,2.8058,2.8152,2.8179,2.8179,0.0,0.0,0.0,0.0,0.0,0.0,3.1717,3.1717,3.1717,3.1717,3.1717,3.1717,3.1717,3.1717,3.1717,3.1717,3.1717,0.0,0.0,0.0,0.0,0.0,0.0,0.0,0.0,0.0,3.3174,3.2395,3.2117,3.1582,3.0785,3.0521,3.0104,2.9606,0.0,0.0,0.0,0.0,0.0,0.0,0.0,0.0,0.0,0.0,0.0,0.0,0.0,0.0,0.0,0.0,0.0,0.0,0.0,3.1816,3.2374,3.3184,3.3386,3.3386,3.3406,3.3406,3.3406,3.3406,3.3406,3.3406,3.3406,3.3406,3.3555,3.4016,3.4114,3.4388,3.5234,3.5089,3.4955,3.5446,3.4887,3.4267,3.3851,3.2844,3.1794,3.0917,2.9412,2.8226,2.7684,2.69,2.6386,2.6386,2.6386,0.0,2.6386,2.6386,2.6386,2.6386,2.6386,2.6386,2.6386,2.6386,2.6386,2.6386,2.6386,2.6386,2.6386,2.64,2.656,0.0,0.0,0.0,0.0,2.7309,2.7309,2.7336,2.7589,2.7709,2.7736,2.8072,2.8179,2.8179,0.0,0.0,0.0,0.0,0.0,0.0,0.0,3.1717,3.1717,3.1717,3.1717,3.1717,3.1717,3.1717,3.1717,3.1717,3.1717,0.0,0.0,0.0,0.0,0.0,0.0,0.0,0.0,0.0,3.3843,3.3199,3.3147,3.2672,3.1888,3.1812,3.1377,3.0707,3.0578,3.0109,0.0,0.0,0.0,0.0,0.0,0.0,2.8301,0.0,0.0,0.0,0.0,0.0,0.0,0.0,0.0,0.0,0.0,0.0,0.0,3.2754,3.3172,3.3386,3.3386,3.3386,3.3386,3.3386,3.3386,3.3386,3.3386,3.3386,3.3425,3.3594,3.3867,3.4193,3.4514,3.4676,3.47,3.4399,3.4128,3.3504,3.2088,3.1332,3.0486,2.9374,2.8173,2.7261,2.6807,2.6544,2.6386,2.6386,2.6386,2.6386,2.6386,2.6386,2.6386,2.6386,2.6386,2.6386,2.6386,2.6386,2.6386,2.6386,2.6386,2.6386,2.6386,2.6386,2.644,0.0,0.0,0.0,2.668,2.6881,2.6961,2.6987,2.7295,2.7522,2.7709,2.7802,2.8005,2.8179,0.0,0.0,0.0,0.0,0.0,0.0,0.0,3.1717,3.1717,3.1717,3.1717,3.1717,3.1717,3.1717,3.1717,3.1717,3.1717,0.0,0.0,0.0,0.0,0.0,0.0,0.0,3.3815,3.4293,3.4335,3.3892,3.3892,3.3522,3.2848,3.2848,3.242,3.1637,3.1377,3.0733,0.0,0.0,0.0,0.0,0.0,0.0,2.8301,0.0,0.0,0.0,0.0,0.0,0.0,0.0,0.0,0.0,0.0,0.0,0.0,0.0,3.2734,3.3223,3.3347,3.3386,3.3386,3.3386,3.3386,3.3386,3.3386,3.3386,3.3355,3.3228,3.3442,3.3714,3.3973,3.398,3.3936,3.3829,3.3225,3.2263,3.0958,2.9925,2.8881,2.7725,2.7017,2.6541,2.6412,2.6386,2.6386,2.6386,2.6386,2.6386,2.6386,2.6386,2.6386,2.6386,2.6386,2.6386,2.6386,2.6386,2.6386,2.6386,2.6386,2.6386,2.6386,2.6386,2.6386,0.0,0.0,2.6386,0.0,2.6587,2.6653,2.6694,2.6987,2.7201,2.7375,2.7495,2.7764,2.8018,0.0,0.0,0.0,0.0,0.0,0.0,0.0,3.1717,3.1717,3.1717,3.1717,3.1717,3.1717,3.1717,3.1717,3.1717,0.0,0.0,0.0,0.0,0.0,0.0,0.0,0.0,3.3934,3.4511,3.4677,3.4433,3.4433,3.4163,3.3669,3.3669,3.3249,3.2521,3.2218,3.1454,0.0,0.0,0.0,0.0,0.0,0.0,0.0,0.0,0.0,0.0,0.0,0.0,0.0,0.0,0.0,0.0,0.0,0.0,0.0,0.0,0.0,0.0,0.0,3.3367,3.3386,3.3386,3.3386,3.3386,3.3355,3.3355,0.0,3.2912,3.2867,3.2989,3.3534,3.3022,3.2762,3.3462,3.2088,3.0745,3.0266,2.8563,2.7048,2.6174,2.6003,2.6118,2.636,2.6386,2.6386,2.6386,2.6386,2.6386,2.6386,2.6386,2.6386,2.6386,2.6386,2.6386,2.6386,2.6386,2.6386,2.6386,2.6386,2.6386,2.6386,2.6386,2.6386,0.0,0.0,2.6386,2.6386,2.6386,2.6386,2.6413,2.668,2.676,2.6854,2.7134,2.7456,2.7669,0.0,0.0,0.0,0.0,0.0,0.0,0.0,0.0,0.0,0.0,3.1717,3.1717,3.1717,3.1717,3.1717,0.0,0.0,0.0,0.0,0.0,0.0,0.0,0.0,0.0,3.3452,3.4342,3.4775,3.4702,3.4702,3.4531,3.4212,3.4212,3.4015,3.3693,3.322,3.2037,0.0,0.0,0.0,0.0,0.0,0.0,0.0,0.0,0.0,0.0,2.9285,2.9598,0.0,0.0,0.0,0.0,0.0,0.0,0.0,0.0,3.1894,3.2433,3.2832,0.0,3.3386,3.3386,3.3386,3.3323,0.0,3.3007,3.2931,3.2581,3.2307,3.2263,3.2773,3.2271,3.1745,3.1685,3.0764,2.9644,2.8367,2.699,2.6004,2.5693,2.5849,2.6118,2.636,2.6386,2.6386,2.6386,2.6386,2.6386,2.6386,2.6386,2.6386,2.6386,2.6386,2.6386,2.6386,2.6386,2.6386,2.6386,2.6386,2.6386,2.6386,2.6386,2.6386,0.0,0.0,2.6386,2.6386,2.6386,2.6386,2.64,2.6466,2.6627,2.6827,2.6894,2.7108,2.7403,0.0,0.0,0.0,0.0,0.0,0.0,0.0,0.0,0.0,0.0,0.0,0.0,0.0,0.0,0.0,0.0,0.0,0.0,0.0,0.0,0.0,0.0,0.0,3.3284,3.3284,3.4294,3.4799,3.4799,3.4799,3.4726,3.458,3.458,3.4457,3.4211,3.3296,3.1961,0.0,0.0,0.0,0.0,2.8301,0.0,0.0,0.0,0.0,0.0,2.9043,2.9422,0.0,3.038,3.0703,3.0898,0.0,0.0,0.0,0.0,3.1543,3.1923,3.2168,3.27,3.3165,3.3165,3.3038,3.288,3.2708,3.2676,3.2581,3.223,3.1891,3.1746,3.2041,3.1344,3.0652,3.047,2.9501,2.8207,2.6677,2.5732,2.5208,2.5315,2.5571,2.5904,2.6198,2.6306,2.6386,2.6386,2.6386,2.6386,2.6386,2.6386,2.6386,2.6386,2.6386,2.6386,2.6386,2.6386,2.6386,2.6386,2.6386,2.6386,2.6386,2.6386,2.6386,0.0,0.0,2.6386,2.6386,2.6386,2.6386,2.6386,2.6386,2.6493,2.6627,2.6627,2.6814,2.7068,0.0,0.0,0.0,0.0,0.0,0.0,0.0,0.0,0.0,0.0,0.0,0.0,0.0,0.0,0.0,0.0,0.0,0.0,0.0,0.0,0.0,0.0,3.2778,3.3284,3.3284,3.4294,3.4799,3.4799,3.4799,3.4799,3.4799,3.4799,3.4628,3.4286,3.3074,3.1761,0.0,0.0,0.0,0.0,2.8301,0.0,0.0,0.0,0.0,0.0,0.0,0.0,0.0,3.0059,3.0508,3.0898,3.082,0.0,0.0,0.0,0.0,0.0,3.1515,3.2083,3.2676,3.2816,3.2581,3.2326,3.2262,3.2198,3.207,3.1717,3.1451,3.1251,3.1221,3.0344,2.9598,2.946,2.8135,2.6677,2.5299,2.4821,2.4706,2.5037,2.5291,2.5585,2.5957,2.6225,2.6346,2.6386,2.6386,2.6386,2.6386,2.6386,2.6386,2.6386,2.6386,2.6386,2.6386,2.6386,2.6386,2.6386,2.6386,2.6386,2.6386,2.6386,2.6386,2.6386,0.0,0.0,2.6386,2.6386,2.6386,2.6386,2.6386,2.6386,2.6386,2.6386,2.6547,2.672,0.0,0.0,0.0,0.0,0.0,0.0,0.0,0.0,0.0,0.0,0.0,0.0,0.0,0.0,0.0,0.0,0.0,0.0,0.0,0.0,0.0,3.2346,3.2971,3.3284,3.3284,3.4294,3.4799,3.4799,3.4799,3.4799,3.4799,3.4799,3.4579,3.4113,3.3396,3.2193,3.0707,3.0156,0.0,0.0,2.8301,0.0,0.0,0.0,0.0,0.0,0.0,0.0,0.0,3.0059,3.0508,3.085,3.0567,0.0,0.0,0.0,0.0,0.0,3.118,3.1388,3.1715,3.2327,3.2211,3.1923,3.1635,3.1313,3.1041,3.0703,3.0594,3.0449,3.0106,2.941,2.8664,2.7981,2.6568,2.5336,2.4784,2.4636,2.4706,2.5037,2.5155,2.5396,2.5944,2.6038,2.6172,2.6373,2.6386,2.6386,2.6386,2.6386,2.6386,2.6386,2.6386,2.6386,2.6386,2.6386,2.6386,2.6386,2.6386,2.6386,2.6386,2.6386,2.6386,2.6386,0.0,2.6386,2.6386,2.6386,2.6386,2.6386,2.6386,2.6386,2.6386,2.6386,2.6413,2.6493,0.0,0.0,0.0,0.0,0.0,0.0,0.0,0.0,0.0,0.0,0.0,0.0,0.0,0.0,0.0,0.0,0.0,0.0,0.0,0.0,3.2226,3.2491,3.326,3.3669,3.3669,3.4414,3.4799,3.4799,3.4799,3.4799,3.4799,3.4653,3.431,3.3817,3.3097,3.1939,3.0547,3.0,2.9211,2.8301,0.0,0.0,0.0,0.0,0.0,0.0,0.0,0.0,0.0,0.0,3.0277,3.0587,3.0245,0.0,0.0,0.0,0.0,0.0,3.0818,3.0934,3.1108,3.171,3.1603,3.1249,3.0894,3.0538,3.0213,2.9872,2.9806,2.9682,2.927,2.8589,2.7697,2.6437,2.5483,2.4821,2.4636,2.4599,2.4653,2.4823,2.4983,2.5222,2.5489,2.5625,2.5838,2.6172,2.6198,2.6265,2.6386,2.6386,2.6386,2.6386,2.6386,2.6386,2.6386,2.6386,2.6386,2.6386,2.6386,2.6386,2.6386,2.6386,2.6386,2.6386,0.0,2.6386,2.6386,2.6386,2.6386,2.6386,2.6386,2.6386,2.6386,2.6386,2.6386,2.6413,0.0,0.0,0.0,0.0,0.0,0.0,0.0,0.0,0.0,0.0,0.0,0.0,0.0,0.0,0.0,0.0,0.0,0.0,0.0,3.22,3.2563,3.2683,3.3525,3.3982,3.3982,3.4535,3.4799,3.4799,3.4799,3.4775,3.4702,3.4506,3.4089,3.3496,3.2748,3.1684,3.0469,2.9843,2.9132,2.8381,0.0,0.0,0.0,0.0,0.0,0.0,0.0,0.0,0.0,0.0,0.0,0.0,0.0,0.0,0.0,2.9715,2.9686,2.9814,3.0334,3.0464,3.0568,3.0938,3.0904,3.0653,3.0198,2.9659,2.925,2.899,2.8927,2.8784,2.8385,2.761,2.6619,2.5258,2.4784,2.4599,2.4599,2.4599,2.4599,2.4599,2.4836,2.4997,2.5077,2.5277,2.5531,2.5864,2.5891,2.5984,2.6172,2.6186,2.6186,2.6186,2.6186,2.6186,2.6186,2.6253,2.6319,2.6386,2.6386,2.6386,2.6386,2.6386,2.6386,2.6386,2.6386,2.6386,2.6386,2.6386,2.6386,2.6386,2.6386,2.6386,2.6386,2.6386,2.6386,2.6386,0.0,0.0,0.0,0.0,0.0,0.0,0.0,0.0,0.0,0.0,0.0,0.0,0.0,0.0,0.0,0.0,0.0,0.0,0.0,3.22,3.2731,3.3212,3.3717,3.3982,3.3982,3.4535,3.4799,3.4799,3.4799,3.4677,3.4433,3.4409,3.3991,3.3294,3.2672,3.1786,3.0707,2.9947,2.9237,2.8648,2.8408,0.0,0.0,0.0,0.0,0.0,0.0,0.0,0.0,0.0,0.0,0.0,0.0,0.0,2.9479,2.9153,2.9064,2.9159,2.9658,2.9764,2.981,2.9895,3.0191,3.023,2.9545,2.8576,2.7847,2.7816,2.781,2.7656,2.7185,2.6178,2.5198,2.471,2.4636,2.4599,2.4599,2.4599,2.4599,2.4599,2.4613,2.4783,2.505,2.5141,2.5237,2.5531,2.5545,2.5558,2.5571,2.5571,2.5571,2.5571,2.5571,2.5571,2.5571,2.5891,2.6158,2.6386,2.6386,2.6386,2.6386,2.6386,2.6386,2.6386,2.6386,2.6386,2.6386,2.6386,2.6386,2.6386,2.6386,2.6386,2.6386,2.6386,2.6386,2.6386,0.0,0.0,0.0,0.0,0.0,0.0,0.0,0.0,0.0,0.0,0.0,0.0,0.0,0.0,0.0,0.0,0.0,0.0,0.0,3.2683,3.3212,3.3717,3.4222,3.4511,3.4511,3.4703,3.4799,3.4799,3.4799,3.4653,3.4409,3.4285,3.3792,3.2969,3.224,3.1403,3.0495,2.9659,2.9072,2.8674,2.8408,2.8301,0.0,0.0,0.0,0.0,0.0,0.0,0.0,0.0,2.9525,2.9597,2.9302,2.9183,2.9153,2.9035,2.8845,2.8847,2.9534,2.9564,2.9538,3.0052,2.993,2.9476,2.852,2.7851,2.7246,2.6762,2.6651,2.6552,2.6279,2.5693,2.5079,2.4673,2.4599,2.4599,2.4599,2.4599,2.4599,2.4599,2.4599,2.4639,2.4796,2.4796,2.493,2.5224,2.5237,2.5317,2.5504,2.5518,2.5518,2.5518,2.5518,2.5518,2.5518,2.5625,2.5732,2.5852,2.6213,2.6386,2.6386,2.6386,2.6386,2.6386,2.6386,2.6386,2.6386,2.6386,2.6386,2.6386,2.6386,2.6386,2.6386,2.6386,2.6386,2.6386,0.0,0.0,0.0,0.0,0.0,0.0,0.0,0.0,0.0,0.0,0.0,0.0,0.0,0.0,0.0,0.0,0.0,0.0,3.2491,3.314,3.3645,3.3982,3.4511,3.4799,3.4799,3.4799,3.475,3.4677,3.4604,3.4433,3.4163,3.394,3.3394,3.2519,3.1808,3.1039,3.0209,2.9422,2.8966,2.8674,2.8408,2.8301,0.0,0.0,0.0,0.0,0.0,0.0,0.0,0.0,2.942,2.9302,2.9064,2.9005,2.9005,2.9005,2.8755,2.8667,2.9349,2.9133,2.8846,2.9409,2.9095,2.8309,2.7133,2.6828,2.6614,2.5953,2.5771,2.5705,2.562,2.5299,2.4931,2.4636,2.4599,2.4599,2.4599,2.4599,2.4599,2.4599,2.4599,2.4599,2.4599,2.4599,2.4679,2.493,2.4943,2.5024,2.5224,2.5237,2.5237,2.5237,2.5237,2.5237,2.5237,2.5331,2.5371,2.5384,2.5879,2.6159,2.6292,2.6346,2.6386,2.6386,2.6386,2.6386,2.6386,2.6386,2.6386,2.6386,2.6386,2.6386,2.6386,2.6386,2.6386,2.6386,0.0,0.0,0.0,0.0,0.0,0.0,0.0,0.0,0.0,0.0,0.0,0.0,0.0,0.0,0.0,0.0,0.0,0.0,3.2515,3.3453,3.3982,3.4006,3.4535,3.4799,3.4799,3.4799,3.4653,3.4409,3.4211,3.394,3.3693,3.3442,3.2843,3.1964,3.145,3.075,2.9968,2.9343,2.892,2.8674,2.8408,2.8301,2.8301,0.0,0.0,0.0,0.0,0.0,0.0,0.0,2.9272,2.9005,2.9005,2.9005,2.9005,2.9005,2.8755,2.8577,2.896,2.8362,2.7605,2.768,2.7458,2.6823,2.533,2.5524,2.5869,2.5474,2.5271,2.5189,2.5189,2.4857,2.4599,2.4599,2.4599,2.4599,2.4599,2.4599,2.4599,2.4599,2.4599,2.4599,2.4599,2.4599,2.4599,2.4599,2.4599,2.4599,2.4599,2.4599,2.4599,2.4599,2.4599,2.4599,2.4599,2.493,2.5115,2.5115,2.5371,2.5665,2.5998,2.6253,2.6386,2.6386,2.6386,2.6386,2.6386,2.6386,2.6386,2.6386,2.6386,2.6386,2.6386,2.6386,2.6386,2.6386,0.0,0.0,0.0,0.0,0.0,0.0,0.0,0.0,0.0,0.0,0.0,0.0,0.0,0.0,0.0,0.0,0.0,0.0,3.3525,3.3814,3.415,3.4559,3.4727,3.4799,3.4799,3.4481,3.4359,3.4409,3.4211,3.394,3.3693,3.3442,3.2843,3.1964,3.1223,3.0573,2.9942,2.9152,2.8781,2.8674,2.8408,2.8301,2.832,0.0,0.0,0.0,0.0,0.0,0.0,0.0,0.0,0.0,2.9005,2.9005,2.8964,2.8725,2.8595,2.8498,2.8157,2.7863,2.7549,2.7101,2.6719,2.6224,2.5523,2.5525,2.5438,2.4707,2.4661,2.4784,2.4784,2.4673,2.4599,2.4599,2.4599,2.4599,2.4599,2.4599,2.4599,2.4599,2.4599,2.4599,2.4599,2.4599,2.4599,2.4599,2.4599,2.4599,2.4599,2.4599,2.4599,2.4599,2.4599,2.4599,2.4599,2.4693,2.4733,2.4733,2.5064,2.5358,2.5651,2.5984,2.6131,2.6131,2.6346,2.6386,2.6386,2.6386,2.6386,2.6386,2.6386,2.6386,2.6386,2.6386,2.6386,2.6386,0.0,0.0,0.0,0.0,0.0,0.0,0.0,0.0,0.0,0.0,3.1717,3.1717,0.0,0.0,0.0,0.0,0.0,0.0,0.0,3.4198,3.4462,3.4799,3.4799,3.4799,3.4799,3.4334,3.4162,3.4285,3.3841,3.3469,3.3172,3.2692,3.2063,3.1326,3.063,3.0,2.9442,2.8913,2.8648,2.8541,2.8381,2.8398,2.8574,0.0,0.0,0.0,0.0,0.0,0.0,0.0,0.0,0.0,2.9005,2.9005,2.8916,2.8606,2.8442,2.8254,2.7573,2.7136,2.6745,2.6204,2.5664,2.5229,2.5074,2.5128,2.5038,2.4457,2.4479,2.4599,2.4599,2.4599,2.4599,2.4599,2.4599,2.4599,2.4599,2.4599,2.4599,2.4599,2.4599,2.4599,2.4599,2.4599,2.4599,2.4599,2.4599,2.4599,2.4599,2.4599,2.4599,2.4599,2.4599,2.4599,2.4599,2.4599,2.4599,2.4599,2.4823,2.4997,2.517,2.5598,2.5824,2.5837,2.6131,2.6279,2.6386,2.6386,2.6386,2.6386,2.6386,2.6386,2.6386,2.6386,2.6386,2.6386,0.0,0.0,0.0,0.0,0.0,0.0,0.0,0.0,0.0,0.0,3.1717,3.1717,0.0,0.0,0.0,0.0,0.0,0.0,0.0,3.4535,3.4799,3.4799,3.4799,3.4799,3.4799,3.4334,3.4112,3.4039,3.3267,3.2692,3.2345,3.1553,3.0884,3.0339,2.979,2.9237,2.8701,2.8674,2.8534,2.834,2.834,2.8594,2.8957,2.8996,0.0,0.0,0.0,0.0,0.0,0.0,0.0,0.0,2.9005,2.9005,2.8934,2.8612,2.8326,2.7981,2.7221,2.6358,2.5535,2.5075,2.4447,2.4023,2.4243,2.4502,2.4679,2.4619,2.4599,2.4599,2.4599,2.4599,2.4599,2.4599,2.4599,2.4599,2.4599,2.4599,2.4599,2.4599,2.4599,2.4599,2.4599,2.4599,2.4599,2.4599,2.4599,2.4599,2.4599,2.4599,2.4599,2.4599,2.4599,2.4599,2.4599,2.4599,2.4599,2.4599,2.4599,2.4599,2.4613,2.5211,2.5491,2.5531,2.5864,2.6145,2.636,2.6373,2.6386,2.6386,2.6386,2.6386,2.6386,2.6386,2.6386,2.6386,0.0,0.0,0.0,0.0,0.0,0.0,0.0,0.0,0.0,0.0,0.0,0.0,0.0,0.0,0.0,0.0,0.0,0.0,0.0,3.4751,3.4799,3.4799,3.4799,3.4799,3.4799,3.4334,3.3965,3.3694,3.2921,3.2345,3.2066,3.1249,3.0604,3.0057,2.9475,2.8999,2.8674,2.8488,2.853,2.8789,2.8789,2.9043,2.9473,2.9805,3.0039,0.0,0.0,0.0,0.0,0.0,0.0,0.0,2.9005,2.9005,2.8929,2.8653,2.8549,2.816,2.6708,2.6145,2.5641,2.4151,2.381,2.3912,2.4152,2.4438,2.463,2.4586,2.4599,2.4599,2.4599,2.4599,2.4599,2.4599,2.4599,2.4599,2.4599,2.4599,2.4599,2.4599,2.4599,2.4599,2.4599,2.4599,2.4599,2.4599,2.4599,2.4599,2.4599,2.4599,2.4599,2.4599,2.4599,2.4599,2.4599,2.4599,2.4599,2.4599,2.4599,2.4599,2.4613,2.501,2.5291,2.5531,2.5864,2.6038,2.6105,2.6293,2.6386,2.6386,2.6386,2.6386,2.6386,2.6386,2.6386,2.6386,0.0,0.0,0.0,0.0,0.0,0.0,0.0,0.0,0.0,0.0,0.0,0.0,0.0,0.0,0.0,0.0,0.0,0.0,0.0,0.0,3.4799,3.4799,3.4799,3.4726,3.4604,3.4138,3.3645,3.3224,3.2167,3.1556,3.1403,3.0448,2.977,2.9369,2.892,2.8648,2.8507,2.8569,2.8711,2.8918,2.9141,2.9492,2.9931,3.0117,3.0332,3.0537,3.0432,0.0,0.0,0.0,0.0,0.0,0.0,0.0,2.8947,2.8699,2.8486,2.8011,2.652,2.5826,2.524,2.3734,2.3593,2.3884,2.4142,2.4422,2.4599,2.4599,2.4599,2.4599,2.4599,2.4599,2.4599,2.4599,2.4599,2.4599,2.4599,2.4599,2.4599,2.4599,2.4599,2.4599,2.4599,2.4599,2.4599,2.4599,2.4599,2.4599,2.4599,2.4599,2.4599,2.4599,2.4599,2.4599,2.4599,2.4599,2.4599,2.4599,2.4599,2.4599,2.4599,2.4796,2.5024,2.5317,2.5503,2.565,2.5772,2.6105,2.6225,2.6238,2.6333,2.6386,2.6386,2.6386,2.6386,2.6386,0.0,0.0,0.0,0.0,0.0,0.0,0.0,0.0,0.0,0.0,0.0,0.0,0.0,0.0,0.0,0.0,0.0,0.0,0.0,0.0,0.0,3.4799,3.4799,3.4677,3.4409,3.3867,3.3273,3.265,3.1377,3.0655,3.0474,2.9501,2.8893,2.8621,2.8408,2.834,2.8418,2.8769,2.8976,2.918,2.9559,2.997,3.0312,3.0312,3.0518,3.0762,3.0421,3.0098,2.9774,2.9509,0.0,0.0,0.0,0.0,2.9039,2.885,2.856,2.8004,2.6649,2.5522,2.4527,2.3628,2.3594,2.3897,2.4195,2.4426,2.4599,2.4599,2.4599,2.4599,2.4599,2.4599,2.4599,2.4599,2.4599,2.4599,2.4599,2.4599,2.4599,2.4599,2.4599,2.4599,2.4599,2.4599,2.4599,2.4599,2.4599,2.4599,2.4599,2.4599,2.4599,2.4599,2.4599,2.4599,2.4599,2.4599,2.4599,2.4599,2.4599,2.4599,2.4599,2.4599,2.4733,2.501,2.5064,2.5224,2.5464,2.585,2.5998,2.6024,2.6319,2.6386,2.6386,2.6386,2.6386,2.6386,0.0,0.0,0.0,0.0,0.0,0.0,0.0,0.0,0.0,0.0,3.2104,3.2418,0.0,0.0,0.0,0.0,0.0,0.0,3.4799,0.0,0.0,3.4799,3.4799,3.4677,3.4409,3.3867,3.3099,3.2117,3.1013,3.0078,2.9317,2.894,2.8621,2.8354,2.8327,2.8496,2.882,2.8879,2.9355,3.0019,3.0078,3.0391,3.0801,3.0801,3.0675,3.0421,3.0098,2.9804,2.9509,2.9183,2.9035,0.0,0.0,0.0,2.9501,2.9552,2.9322,2.8766,2.7408,2.5353,2.3612,2.3708,2.3777,2.395,2.4412,2.4572,2.4599,2.4599,2.4599,2.4599,2.4599,2.4599,2.4599,2.4599,2.4599,2.4599,2.4599,2.4599,2.4599,2.4599,2.4599,2.4599,2.4599,2.4599,2.4599,2.4599,2.4599,2.4599,2.4599,2.4599,2.4599,2.4599,2.4599,2.4599,2.4599,2.4599,2.4599,2.4599,2.4599,2.4599,2.4599,2.4599,2.4626,2.4679,2.497,2.5104,2.5184,2.577,2.5998,2.6024,2.6319,2.6386,2.6386,2.6386,2.6386,2.6386,0.0,0.0,0.0,0.0,0.0,0.0,0.0,0.0,0.0,0.0,0.0,3.2731,0.0,0.0,0.0,3.4414,3.4679,3.4799,3.4799,3.4799,3.4799,3.4799,3.4653,3.4384,3.3966,3.3273,3.2395,3.1326,3.0396,2.958,2.8887,2.8594,2.8408,2.8301,2.8535,2.8723,2.8918,2.9434,2.9863,3.0215,3.0488,3.0616,3.0616,3.0616,3.0392,3.0069,2.9774,2.9597,2.945,2.9094,2.9005,2.9005,2.9005,0.0,0.0,0.0,2.9456,2.8787,2.6841,2.5056,2.3687,2.3547,2.3647,2.391,2.4302,2.4479,2.4599,2.4599,2.4599,2.4599,2.4599,2.4599,2.4599,2.4599,2.4599,2.4599,2.4599,2.4599,2.4599,2.4599,2.4599,2.4599,2.4599,2.4599,2.4599,2.4599,2.4599,2.4599,2.4599,2.4599,2.4599,2.4599,2.4599,2.4599,2.4599,2.4599,2.4599,2.4599,2.4599,2.4599,2.4599,2.4599,2.4599,2.4613,2.477,2.4836,2.4863,2.5291,2.5596,2.5732,2.6065,2.6279,2.6386,2.6386,2.6386,2.6386,0.0,0.0,0.0,0.0,0.0,0.0,0.0,0.0,0.0,0.0,0.0,0.0,0.0,0.0,0.0,0.0,3.4799,3.4799,3.4799,3.4799,3.4799,3.4799,3.4531,3.4139,3.362,3.2798,3.1837,3.0681,2.9973,2.9264,2.8594,2.8479,2.8457,2.8457,2.8769,2.9015,2.925,2.9922,3.0273,3.041,3.0655,3.0616,3.0392,3.0304,3.0069,2.9774,2.9568,2.945,2.9331,0.0,2.9078,2.917,2.917,2.9501,0.0,0.0,0.0,2.8469,2.629,2.4868,2.3899,2.3421,2.3554,2.3884,2.4142,2.4422,2.4599,2.4599,2.4599,2.4599,2.4599,2.4599,2.4599,2.4599,2.4599,2.4599,2.4599,2.4599,2.4599,2.4599,2.4599,2.4599,2.4599,2.4599,2.4599,2.4599,2.4599,2.4599,2.4599,2.4599,2.4599,2.4599,2.4599,2.4599,2.4599,2.4599,2.4599,2.4599,2.4599,2.4599,2.4599,2.4599,2.4599,2.4599,2.4599,2.4599,2.4626,2.4957,2.5211,2.5438,2.585,2.6131,2.6332,2.636,2.6386,2.6386,0.0,0.0,0.0,0.0,0.0,0.0,0.0,0.0,0.0,0.0,0.0,0.0,3.3982,3.4438,3.4775,3.4799,3.4799,3.4799,3.4799,3.4799,3.4799,3.4799,3.4531,0.0,3.362,3.2798,3.1761,3.0417,2.9869,2.9158,2.8327,2.8691,2.8859,2.8859,2.8879,2.9375,3.0137,3.0176,3.0449,3.0859,3.0538,3.0421,3.0362,3.0039,2.9774,2.9538,2.9509,0.0,0.0,0.0,0.0,2.9574,2.9574,3.0125,3.0736,0.0,0.0,0.0,2.6468,2.5071,2.3899,2.3421,2.3554,2.3884,2.4142,2.4422,2.4599,2.4599,2.4599,2.4599,2.4599,2.4599,2.4599,2.4599,2.4599,2.4599,2.4599,2.4599,2.4599,2.4599,2.4599,2.4599,2.4599,2.4599,2.4599,2.4599,2.4599,2.4599,2.4599,2.4599,2.4599,2.4599,2.4599,2.4599,2.4599,2.4599,2.4599,2.4599,2.4599,2.4599,2.4599,2.4599,2.4599,2.4599,2.4599,2.4599,2.4626,2.4957,2.5128,2.5195,2.577,2.6011,2.6051,2.6332,2.6386,2.6386,0.0,0.0,0.0,0.0,0.0,0.0,0.0,0.0,0.0,0.0,0.0,0.0,0.0,3.4679,3.4799,3.4799,3.4799,3.4799,3.4799,3.4799,3.4726,3.4555,3.4334,3.3768,3.2848,3.2018,3.1069,2.9895,2.9311,2.892,2.8691,2.882,2.9191,2.9746,2.9746,2.9902,3.0215,3.0508,3.0742,3.085,3.0538,3.0274,3.0039,2.9745,2.945,0.0,0.0,0.0,0.0,0.0,0.0,0.0,0.0,0.0,3.0782,3.0591,2.944,2.7883,2.6468,2.5071,2.3843,2.3213,2.326,2.3567,2.3861,2.4155,2.4372,2.4559,2.4599,2.4599,2.4599,2.4599,2.4599,2.4599,2.4599,2.4599,2.4599,2.4599,2.4599,2.4599,2.4599,2.4599,2.4599,2.4599,2.4599,2.4599,2.4599,2.4599,2.4599,2.4599,2.4599,2.4599,2.4599,2.4599,2.4599,2.4599,2.4599,2.4599,2.4599,2.4599,2.4599,2.4599,2.4599,2.4599,2.4599,2.4451,2.423,2.4335,2.438,2.4337,2.4582,2.5048,2.5608,2.5714,2.6029,2.6386,0.0,0.0,0.0,0.0,0.0,0.0,0.0,0.0,0.0,3.4246,0.0,0.0,0.0,0.0,3.4799,3.4799,3.4726,3.4677,3.4677,3.4604,3.4433,3.4139,3.394,3.3344,3.2294,3.1606,3.0784,2.9805,2.9353,2.9139,2.9141,2.9277,2.9648,3.0195,3.0351,3.043,3.0449,3.0762,3.0898,3.0869,3.0392,3.0098,2.9863,2.9479,2.9275,0.0,0.0,0.0,0.0,0.0,0.0,0.0,0.0,0.0,0.0,3.0516,2.9364,2.7883,2.6468,2.5071,2.3816,2.3065,2.31,2.3345,2.3581,2.3928,2.4262,2.4412,2.4532,2.4599,2.4599,2.4599,2.4599,2.4599,2.4599,2.4599,2.4599,2.4599,2.4599,2.4599,2.4599,2.4599,2.4599,2.4599,2.4599,2.4599,2.4599,2.4599,2.4599,2.4599,2.4599,2.4599,2.4599,2.4599,2.4599,2.4599,2.4599,2.4599,2.4599,2.4599,2.4599,2.4599,2.4599,2.4599,2.4599,2.4377,2.4007,2.3859,2.3627,2.3342,2.3442,2.382,2.434,2.4713,2.5166,2.5649,0.0,0.0,0.0,0.0,0.0,0.0,0.0,0.0,3.4799,3.4799,0.0,0.0,0.0,0.0,0.0,3.4775,3.4531,3.4384,3.4384,3.4187,3.3915,3.3593,3.3392,3.2866,3.2009,3.1593,3.0983,3.02,3.0066,2.9869,2.9618,3.0028,3.0195,3.0234,3.0684,3.0898,3.0898,3.0898,3.0898,3.084,3.0176,2.9911,2.9852,2.9261,0.0,0.0,2.9629,2.9855,0.0,3.0191,0.0,0.0,0.0,0.0,0.0,0.0,0.0,2.7883,0.0,0.0,0.0,2.3065,2.3086,2.3278,2.3292,2.3732,2.4182,2.4195,2.4422,2.4586,2.4599,2.4599,2.4599,2.4599,2.4599,2.4599,2.4599,2.4599,2.4599,2.4599,2.4599,2.4599,2.4599,2.4599,2.4599,2.4599,2.4599,2.4599,2.4599,2.4599,2.4599,2.4599,2.4599,2.4599,2.4599,2.4599,2.4599,2.4599,2.4599,2.4599,2.4599,2.4599,2.4599,2.4599,2.4599,2.4377,2.397,2.355,2.2905,2.2209,2.2499,2.2405,2.22,2.3243,2.3784,2.4085,0.0,0.0,0.0,0.0,0.0,3.4583,3.4583,3.4703,3.4799,0.0,0.0,0.0,3.4799,3.4628,3.4506,3.4506,3.4089,3.3818,3.3818,3.3398,3.3183,3.3243,3.2778,3.2258,3.1785,3.1239,3.0669,3.0058,2.9818,2.9811,3.0019,3.0137,3.0371,3.0703,3.084,3.0898,3.0898,3.0898,3.0898,3.084,3.0176,3.0063,0.0,0.0,0.0,0.0,0.0,3.014,3.0266,0.0,3.0361,3.0492,0.0,0.0,0.0,0.0,0.0,0.0,2.6133,0.0,0.0,0.0,0.0,0.0,2.3273,2.3412,2.3652,2.4115,2.4262,2.4382,2.4559,2.4599,2.4599,2.4599,2.4599,2.4599,2.4599,2.4599,2.4599,2.4599,2.4599,2.4599,2.4599,2.4599,2.4599,2.4599,2.4599,2.4599,2.4599,2.4599,2.4599,2.4599,2.4599,2.4599,2.4599,2.4599,2.4599,2.4599,2.4599,2.4599,2.4599,2.4599,2.4599,2.4599,2.4599,2.4377,2.397,2.3253,2.2309,2.13,2.1117,2.1102,2.1272,2.1571,2.2024,2.2541,0.0,0.0,0.0,0.0,0.0,3.4799,3.4799,3.4799,3.4799,0.0,0.0,0.0,3.453,3.4383,3.4212,3.4089,3.3756,3.3444,3.3242,3.2888,3.2619,3.2533,3.2184,3.1778,3.1319,3.1064,3.0693,3.0238,3.0181,3.0254,3.0488,3.0488,3.0625,3.0898,3.0898,3.0898,3.0898,3.1074,3.1152,3.1093,3.0424,0.0,0.0,2.988,2.9797,0.0,0.0,0.0,3.0088,3.0088,3.0004,0.0,0.0,0.0,0.0,0.0,0.0,0.0,0.0,0.0,2.3816,2.3065,0.0,0.0,2.3086,2.3233,2.3385,2.3732,2.3941,2.4115,2.4359,2.4412,2.4452,2.4586,2.4599,2.4599,2.4599,2.4599,2.4599,2.4599,2.4599,2.4599,2.4599,2.4599,2.4599,2.4599,2.4599,2.4599,2.4599,2.4599,2.4599,2.4599,2.4599,2.4599,2.4599,2.4599,2.4599,2.4599,2.4599,2.4599,2.4599,2.4599,2.4599,2.4599,2.4599,2.4377,2.397,2.329,2.2235,2.0962,2.036,2.0071,1.9934,1.9923,2.0265,2.0714,0.0,0.0,3.4799,3.4799,3.4799,3.4799,3.4799,3.4799,3.4775,0.0,3.4506,3.4261,3.4158,3.4059,3.386,3.3608,3.3416,3.3123,3.2625,3.2388,3.2108,3.1703,3.1621,3.134,3.087,3.1003,3.0949,3.0636,3.0799,3.0898,3.0898,3.0898,3.0898,3.0898,3.0937,3.0957,3.0996,3.1406,3.1591,3.154,3.0833,3.0625,0.0,0.0,2.9712,2.9733,2.9701,2.9623,2.9543,2.9478,2.9266,0.0,0.0,0.0,0.0,0.0,2.7501,0.0,0.0,0.0,0.0,0.0,2.2893,0.0,2.2893,2.3073,2.3252,2.3278,2.3541,2.3843,2.4102,2.4155,2.4235,2.4466,2.4506,2.4532,2.4586,2.4599,2.4599,2.4599,2.4599,2.4599,2.4599,2.4599,2.4599,2.4599,2.4599,2.4599,2.4599,2.4599,2.4599,2.4599,2.4599,2.4599,2.4599,2.4599,2.4599,2.4599,2.4599,2.4599,2.4599,2.4599,2.4599,2.4599,2.4599,2.4414,2.4044,2.3624,2.2533,2.1063,2.0248,1.9428,1.8719,1.8623,1.8706,1.8877,0.0,3.4799,3.4799,3.4799,3.4799,3.4799,3.4799,3.4799,3.4726,3.4506,3.4065,3.3907,3.4301,3.3716,3.3337,3.3428,3.2799,3.2228,3.1927,3.1414,3.1237,3.153,3.1067,3.0937,3.1211,3.1022,3.0907,3.0849,3.0869,3.0898,3.0898,3.0898,3.0898,3.0898,3.125,3.1377,3.1426,3.1855,3.2094,3.2088,3.1356,3.0915,3.0613,2.995,2.9561,2.9359,2.9081,2.8608,2.7998,2.7401,2.7169,2.7118,0.0,0.0,0.0,0.0,0.0,0.0,0.0,0.0,0.0,0.0,0.0,0.0,2.2893,2.2947,2.302,2.3273,2.3332,2.35,2.3808,2.3884,2.391,2.3964,2.3977,2.4102,2.4532,2.4599,2.4599,2.4599,2.4599,2.4599,2.4599,2.4599,2.4599,2.4599,2.4599,2.4599,2.4599,2.4599,2.4599,2.4599,2.4599,2.4599,2.4599,2.4599,2.4599,2.4599,2.4599,2.4599,2.4599,2.4599,2.4599,2.4599,2.4599,2.4562,2.4451,2.4044,2.3129,2.1887,2.1063,2.0285,1.9504,1.885,1.8425,1.818,3.4799,3.4799,3.4799,3.4799,3.4799,3.475,3.4628,3.4604,3.4457,3.4065,3.3629,3.339,3.3425,3.3073,3.2712,3.2572,3.2211,3.1816,3.1422,3.12,3.1082,3.1188,3.0921,3.0847,3.1112,3.0966,3.0898,3.0898,3.0898,3.0898,3.0898,3.0898,3.0996,3.1211,3.1247,3.1371,3.1554,3.1876,3.1794,3.1496,3.1507,0.0,3.0701,2.9816,2.9062,2.8444,2.7899,2.7235,2.6568,2.5981,2.5813,0.0,0.0,2.5947,2.5981,0.0,2.5172,2.4868,0.0,0.0,0.0,2.2962,0.0,0.0,0.0,2.2893,2.2934,2.306,2.31,2.3193,2.35,2.3554,2.3594,2.3777,2.3803,2.391,2.4168,2.4329,2.4439,2.4586,2.4599,2.4599,2.4599,2.4599,2.4599,2.4599,2.4599,2.4599,2.4599,2.4599,2.4599,2.4599,2.4599,2.4599,2.4599,2.4599,2.4599,2.4599,2.4599,2.4599,2.4599,2.4599,2.4599,2.4599,2.4599,2.4599,2.4562,2.4377,2.392,2.3277,2.2073,2.1101,2.0285,1.9483,1.8953,1.8567,3.4775,3.475,3.4726,3.4726,3.4677,3.4555,3.4286,3.4237,3.4039,3.3486,3.3131,3.2766,3.2421,3.2295,3.2039,3.1567,3.1584,3.1443,3.0989,3.1069,3.1054,3.0928,3.0898,3.0898,3.0898,3.0898,3.0898,3.0898,3.0898,3.0898,3.0898,3.0976,3.1162,3.1404,3.1309,3.1378,3.1662,3.1852,3.1501,3.0882,0.0,3.1198,3.049,2.948,2.8378,2.7268,2.6401,2.5697,2.5124,2.48,2.4699,2.4699,2.4699,2.4733,0.0,0.0,0.0,0.0,0.0,0.0,0.0,0.0,0.0,2.2893,0.0,0.0,0.0,2.2893,2.2893,2.2974,2.3193,2.3233,2.3313,2.3589,2.3629,2.3656,2.371,2.3888,2.4168,2.4479,2.4519,2.4532,2.4586,2.4599,2.4599,2.4599,2.4599,2.4599,2.4599,2.4599,2.4599,2.4599,2.4599,2.4599,2.4599,2.4599,2.4599,2.4599,2.4599,2.4599,2.4599,2.4599,2.4599,2.4599,2.4599,2.4599,2.4599,2.4599,2.4599,2.4451,2.3091,2.2111,2.1375,2.0564,2.0,1.9596,3.475,3.4604,3.4457,3.4457,3.431,3.4064,3.3744,3.3694,3.3482,3.2871,3.2444,3.2166,3.1975,3.1556,3.1156,3.0905,3.0713,0.0,3.049,0.0,3.0626,3.0898,3.0898,3.0898,3.0898,3.0898,3.0898,3.0898,3.0898,3.0898,3.0898,3.1269,3.1286,3.1084,3.1834,3.2013,3.179,3.2175,3.1931,0.0,3.1097,3.0372,0.0,2.8609,2.7484,2.61,2.4766,2.402,2.3645,0.0,2.3577,2.3577,0.0,2.3816,2.402,2.3645,0.0,0.0,0.0,0.0,0.0,0.0,2.2893,0.0,0.0,0.0,2.2893,2.2893,0.0,2.2907,2.2947,0.0,0.0,2.3,2.3,2.3094,2.3305,2.3372,2.3599,2.4182,2.4249,2.4356,2.4572,2.4599,2.4599,2.4599,2.4599,2.4599,2.4599,2.4599,2.4599,2.4599,2.4599,2.4599,2.4599,2.4599,2.4599,2.4599,2.4599,2.4599,2.4599,2.4599,2.4599,2.4599,2.4599,2.4599,2.4599,2.4599,2.4599,2.4562,2.3994,2.3513,2.303,2.2223,2.1662,2.1251,3.4555,3.4237,3.3941,3.3941,3.3827,3.3657,3.3379,3.2989,3.2612,3.2259,3.1808,3.1459,3.134,3.0941,0.0,0.0,0.0,3.0098,0.0,0.0,3.045,3.0597,3.0791,3.0898,3.0898,3.0898,3.0898,3.0898,3.1133,3.125,3.1269,3.1699,3.1849,3.1765,3.1738,3.1678,3.1522,3.1079,3.0505,0.0,0.0,2.8394,0.0,2.7335,2.6118,2.4413,2.3645,2.3236,2.3099,0.0,2.3099,0.0,0.0,0.0,0.0,0.0,0.0,0.0,0.0,0.0,0.0,0.0,0.0,0.0,2.2893,0.0,2.2893,0.0,0.0,0.0,0.0,0.0,0.0,0.0,2.2893,2.2947,2.3033,2.306,2.3287,2.3888,2.3991,2.4062,2.4356,2.4382,2.4412,2.4586,2.4599,2.4599,2.4599,2.4599,2.4599,2.4599,2.4599,2.4599,2.4599,2.4599,2.4599,2.4599,2.4599,2.4599,2.4599,2.4599,2.4599,2.4599,2.4599,2.4599,2.4599,2.4599,2.4599,2.4562,2.4414,2.4119,2.3698,2.3364,2.298,2.2608,3.4117,3.3846,3.3528,3.3378,3.3282,3.3105,3.2761,3.2196,3.1767,3.1569,3.1167,3.0824,3.0538,3.04,0.0,0.0,2.9938,3.0024,0.0,0.0,3.0416,0.0,0.0,0.0,0.0,3.1083,3.1142,3.1279,3.1543,3.1699,3.1699,3.2038,3.2192,3.2128,3.1596,3.123,3.1023,3.0083,2.9266,2.8576,2.7814,2.6838,2.5748,2.5914,2.5028,2.3584,2.3157,2.3027,2.3014,2.292,2.2893,0.0,2.2893,0.0,0.0,0.0,0.0,0.0,2.2893,0.0,0.0,0.0,0.0,0.0,0.0,0.0,0.0,0.0,0.0,0.0,0.0,0.0,0.0,0.0,0.0,2.2893,2.2893,2.2893,2.3094,2.3581,2.3728,2.3884,2.4062,2.4155,2.4289,2.4466,2.4559,2.4599,2.4599,2.4599,2.4599,2.4599,2.4599,2.4599,2.4599,2.4599,2.4599,2.4599,2.4599,2.4599,2.4599,2.4599,2.4599,2.4599,2.4599,2.4599,2.4599,2.4599,2.4599,2.4599,2.4599,2.4414,2.4156,2.4156,2.397,2.3748,3.3422,3.3473,3.3344,3.2801,3.262,3.2362,3.1816,3.1387,3.1019,0.0,0.0,0.0,0.0,0.0,0.0,0.0,0.0,3.0353,3.0642,0.0,3.0384,0.0,0.0,3.0868,0.0,0.0,3.1775,3.2159,3.2179,3.2179,3.2198,3.227,3.2109,3.1803,3.1514,3.1023,3.0278,2.9611,2.8872,2.8147,2.7415,2.62,2.4806,0.0,2.4386,2.4197,2.3526,0.0,0.0,2.3,2.2893,0.0,0.0,0.0,0.0,0.0,0.0,0.0,0.0,0.0,0.0,2.2893,0.0,0.0,0.0,0.0,2.2893,0.0,0.0,0.0,0.0,0.0,0.0,0.0,0.0,0.0,0.0,2.2893,2.3014,2.3265,2.3594,2.3803,2.3817,2.4035,2.4209,2.4222,2.4439,2.4599,2.4599,2.4599,2.4599,2.4599,2.4599,2.4599,2.4599,2.4599,2.4599,2.4599,2.4599,2.4599,2.4599,2.4599,2.4599,2.4599,2.4599,2.4599,2.4599,2.4599,2.4599,2.4599,2.4599,2.4599,2.4562,2.4562,2.4562,2.4562,3.2362,3.2214,3.216,3.2051,3.1929,3.169,3.1236,3.0873,0.0,0.0,0.0,0.0,0.0,3.0217,3.0107,0.0,0.0,3.0266,3.0359,3.0426,0.0,0.0,0.0,3.1009,0.0,0.0,0.0,3.1466,3.1784,3.1949,3.1949,3.2244,3.2182,3.1851,3.1309,3.0538,2.9578,2.8594,2.7619,0.0,0.0,2.4918,2.4403,0.0,2.417,2.3932,2.3696,2.3621,0.0,2.3273,2.3166,2.314,2.296,2.2893,2.2893,2.2893,2.2893,0.0,0.0,0.0,2.2893,2.2893,0.0,0.0,0.0,0.0,0.0,0.0,0.0,0.0,0.0,0.0,0.0,0.0,0.0,0.0,0.0,2.2893,2.2934,2.3006,2.3148,2.3281,2.346,2.3567,2.3781,2.4168,2.4289,2.4399,2.4586,2.4599,2.4599,2.4599,2.4599,2.4599,2.4599,2.4599,2.4599,2.4599,2.4599,2.4599,2.4599,2.4599,2.4599,2.4599,2.4599,2.4599,2.4599,2.4599,2.4599,2.4599,2.4599,2.4599,2.4599,2.4599,2.4599,2.4599,3.1476,3.1228,3.1099,3.1131,3.1015,3.0883,0.0,0.0,0.0,0.0,3.0319,0.0,3.0507,0.0,3.0461,0.0,3.0626,3.0681,3.0827,3.079,0.0,3.0952,3.0978,0.0,0.0,0.0,0.0,0.0,3.186,3.1992,3.2043,3.2181,3.2102,3.1864,3.1073,3.0171,2.9174,2.7969,2.6885,0.0,0.0,2.439,0.0,0.0,2.4255,2.4062,0.0,2.3928,2.3875,2.3581,2.3487,2.3434,2.3126,2.3033,2.3006,2.2934,2.2893,2.2893,2.2893,2.2893,0.0,2.2893,2.2893,0.0,2.2893,0.0,0.0,0.0,0.0,0.0,0.0,0.0,0.0,0.0,0.0,0.0,0.0,2.2893,2.2893,2.2893,2.2893,2.2974,2.314,2.3225,2.3452,2.3861,2.4088,2.4289,2.4439,2.4546,2.4599,2.4599,2.4599,2.4599,2.4599,2.4599,2.4599,2.4599,2.4599,2.4599,2.4599,2.4599,2.4599,2.4599,2.4599,2.4599,2.4599,2.4599,2.4599,2.4599,2.4599,2.4599,2.4599,2.4599,2.4599,2.4599,3.0771,3.0538,3.0305,3.0112,2.9996,0.0,0.0,0.0,3.0251,0.0,3.0426,3.0259,3.0296,3.0644,3.1029,3.1428,3.1465,3.1616,3.2001,3.1304,0.0,0.0,3.1066,3.1188,3.1883,0.0,0.0,0.0,3.2358,3.2358,3.2358,3.2006,3.1896,3.1814,3.0883,2.9967,2.9077,2.7707,2.6655,2.5844,2.5038,2.4674,2.4599,2.4599,2.4599,2.4559,2.4329,2.4222,2.4182,2.3924,2.383,2.3777,2.3447,2.3319,2.3252,2.3014,2.292,2.292,2.2893,2.2893,2.2893,2.2893,0.0,0.0,0.0,0.0,2.2893,0.0,0.0,0.0,0.0,0.0,0.0,0.0,0.0,0.0,0.0,0.0,2.2893,2.2893,2.2893,2.2893,2.2893,2.3126,2.3278,2.3292,2.3848,2.4168,2.4209,2.4426,2.4586,2.4599,2.4599,2.4599,2.4599,2.4599,2.4599,2.4599,2.4599,2.4599,2.4599,2.4599,2.4599,2.4599,2.4599,2.4599,2.4599,2.4599,2.4599,2.4599,2.4599,2.4599,2.4599,2.4599,2.4599,2.4599,3.0177,2.996,2.98,0.0,2.9901,3.0073,0.0,0.0,0.0,0.0,3.0946,3.1194,3.1506,3.1891,3.2166,3.2276,3.2276,0.0,0.0,0.0,0.0,3.2276,3.1909,3.1777,3.1985,3.1672,0.0,3.1667,0.0,3.1667,3.1635,3.157,3.1506,3.1492,3.1005,3.006,2.8757,2.7798,2.6448,2.492,2.4709,2.4606,2.4599,0.0,2.4599,2.4586,2.4519,2.4492,2.4439,2.4195,2.4088,2.4035,2.3754,2.3661,2.3594,2.33,2.3207,2.3153,2.296,2.2893,2.2893,2.2893,2.2893,2.2893,0.0,0.0,0.0,0.0,0.0,0.0,0.0,0.0,0.0,0.0,0.0,0.0,0.0,0.0,0.0,2.2893,0.0,2.2893,2.2893,2.2974,2.3073,2.3278,2.3425,2.3741,2.4182,2.4275,2.4372,2.4586,2.4599,2.4599,2.4599,2.4599,2.4599,2.4599,2.4599,2.4599,2.4599,2.4599,2.4599,2.4599,2.4599,2.4599,2.4599,2.4599,2.4599,2.4599,2.4599,2.4599,2.4599,2.4599,2.4599,2.4599,2.9763,2.9804,2.9868,2.9868,0.0,0.0,3.039,3.0585,0.0,3.1267,3.1671,0.0,3.2239,3.2459,3.2661,3.2845,3.2698,0.0,3.2863,0.0,0.0,3.232,3.1987,3.176,3.176,3.1396,0.0,3.1179,0.0,3.1106,3.0976,3.1087,3.1087,3.0962,3.0586,2.9782,2.8612,2.7286,2.5923,2.4599,2.4599,2.4599,0.0,2.4599,2.4599,2.4599,2.4599,2.4599,2.4572,2.4412,2.4359,2.4342,2.4048,2.3955,2.3901,2.3607,2.3399,2.3252,2.3113,2.3,2.2893,2.2893,2.2893,2.2893,2.2893,2.2893,2.2893,0.0,0.0,0.0,0.0,0.0,0.0,0.0,0.0,0.0,0.0,0.0,0.0,0.0,2.2893,2.2893,2.2893,2.2893,2.2974,2.3113,2.3212,2.3439,2.3808,2.4062,2.4275,2.4399,2.4532,2.4599,2.4599,2.4599,2.4599,2.4599,2.4599,2.4599,2.4599,2.4599,2.4599,2.4599,2.4599,2.4599,2.4599,2.4599,2.4599,2.4599,2.4599,2.4599,2.4599,2.4599,2.4599,2.4599,2.9611,2.9984,0.0,0.0,0.0,0.0,0.0,3.1235,0.0,3.2038,0.0,3.268,3.268,3.2716,3.2866,3.3198,0.0,3.2817,3.3114,3.2446,3.2011,3.2011,3.1586,3.1365,3.1365,3.0978,3.0749,0.0,0.0,3.0641,3.0281,3.0588,3.0573,3.0238,2.9878,2.9258,2.8373,2.6503,2.5286,2.4599,2.4599,2.4599,2.4599,2.4599,2.4599,2.4599,2.4599,2.4599,2.4599,2.4599,2.4599,2.4559,2.4342,2.4262,2.4209,2.395,2.3647,2.3385,2.3319,2.3126,2.2947,2.2907,2.2893,2.2893,2.2893,2.2893,2.2893,2.2893,2.2893,2.2893,0.0,0.0,0.0,0.0,0.0,0.0,0.0,0.0,0.0,0.0,0.0,0.0,2.2893,2.2893,2.2893,2.2893,2.3113,2.3252,2.3292,2.3848,2.4168,2.4209,2.4452,2.4599,2.4599,2.4599,2.4599,2.4599,2.4599,2.4599,2.4599,2.4599,2.4599,2.4599,2.4599,2.4599,2.4599,2.4599,2.4599,2.4599,2.4599,2.4599,2.4599,2.4599,2.4599,2.4599,3.0075,3.0406,3.0791,0.0,0.0,3.1811,3.1791,3.1859,3.2038,3.2441,3.2863,3.3086,3.3086,3.3395,3.3495,3.3309,3.3202,0.0,0.0,0.0,0.0,3.2088,3.1115,3.058,3.058,3.0207,2.9834,0.0,0.0,3.0153,2.9513,2.9822,2.9782,2.9395,2.9377,2.8627,2.719,2.5867,0.0,2.4599,2.4599,2.4599,2.4599,2.4599,2.4599,2.4599,2.4599,2.4599,2.4599,2.4599,2.4599,2.4586,2.4532,2.4519,2.4466,2.4209,2.4088,2.3941,2.3425,2.3252,2.318,2.296,2.2893,2.2893,2.2893,2.2893,2.2893,2.2893,2.2893,2.2893,2.2893,0.0,0.0,0.0,0.0,0.0,0.0,0.0,0.0,0.0,0.0,2.2893,0.0,2.2893,2.2893,2.2893,2.2947,2.306,2.3278,2.3661,2.3955,2.4195,2.4452,2.4599,0.0,0.0,2.4599,2.4599,2.4599,2.4599,2.4599,2.4599,2.4599,2.4599,2.4599,2.4599,2.4599,2.4599,2.4599,2.4599,2.4599,2.4599,2.4599,2.4599,2.4599,2.4599,3.0827,3.1304,3.1716,0.0,0.0,0.0,0.0,3.1723,3.189,3.2306,3.2856,3.3162,3.2955,3.3291,3.333,3.2719,3.2684,3.2439,3.1876,3.1436,3.1031,3.0605,2.9908,0.0,2.9209,2.8803,2.8601,2.8631,0.0,0.0,2.8476,2.8461,2.8328,2.8098,2.7903,2.725,2.6334,0.0,0.0,2.4599,2.4599,2.4599,2.4599,2.4599,2.4599,2.4599,2.4599,2.4599,2.4599,2.4599,2.4599,2.4599,2.4599,2.4599,2.4572,2.4439,2.4329,2.4142,2.3861,2.3532,2.3252,2.314,2.3014,2.2893,2.2893,2.2893,2.2893,2.2893,2.2893,2.2893,2.2893,2.2893,0.0,0.0,0.0,0.0,0.0,0.0,0.0,0.0,0.0,0.0,0.0,0.0,0.0,2.2893,0.0,2.296,2.3073,2.3562,2.387,0.0,0.0,0.0,2.4599,0.0,2.4599,2.4599,2.4599,2.4599,2.4599,2.4599,2.4599,2.4599,2.4599,2.4599,2.4599,2.4599,2.4599,2.4599,2.4599,2.4599,2.4599,2.4599,2.4599,2.4599,3.1443,3.1935,0.0,0.0,3.1874,0.0,3.1323,3.1288,3.1461,3.1946,3.2611,3.2911,3.2526,3.2806,3.2684,3.1824,3.1648,3.1278,3.057,3.0036,2.9501,2.8855,2.8439,2.8042,2.7753,2.7446,2.7387,0.0,0.0,0.0,0.0,2.7113,2.6972,2.6813,2.6339,0.0,0.0,0.0,2.4894,2.4599,2.4599,2.4599,2.4599,2.4599,2.4599,2.4599,2.4599,2.4599,2.4599,2.4599,2.4599,2.4599,2.4599,2.4599,2.4599,2.4599,2.4439,2.4289,2.4222,2.3861,2.3452,2.3319,2.314,2.2974,2.2907,2.2893,2.2893,2.2893,2.2893,2.2893,2.2893,2.2893,0.0,0.0,0.0,0.0,0.0,0.0,0.0,0.0,0.0,0.0,2.2893,0.0,0.0,0.0,0.0,0.0,2.2893,0.0,0.0,0.0,0.0,2.4599,2.4599,0.0,2.4599,2.4599,2.4599,2.4599,2.4599,2.4599,2.4599,2.4599,2.4599,2.4599,2.4599,2.4599,2.4599,2.4599,2.4599,2.4599,2.4599,2.4599,2.4599,2.4599,0.0,0.0,0.0,0.0,0.0,0.0,3.0612,3.0501,3.0785,3.1543,3.1982,3.2088,3.1736,3.2017,3.1754,3.0657,3.025,2.9699,2.8943,2.8186,2.7753,2.7644,2.7005,2.6604,2.6568,2.6502,2.638,0.0,0.0,2.6732,0.0,2.6354,2.6308,0.0,0.0,0.0,0.0,2.4821,2.4636,2.4599,2.4599,2.4599,2.4599,2.4599,2.4599,2.4599,2.4599,2.4599,2.4599,2.4599,2.4599,2.4599,2.4599,2.4599,2.4599,2.4599,2.4586,2.4506,2.4275,2.4168,2.3995,2.3425,2.3265,2.3207,2.296,2.2893,2.2893,2.2893,2.2893,2.2893,2.2893,2.2893,2.2893,0.0,0.0,0.0,0.0,0.0,0.0,0.0,0.0,0.0,0.0,2.2893,0.0,0.0,2.2893,0.0,0.0,0.0,0.0,2.3803,2.4329,2.4599,2.4599,2.4599,2.4599,2.4599,2.4599,2.4599,2.4599,2.4599,2.4599,2.4599,2.4599,2.4599,2.4599,2.4599,2.4599,2.4599,2.4599,2.4599,2.4599,2.4599,2.4599,2.4599,0.0,0.0,0.0,0.0,0.0,0.0,0.0,2.8819,2.8676,2.8835,2.9945,3.0586,3.0247,3.0302,3.0001,2.9107,2.864,2.8099,2.7369,2.7005,2.6604,2.6129,2.585,2.5557,2.5336,2.5336,2.5377,0.0,0.0,0.0,0.0,0.0,0.0,0.0,0.0,2.4821,2.4821,2.4673,2.4599,2.4599,2.4599,2.4599,2.4599,2.4599,2.4599,2.4599,2.4599,2.4599,2.4599,2.4599,2.4599,2.4599,2.4599,2.4599,2.4599,2.4599,2.4599,2.4572,2.4452,2.4342,2.4142,2.3915,2.3581,2.3265,2.3166,2.3027,2.2893,2.2893,2.2893,2.2893,2.2893,2.2893,2.2893,0.0,0.0,0.0,0.0,0.0,0.0,0.0,0.0,0.0,0.0,2.2893,0.0,0.0,0.0,0.0,0.0,0.0,0.0,2.3803,0.0,2.4599,2.4599,2.4599,2.4599,2.4599,2.4599,2.4599,2.4599,2.4599,2.4599,2.4599,2.4599,2.4599,2.4599,2.4599,2.4599,2.4599,2.4599,2.4599,2.4599,2.4599,2.4599,2.4599,2.9363,0.0,2.9608,0.0,2.8891,2.846,2.7701,2.7354,2.7041,2.6699,2.7789,2.8619,2.8635,2.8655,2.8388,2.768,2.7245,2.675,2.6107,2.596,2.563,2.5042,2.5005,0.0,2.4599,2.4599,2.4747,2.5005,2.4801,0.0,0.0,0.0,0.0,0.0,2.4506,2.4599,2.4599,2.4599,2.4599,2.4599,2.4599,2.4599,2.4599,2.4599,2.4599,2.4599,2.4599,2.4599,2.4599,2.4599,2.4599,2.4599,2.4599,2.4599,2.4599,2.4599,2.4599,2.4599,2.4599,2.4452,2.4315,2.4222,2.3888,2.3505,2.3332,2.3153,2.3014,2.292,2.2893,2.2893,2.2893,2.2893,2.2893,2.2893,0.0,0.0,0.0,0.0,0.0,0.0,2.2893,2.2893,2.2893,2.2893,0.0,0.0,0.0,0.0,0.0,0.0,0.0,0.0,0.0,0.0,2.4599,2.4599,2.4599,2.4599,2.4599,2.4599,2.4599,2.4599,2.4599,2.4599,2.4599,2.4599,2.4599,2.4599,2.4599,2.4599,2.4599,2.4599,2.4599,2.4599,2.4599,2.4599,2.8135,2.8135,2.7991,2.7608,2.7535,2.7281,2.6531,2.6422,2.6276,2.5873,2.5836,2.6152,2.6954,2.7318,2.7223,2.6458,2.6056,2.5653,2.5226,2.4821,2.4636,0.0,0.0,2.4599,2.4599,2.4599,2.4599,2.4599,0.0,0.0,2.4599,0.0,2.4586,2.4599,2.4599,2.4599,2.4599,2.4599,2.4599,2.4599,2.4599,2.4599,2.4599,2.4599,2.4599,2.4599,2.4599,2.4599,2.4599,2.4599,2.4599,2.4599,2.4599,2.4599,2.4599,2.4599,2.4599,2.4599,2.4599,2.4599,2.4519,2.4275,2.4195,2.4035,2.3425,2.3292,2.3233,2.296,2.2893,2.2893,2.2893,2.2893,2.2893,2.2893,0.0,0.0,0.0,0.0,0.0,0.0,2.2893,2.2893,2.2893,2.2893,0.0,0.0,0.0,0.0,0.0,0.0,0.0,2.3803,2.4329,0.0,2.4599,2.4599,2.4599,2.4599,2.4599,2.4599,2.4599,2.4599,2.4599,2.4599,2.4599,2.4599,2.4599,2.4599,2.4599,2.4599,2.4599,2.4599,2.4599,2.4599,2.4599,2.4599,2.659,2.6517,2.648,2.6371,2.6093,2.585,2.563,2.5336,2.5152,2.5005,2.4991,2.5065,2.5322,2.569,2.585,0.0,2.5226,2.4931,0.0,2.4673,2.4599,2.4599,2.4599,2.4599,2.4599,2.4599,2.4599,2.4599,0.0,0.0,0.0,2.4599,2.4599,2.4599,2.4599,2.4599,2.4599,2.4599,2.4599,2.4599,2.4599,2.4599,2.4599,2.4599,2.4599,2.4599,2.4599,2.4599,2.4599,2.4599,2.4599,2.4599,2.4599,2.4599,2.4599,2.4599,2.4599,2.4599,2.4599,2.4599,2.4572,2.4479,2.4356,2.4155,2.3968,2.3621,2.3233,2.296,2.2893,2.2893,2.2893,2.2893,2.2893,2.2893,2.2893,0.0,0.0,0.0,0.0,0.0,2.2893,2.2893,2.2893,2.2893,0.0,0.0,0.0,0.0,0.0,0.0,0.0,0.0,2.4329,0.0,2.4599,2.4599,2.4599,2.4599,2.4599,2.4599,2.4599,2.4599,2.4599,2.4599,2.4599,2.4599,2.4599,2.4599,2.4599,2.4599,2.4599,2.4599,2.4599,2.4599,2.4599,2.4599,2.5396,2.5359,2.5359,2.5359,2.5152,2.4968,2.4968,2.4747,2.4599,2.4599,2.4599,2.4599,2.4599,2.4821,0.0,2.4968,2.4747,2.4599,2.4599,2.4599,2.4599,2.4599,2.4599,2.4599,2.4599,2.4599,0.0,2.4599,2.4599,2.4599,2.4599,2.4599,2.4599,2.4599,2.4599,2.4599,2.4599,2.4599,2.4599,2.4599,2.4599,2.4599,2.4599,2.4599,2.4599,2.4599,2.4599,2.4599,2.4599,2.4599,2.4599,2.4599,2.4599,2.4599,2.4599,2.4599,2.4599,2.4599,2.4599,2.4599,2.4599,2.4599,2.4466,2.4342,2.4222,2.3719,2.3238,2.3073,2.2974,2.2893,2.2893,2.2893,2.2893,2.2893,2.2893,2.2893,2.2893,0.0,0.0,0.0,0.0,0.0,0.0,2.2893,2.2893,0.0,0.0,0.0,0.0,0.0,0.0,2.359,2.4073,0.0,2.4156,2.4304,2.4377,2.4377,2.4525,2.4599,2.4599,2.4599,2.4599,2.4599,2.4599,2.4599,2.4599,2.4599,2.4599,2.4599,2.4599,2.4599,2.4599,2.4599,2.4599,2.4599,2.4599,2.4599,2.4599,0.0,2.4599,0.0,2.4599,2.4599,2.4599,2.4599,2.4599,2.4599,2.4599,2.4599,2.4599,2.4599,0.0,0.0,0.0,2.4599,2.4599,2.4599,2.4599,2.4599,2.4599,2.4599,2.4599,2.4599,2.4599,2.4599,2.4599,2.4599,2.4599,2.4599,2.4599,2.4599,2.4599,2.4599,2.4599,2.4599,2.4599,2.4599,2.4599,2.4599,2.4599,2.4599,2.4599,2.4599,2.4599,2.4599,2.4599,2.4599,2.4599,2.4599,2.4599,2.4599,2.4599,2.4599,2.4599,2.4599,2.4599,2.4599,2.4599,2.4519,2.4262,2.3781,2.3345,2.3332,2.3113,2.2934,2.2934,2.2907,2.2893,2.2893,2.2893,2.2893,2.2893,0.0,0.0,0.0,0.0,0.0,0.0,2.2893,2.2893,0.0,0.0,0.0,0.0,0.0,2.3625,2.3197,2.3708,2.3785,2.3364,2.3711,2.3896,2.3933,2.4341,2.4525,2.4562,2.4562,2.4562,2.4599,2.4599,2.4599,2.4599,2.4599,2.4599,2.4599,2.4599,2.4599,2.4599,2.4599,2.4599,2.4599,0.0,0.0,2.4599,2.4599,2.4599,2.4599,2.4599,2.4599,2.4599,2.4599,2.4599,2.4599,2.4599,2.4599,2.4599,2.4599,2.4599,2.4599,2.4599,2.4599,2.4599,2.4599,2.4599,2.4599,2.4599,2.4599,2.4599,2.4599,2.4599,2.4599,2.4599,2.4599,2.4599,2.4599,2.4599,2.4599,2.4599,2.4599,2.4599,2.4599,2.4599,2.4599,2.4599,2.4599,2.4599,2.4599,2.4599,2.4599,2.4599,2.4599,2.4599,2.4599,2.4599,2.4599,2.4599,2.4599,2.4599,2.4599,2.4599,2.4599,2.4599,2.4599,2.4599,2.4519,2.4262,2.4102,2.3928,2.3714,2.342,2.322,2.322,2.302,2.2893,2.2893,2.2893,2.2893,2.2893,2.2893,0.0,0.0,2.2893,2.2893,2.2893,2.2893,2.2893,0.0,0.0,0.0,2.3207,2.3567,2.3625,2.3197,2.3415,2.3327,2.2955,2.2732,2.2769,2.3104,2.3475,2.3846,2.4156,2.4156,2.4304,2.4599,2.4599,2.4599,2.4599,2.4599,2.4599,2.4599,2.4599,2.4599,2.4599,2.4599,2.4599,2.4599,2.4599,2.4599,2.4599,2.4599,2.4599,2.4599,2.4599,2.4599,2.4599,2.4599,2.4599,2.4599,2.4599,2.4599,2.4599,2.4599,2.4599,2.4599,2.4599,2.4599,2.4599,2.4599,2.4599,2.4599,2.4599,2.4599,2.4599,2.4599,2.4599,2.4599,2.4599,2.4599,2.4599,2.4599,2.4599,2.4599,2.4599,2.4599,2.4599,2.4599,2.4599,2.4599,2.4599,2.4599,2.4599,2.4599,2.4599,2.4599,2.4599,2.4599,2.4599,2.4599,2.4599,2.4599,2.4599,2.4599,2.4599,2.4599,2.4599,2.4599,2.4599,2.4599,2.4599,2.4559,2.4436,2.4302,2.4155,2.3995,2.3634,2.3292,2.3292,2.3073,2.2893,2.2893,2.2893,2.2893,2.2893,2.2893,0.0,2.2893,2.2893,2.2893,2.2893,2.2893,2.2893,2.2893,2.2893,0.0,2.3278,2.3607,2.3692,2.3379,2.3406,2.3104,2.2508,2.1948,2.1749,2.1973,2.2384,2.2682,2.2905,2.329,2.3661,2.4081,2.4267,2.4414,2.4599,2.4599,2.4599,2.4599,2.4599,2.4599,2.4599,2.4599,2.4599,2.4599,2.4599,2.4599,2.4599,2.4599,2.4599,2.4599,2.4599,2.4599,2.4599,2.4599,2.4599,2.4599,2.4599,2.4599,2.4599,2.4599,2.4599,2.4599,2.4599,2.4599,2.4599,2.4599,2.4599,2.4599,2.4599,2.4599,2.4599,2.4599,2.4599,2.4599,2.4599,2.4599,2.4599,2.4599,2.4599,2.4599,2.4599,2.4599,2.4599,2.4599,2.4599,2.4599,2.4599,2.4599,2.4599,2.4599,2.4599,2.4599,2.4599,2.4599,2.4599,2.4599,2.4599,2.4599,2.4599,2.4599,2.4599,2.4599,2.4599,2.4599,2.4599,2.4599,2.4599,2.4599,2.4599,2.4412,2.4262,2.4262,2.3834,2.3412,2.3372,2.314,2.2947,2.2907,2.2893,2.2893,2.2893,0.0,2.2893,2.2893,2.2893,2.2893,2.2893,2.2893,2.2893,2.2893,2.2934,2.3073,2.3345,2.3674,2.3824,2.3739,2.3508,2.2918,2.1948,2.1262,2.0812,2.065,2.1101,2.1325,2.1363,2.216,2.2769,2.3253,2.3698,2.4156,2.4525,2.4562,2.4599,2.4599,2.4599,2.4599,2.4599,2.4599,2.4599,2.4599,2.4599,2.4599,2.4599,2.4599,2.4599,2.4599,2.4599,2.4599,2.4599,2.4599,2.4599,2.4599,2.4599,2.4599,2.4599,2.4599,2.4599,2.4599,2.4599,2.4599,2.4599,2.4599,2.4599,2.4599,2.4599,2.4599,2.4599,2.4599,2.4599,2.4599,2.4599,2.4599,2.4599,2.4599,2.4599,2.4599,2.4599,2.4599,2.4599,2.4599,2.4599,2.4599,2.4599,2.4599,2.4599,2.4599,2.4599,2.4599,2.4599,2.4599,2.4599,2.4599,2.4599,2.4599,2.4599,2.4599,2.4599,2.4599,2.4599,2.4599,2.4599,2.4599,2.4599,2.4599,2.4599,2.4559,2.4532,2.4532,2.4266,2.3995,2.3741,2.346,2.3166,2.2934,2.2893,2.2893,2.2893,0.0,2.2893,2.2893,2.2893,2.2893,2.2893,2.2893,2.2893,2.2893,2.31,2.338,2.3723,2.3981,2.4226,2.4445,2.3759,2.2508,2.0699,2.0549,1.9984,1.9002,1.972,2.0097,2.0113,2.0913,2.1674,2.2409,2.3178,2.3698,2.4119,2.4451,2.4599,2.4599,2.4599,2.4599,2.4599,2.4599,2.4599,2.4599,2.4599,2.4599,2.4599,2.4599,2.4599,2.4599,2.4599,2.4599,2.4599,2.4599,2.4599,2.4599,2.4599,2.4599,2.4599,2.4599,2.4599,2.4599,2.4599,2.4599,2.4599,2.4599,2.4599,2.4599,2.4599,2.4599,2.4599,2.4599,2.4599,2.4599,2.4599,2.4599,2.4599,2.4599,2.4599,2.4599,2.4599,2.4599,2.4599,2.4599,2.4599,2.4599,2.4599,2.4599,2.4599,2.4599,2.4599,2.4599,2.4599,2.4599,2.4599,2.4599,2.4599,2.4599,2.4599,2.4599,2.4599,2.4599,2.4599,2.4599,2.4599,2.4599,2.4599,2.4599,2.4599,2.4599,2.4599,2.4599,2.4409,2.4168,2.4022,2.3634,2.3252,2.314,2.3,0.0,0.0,2.2893,2.2893,2.2893,2.2893,2.2893,2.2893,2.2893,2.296,2.31,2.3247,2.3527,2.3981,2.4128,2.4342,2.4586,2.3822,2.2657,2.1063,2.0398,1.9569,1.8585,1.8557,1.8519,1.8547,1.9342,2.0161,2.0939,2.1999,2.2905,2.3711,2.4119,2.4414,2.4599,2.4599,2.4599,2.4599,2.4599,2.4599,2.4599,2.4599,2.4599,2.4599,2.4599,2.4599,2.4599,2.4599,2.4599,2.4599,2.4599,2.4599,2.4599,2.4599,2.4599,2.4599,2.4599,2.4599,2.4599,2.4599,2.4599,2.4599,2.4599,2.4599,2.4599,2.4599,2.4599,2.4599,2.4599,2.4599,2.4599,2.4599,2.4599,2.4599,2.4599,2.4599,2.4599,2.4599,2.4599,2.4599,2.4599,2.4599,2.4599,2.4599,2.4599,2.4599,2.4599,2.4599,2.4599,2.4599,2.4599,2.4599,2.4599,2.4599,2.4599,2.4599,2.4599,2.4599,2.4599,2.4599,2.4599,2.4599,2.4599,2.4599,2.4599,2.4599,2.4599,2.4599,2.4599,2.4426,2.4289,2.4209,2.3834,2.3452,2.3319,0.0,0.0,0.0,2.2893,2.2893,2.2893,2.2893,2.292,2.3,2.3,2.31,2.3407,2.3452,2.3692,2.4182,2.4262,2.4409,2.4586,2.3933,2.2992,2.1887,2.0774,1.972,1.8736,1.8025,1.7578,1.7426,1.8139,1.885,1.9585,2.08,2.1936,2.303,2.3624,2.4119,2.4488,2.4562,2.4599,2.4599,2.4599,2.4599,2.4599,2.4599,2.4599,2.4599,2.4599,2.4599,2.4599,2.4599,2.4599,2.4599,2.4599,2.4599,2.4599,2.4599,2.4599,2.4599,2.4599,2.4599,2.4599,2.4599,2.4599,2.4599,2.4599,2.4599,2.4599,2.4599,2.4599,2.4599,2.4599,2.4599,2.4599,2.4599,2.4599,2.4599,2.4599,2.4599,2.4599,2.4599,2.4599,2.4599,2.4599,2.4599,2.4599,2.4599,2.4599,2.4599,2.4599,2.4599,2.4599,2.4599,2.4599,2.4599,2.4599,2.4599,2.4599,2.4599,2.4599,2.4599,2.4599,2.4599,2.4599,2.4599,2.4599,2.4599,2.4599,2.4599,2.4599,2.4599,2.4599,2.4586,2.4479,2.4249,2.4168,2.3968,2.3385,0.0,0.0,2.2934,2.2893,2.2893,2.2893,2.2893,2.3014,2.326,2.3252,2.342,2.375,2.3981,2.4155,2.4195,2.4426,2.4572,2.4599,2.4193,2.355,2.2707,2.1887,2.0688,1.9143,1.8736,1.8139,1.7426,1.7835,1.8281,1.8774,1.9946,2.0962,2.1812,2.2955,2.3674,2.4081,2.4451,2.4599,2.4599,2.4599,2.4599,2.4599,2.4599,2.4599,2.4599,2.4599,2.4599,2.4599,2.4599,2.4599,2.4599,2.4599,2.4599,2.4599,2.4599,2.4599,2.4599,2.4599,2.4599,2.4599,2.4599,2.4599,2.4599,2.4599,2.4599,2.4599,2.4599,2.4599,2.4599,2.4599,2.4599,2.4599,2.4599,2.4599,2.4599,2.4599,2.4599,2.4599,2.4599,2.4599,2.4599,2.4599,2.4599,2.4599,2.4599,2.4599,2.4599,2.4599,2.4599,2.4599,2.4599,2.4599,2.4599,2.4599,2.4599,2.4599,2.4599,2.4599,2.4599,2.4599,2.4599,2.4599,2.4599,2.4599,2.4599,2.4599,2.4599,2.4599,2.4599,2.4599,2.4599,2.4572,2.4452,2.4329,2.4128,2.3915,0.0,2.3252,2.3166,2.2979,2.2893,2.2893,2.3033,2.3193,2.3278,2.3487,2.3728,2.4022,2.4142,2.4289,2.4426,2.4532,2.4599,2.4599,2.4451,2.4105,2.3537,2.2744,2.1812,2.0688,1.9784,1.8916,1.8139,1.8281,1.8319,1.8281,1.9239,2.0097,2.0924,2.1899,2.2794,2.3661,2.4081,2.4377,2.4599,2.4599,2.4599,2.4599,2.4599,2.4599,2.4599,2.4599,2.4599,2.4599,2.4599,2.4599,2.4599,2.4599,2.4599,2.4599,2.4599,2.4599,2.4599,2.4599,2.4599,2.4599,2.4599,2.4599,2.4599,2.4599,2.4599,2.4599,2.4599,2.4599,2.4599,2.4599,2.4599,2.4599,2.4599,2.4599,2.4599,2.4599,2.4599,2.4599,2.4599,2.4599,2.4599,2.4599,2.4599,2.4599,2.4599,2.4599,2.4599,2.4599,2.4599,2.4599,2.4599,2.4599,2.4599,2.4599,2.4599,2.4599,2.4599,2.4599,2.4599,2.4599,2.4599,2.4599,2.4599,2.4599,2.4599,2.4599,2.4599,2.4599,2.4599,2.4599,2.4599,2.4599,2.4599,2.4439,2.4302,2.4222,2.3861,2.3532,2.3474,2.3322,2.3188,2.3188,2.334,2.35,2.3559,2.3781,2.4022,2.4315,2.4342,2.4422,2.4586,2.4599,2.4599,2.4599,2.4599,2.4488,2.4193,2.35,2.2831,2.216,2.1063,2.0199,1.952,1.9294,1.9002,1.8774,1.9201,1.9768,2.0436,2.1138,2.2048,2.3067,2.3488,2.397,2.4414,2.4414,2.4488,2.4599,2.4599,2.4599,2.4599,2.4599,2.4599,2.4599,2.4599,2.4599,2.4599,2.4599,2.4599,2.4599,2.4599,2.4599,2.4599,2.4599,2.4599,2.4599,2.4599,2.4599,2.4599,2.4599,2.4599,2.4599,2.4599,2.4599,2.4599,2.4599,2.4599,2.4599,2.4599,2.4599,2.4599,2.4599,2.4599,2.4599,2.4599,2.4599,2.4599,2.4599,2.4599,2.4599,2.4599,2.4599,2.4599,2.4599,2.4599,2.4599,2.4599,2.4599,2.4599,2.4599,2.4599,2.4599,2.4599,2.4599,2.4599,2.4599,2.4599,2.4599,2.4599,2.4599,2.4599,2.4599,2.4599,2.4599,2.4599,2.4599,2.4599,2.4599,2.4599,2.4599,2.4506,2.4249,2.4209,2.4102,2.3843,2.3803,2.3803,2.3803,2.3803,2.3924,2.4168,2.4209,2.4329,2.4572,2.4599,2.4599,2.4599,2.4599,2.4599,2.4599,2.4599,2.4599,2.4599,2.4193,2.3822,2.3401,2.2608,2.1999,2.1588,2.0774,2.0436,2.0398,1.9984,2.0021,2.0436,2.0849,2.1487,2.2209,2.262,2.329,2.4007,2.4007,2.4267,2.4599,2.4599,2.4599,2.4599,2.4599,2.4599,2.4599,2.4599,2.4599,2.4599,2.4599,2.4599,2.4599,2.4599,2.4599,2.4599,2.4599,2.4599,2.4599,2.4599,2.4599,2.4599,2.4599,2.4599,2.4599,2.4599,2.4599,2.4599,2.4599,2.4599,2.4599,2.4599,2.4599,2.4599,2.4599,2.4599,2.4599,2.4599,2.4599,2.4599,2.4599,2.4599,2.4599,2.4599,2.4599,2.4599,2.4599,2.4599,2.4599,2.4599,2.4599,2.4599,2.4599,2.4599,2.4599,2.4599,2.4599,2.4599,2.4599,2.4599,2.4599,2.4599,2.4599,2.4599,2.4599,2.4599,2.4599,2.4599,2.4599,2.4599,2.4599,2.4599,2.4599,2.4572,2.4479,2.4342,2.4168,2.4088,2.3937,2.3803,2.3803,2.3991,2.4115,2.4195,2.4382,2.4506,2.4586,2.4599,2.4599,2.4599,2.4599,2.4599,2.4599,2.4599,2.4599,2.4599,2.4488,2.423,2.3822,2.3587,2.3104,2.2433,2.2209,2.1786,2.1251,2.1101,2.0962,2.0849,2.0962,2.13,2.181,2.1922,2.2433,2.3178,2.3488,2.3822,2.423,2.4599,2.4599,2.4599,2.4599,2.4599,2.4599,2.4599,2.4599,2.4599,2.4599,2.4599,2.4599,2.4599,2.4599,2.4599,2.4599,2.4599,2.4599,2.4599,2.4599,2.4599,2.4599,2.4599,2.4599,2.4599,2.4599,2.4599,2.4599,2.4599,2.4599,2.4599,2.4599,2.4599,2.4599,2.4599,2.4599,2.4599,2.4599,2.4599,2.4599,2.4599,2.4599,2.4599,2.4599,2.4599,2.4599,2.4599,2.4599,2.4599,2.4599,2.4599,2.4599,2.4599,2.4599,2.4599,2.4599,2.4599,2.4599,2.4599,2.4599,2.4599,2.4599,2.4599,2.4599,2.4599,2.4599,2.4599,2.4599,2.4599,2.4599,2.4599,2.4599,2.4599,2.4599,2.4452,2.4369,2.4369,2.4222,2.4115,2.4115,2.4262,2.4369,2.4369,2.4492,2.4599,2.4599,2.4599,2.4599,2.4599,2.4599,2.4599,2.4599,2.4599,2.4599,2.4599,2.4599,2.4488,2.423,2.423,2.397,2.3513,2.3327,2.303,2.2533,2.2197,2.1936,2.1674,2.1375,2.1386,2.1585,2.1236,2.1611,2.2359,2.2769,2.329,2.3846,2.4599,2.4599,2.4599,2.4599,2.4599,2.4599,2.4599,2.4599,2.4599,2.4599,2.4599,2.4599,2.4599,2.4599,2.4599,2.4599,2.4599,2.4599,2.4599,2.4599,2.4599,2.4599,2.4599,2.4599,2.4599,2.4599,2.4599,2.4599,2.4599,2.4599,2.4599,2.4599,2.4599,2.4599,2.4599,2.4599,2.4599,2.4599,2.4599,2.4599,2.4599,2.4599,2.4599,2.4599,2.4599,2.4599,2.4599,2.4599,2.4599,2.4599,2.4599,2.4599,2.4599,2.4599,2.4599,2.4599,2.4599,2.4599,2.4599,2.4599,2.4599,2.4599,2.4599,2.4599,2.4599,2.4599,2.4599,2.4599,2.4599,2.4599,2.4599,2.4562,2.4525,2.4488,2.4451,2.4451,2.4451,2.4451,2.4488,2.4525,2.4562,2.4562,2.4599,2.4599,2.4599,2.4599,2.4599,2.4599,2.4599,2.4599,2.4599,2.4599,2.4599,2.4599,2.4599,2.4599,2.4599,2.4599,2.4599,2.4599,2.4599,2.423,2.4044,2.4007,2.329,2.2955,2.2843,2.206,2.1698,2.1499,2.0699,2.0861,2.1536,2.1936,2.2608,2.3488,2.4599,2.4599,2.4599,2.4599,2.4599,2.4599,2.4599,2.4599,2.4599,2.4599,2.4599,2.4599,2.4599,2.4599,2.4599,2.4599,2.4599,2.4599,2.4599,2.4599,2.4599,2.4599,2.4599,2.4599,2.4599,2.4599,2.4599,2.4599,2.4599,2.4599,2.4599,2.4599,2.4599,2.4599,2.4599,2.4599,2.4599,2.4599,2.4599,2.4599,2.4599,2.4599,2.4599,2.4599,2.4599,2.4599,2.4599,2.4599,2.4599,2.4599,2.4599,2.4599,2.4599,2.4599,2.4599,2.4599,2.4599,2.4599,2.4599,2.4599,2.4599,2.4599,2.4599,2.4599,2.4599,2.4599,2.4599,2.4599,2.4599,2.4599,2.4599,2.4341,2.4044,2.3711,2.3401,2.3178,2.3178,2.3178,2.3401,2.4081,2.4119,2.4267,2.4562,2.4599,2.4599,2.4599,2.4599,2.4599,2.4599,2.4599,2.4599,2.4599,2.4599,2.4599,2.4599,2.4599,2.4599,2.4599,2.4599,2.4599,2.4599,2.4525,2.4488,2.4451,2.4304,2.4044,2.3711,2.3215,2.2433,2.1499,2.0699,2.0549,2.0785,2.115,2.1973,2.3104,2.4599,2.4599,2.4599,2.4599,2.4599,2.4599,2.4599,2.4599,2.4599,2.4599,2.4599,2.4599,2.4599,2.4599,2.4599,2.4599,2.4599,2.4599,2.4599,2.4599,2.4599,2.4599,2.4599,2.4599,2.4599,2.4599,2.4599,2.4599,2.4599,2.4599,2.4599,2.4599,2.4599,2.4599,2.4599,2.4599,2.4599,2.4599,2.4599,2.4599,2.4599,2.4599,2.4599,2.4599,2.4599,2.4599,2.4599,2.4599,2.4599,2.4599,2.4599,2.4599,2.4599,2.4599,2.4599,2.4599,2.4599,2.4599,2.4599,2.4599,2.4599,2.4599,2.4599,2.4599,2.4599,2.4599,2.4562,2.4341,2.4304,2.4193,2.3809,2.355,2.3215,2.2645,2.2347,2.216,2.1973,2.2123,2.2459,2.3054,2.3327,2.3661,2.4267,2.4488,2.4599,2.4599,2.4599,2.4599,2.4599,2.4599,2.4599,2.4599,2.4599,2.4599,2.4599,2.4599,2.4599,2.4599,2.4599,2.4599,2.4599,2.4599,2.4599,2.4599,2.4599,2.4488,2.4267,2.3859,2.3104,2.206,2.1075,2.0624,2.056,2.0887,2.2011,2.3475,2.4599,2.4599,2.4599,2.4599,2.4599,2.4599,2.4599,2.4599,2.4599,2.4599,2.4599,2.4599,2.4599,2.4599,2.4599,2.4599,2.4599,2.4599,2.4599,2.4599,2.4599,2.4599,2.4599,2.4599,2.4599,2.4599,2.4599,2.4599,2.4599,2.4599,2.4599,2.4599,2.4599,2.4599,2.4599,2.4599,2.4599,2.4599,2.4599,2.4599,2.4599,2.4599,2.4599,2.4599,2.4599,2.4599,2.4599,2.4562,2.4488,2.4414,2.4377,2.4377,2.4377,2.4451,2.4488,2.4488,2.4562,2.4599,2.4599,2.4599,2.4599,2.4599,2.4599,2.4599,2.4599,2.4562,2.4377,2.397,2.3772,2.3475,2.2732,2.2471,2.2135,2.1325,2.1138,2.0988,2.065,2.0876,2.1325,2.1924,2.2533,2.3178,2.3933,2.4377,2.4599,2.4599,2.4599,2.4599,2.4599,2.4599,2.4599,2.4599,2.4599,2.4599,2.4599,2.4599,2.4599,2.4599,2.4599,2.4599,2.4599,2.4599,2.4599,2.4599,2.4599,2.4599,2.4562,2.423,2.3624,2.2769,2.1637,2.0999,2.0748,2.115,2.2421,2.397,2.4599,2.4599,2.4599,2.4599,2.4599,2.4599,2.4599,2.4599,2.4599,2.4599,2.4599,2.4599,2.4599,2.4599,2.4599,2.4599,2.4599,2.4599,2.4599,2.4599,2.4599,2.4599,2.4599,2.4599,2.4599,2.4599,2.4599,2.4599,2.4599,2.4599,2.4599,2.4599,2.4599,2.4599,2.4599,2.4599,2.4599,2.4599,2.4599,2.4599,2.4599,2.4599,2.4599,2.4599,2.4599,2.4599,2.4599,2.4377,2.4044,2.3674,2.3562,2.3562,2.3562,2.3822,2.4081,2.4081,2.4341,2.4599,2.4599,2.4599,2.4599,2.4599,2.4599,2.4599,2.4599,2.4341,2.397,2.3562,2.2943,2.2297,2.1849,2.1187,2.0473,1.9671,1.9218,1.8991,1.8926,1.8964,1.952,2.0988,2.2421,2.3488,2.397,2.4377,2.4599,2.4599,2.4599,2.4599,2.4599,2.4599,2.4599,2.4599,2.4599,2.4599,2.4599,2.4599,2.4599,2.4599,2.4599,2.4599,2.4599,2.4599,2.4599,2.4599,2.4599,2.4599,2.4599,2.4525,2.4044,2.3215,2.2384,2.1786,2.1536,2.2284,2.2955,2.36,2.4599,2.4599,2.4599,2.4599,2.4599,2.4599,2.4599,2.4599,2.4599,2.4599,2.4599,2.4599,2.4599,2.4599,2.4599,2.4599,2.4599,2.4599,2.4599,2.4599,2.4599,2.4599,2.4599,2.4599,2.4599,2.4599,2.4599,2.4599,2.4599,2.4599,2.4599,2.4599,2.4599,2.4599,2.4599,2.4488,2.4267,2.4267,2.4156,2.3933,2.3933,2.3933,2.3933,2.3933,2.3933,2.3896,2.3674,2.3327,2.2955,2.2769,2.2732,2.2769,2.2992,2.3327,2.3711,2.3933,2.4267,2.4599,2.4599,2.4599,2.4599,2.4599,2.4599,2.4525,2.4341,2.3624,2.2943,2.2757,2.1899,2.0913,2.0086,1.9455,1.8812,1.7978,1.7711,1.7531,1.7302,1.7455,1.8281,2.0097,2.1749,2.298,2.3587,2.423,2.4599,2.4599,2.4599,2.4599,2.4599,2.4599,2.4599,2.4599,2.4599,2.4599,2.4599,2.4599,2.4599,2.4599,2.4599,2.4599,2.4599,2.4599,2.4599,2.4599,2.4599,2.4599,2.4599,2.4599,2.4267,2.3661,2.3104,2.262,2.2321,2.2918,2.3401,2.3822]},{"header":{"parameterUnit":"m.s-1","parameterCategory":1,"la1":30.6,"la2":28.766,"lo1":-90.7593,"lo2":-88.6598,"dy":0.0162,"dx":0.0183,"nx":116,"ny":114,"refTime":"2023-09-26T00:00:00:Z","depth":0,"parameterNumber":3,"parameterNumberName":"V-component_of_WINDS"},"data":[0.0,0.0,0.0,0.0,0.0,0.0,0.0,0.0,0.0,0.0,0.0,0.0,0.0,0.0,0.0,0.0,0.0,0.0,0.0,0.0,0.0,0.0,0.0,0.0,0.0,0.0,0.0,0.0,0.0,0.0,0.0,0.0,0.0,0.0,0.0,0.0,0.0,0.0,0.0,0.0,0.0,0.0,0.0,0.0,0.0,0.0,0.0,0.0,0.0,0.0,0.0,0.0,0.0,0.0,0.0,0.0,0.0,0.0,0.0,0.0,0.0,0.0,0.0,0.0,0.0,0.0,0.0,0.0,0.0,0.0,0.0,0.0,0.0,0.0,0.0,0.0,0.0,0.0,0.0,0.0,0.0,0.0,0.0,0.0,0.0,0.0,0.0,0.0,0.0,0.0,0.0,0.0,0.0,0.0,0.0,0.0,0.0,0.0,0.0,0.0,0.0,0.0,0.0,0.0,0.0,0.0,0.0,0.0,0.0,0.0,0.0,0.0,0.0,0.0,0.0,0.0,0.0,0.0,0.0,0.0,0.0,0.0,0.0,0.0,0.0,0.0,0.0,0.0,0.0,0.0,0.0,0.0,0.0,0.0,0.0,0.0,0.0,0.0,0.0,0.0,0.0,0.0,0.0,0.0,0.0,0.0,0.0,0.0,0.0,0.0,0.0,0.0,0.0,0.0,0.0,0.0,0.0,0.0,0.0,0.0,0.0,0.0,0.0,0.0,0.0,0.0,0.0,0.0,0.0,0.0,0.0,0.0,0.0,0.0,0.0,0.0,0.0,0.0,0.0,0.0,0.0,0.0,0.0,0.0,0.0,0.0,0.0,0.0,0.0,0.0,0.0,0.0,0.0,0.0,0.0,0.0,0.0,0.0,0.0,0.0,0.0,0.0,0.0,0.0,0.0,0.0,0.0,0.0,0.0,0.0,0.0,0.0,0.0,0.0,0.0,0.0,0.0,0.0,0.0,0.0,0.0,0.0,0.0,0.0,0.0,0.0,0.0,0.0,0.0,0.0,0.0,0.0,0.0,0.0,0.0,0.0,0.0,0.0,0.0,0.0,0.0,0.0,0.0,0.0,0.0,0.0,0.0,0.0,0.0,0.0,0.0,0.0,0.0,0.0,0.0,0.0,0.0,0.0,0.0,0.0,0.0,0.0,0.0,0.0,0.0,0.0,0.0,0.0,0.0,0.0,0.0,0.0,0.0,0.0,0.0,0.0,0.0,0.0,0.0,0.0,0.0,0.0,0.0,0.0,0.0,0.0,0.0,0.0,0.0,0.0,0.0,0.0,0.0,0.0,0.0,0.0,0.0,0.0,0.0,0.0,0.0,0.0,0.0,0.0,0.0,0.0,0.0,0.0,0.0,0.0,0.0,0.0,0.0,0.0,0.0,0.0,0.0,0.0,0.0,0.0,0.0,0.0,0.0,0.0,0.0,0.0,0.0,0.0,0.0,0.0,0.0,0.0,0.0,0.0,0.0,0.0,0.0,0.0,0.0,0.0,0.0,0.0,0.0,0.0,0.0,0.0,0.0,0.0,0.0,0.0,0.0,0.0,0.0,0.0,0.0,0.0,0.0,0.0,0.0,0.0,0.0,0.0,0.0,0.0,0.0,0.0,0.0,0.0,0.0,0.0,0.0,0.0,0.0,0.0,0.0,0.0,0.0,0.0,0.0,0.0,0.0,0.0,0.0,0.0,0.0,0.0,0.0,0.0,0.0,0.0,0.0,0.0,0.0,0.0,0.0,0.0,0.0,0.0,0.0,0.0,0.0,0.0,0.0,0.0,0.0,0.0,0.0,0.0,0.0,0.0,0.0,0.0,0.0,0.0,0.0,0.0,0.0,0.0,0.0,0.0,0.0,0.0,0.0,0.0,0.0,0.0,0.0,0.0,0.0,0.0,0.0,0.0,0.0,0.0,0.0,0.0,0.0,0.0,0.0,0.0,0.0,0.0,0.0,0.0,0.0,0.0,0.0,0.0,0.0,0.0,0.0,0.0,0.0,0.0,0.0,0.0,0.0,0.0,0.0,0.0,0.0,0.0,0.0,0.0,0.0,0.0,0.0,0.0,0.0,0.0,0.0,0.0,0.0,0.0,0.0,0.0,0.0,0.0,0.0,0.0,0.0,0.0,0.0,0.0,0.0,0.0,0.0,0.0,0.0,0.0,0.0,0.0,0.0,0.0,0.0,0.0,0.0,0.0,0.0,0.0,0.0,0.0,0.0,0.0,0.0,0.0,0.0,0.0,0.0,0.0,0.0,0.0,0.0,0.0,0.0,0.0,0.0,0.0,0.0,0.0,0.0,0.0,0.0,0.0,0.0,0.0,0.0,0.0,0.0,0.0,0.0,0.0,0.0,0.0,0.0,0.0,0.0,0.0,0.0,0.0,0.0,0.0,0.0,0.0,0.0,0.0,0.0,0.0,0.0,0.0,0.0,0.0,0.0,0.0,0.0,0.0,0.0,0.0,0.0,0.0,0.0,0.0,0.0,0.0,0.0,0.0,0.0,0.0,0.0,0.0,0.0,0.0,0.0,0.0,0.0,0.0,0.0,0.0,0.0,0.0,0.0,0.0,0.0,0.0,0.0,0.0,0.0,0.0,0.0,0.0,0.0,0.0,0.0,0.0,0.0,0.0,0.0,0.0,0.0,0.0,0.0,0.0,0.0,0.0,0.0,0.0,0.0,0.0,0.0,0.0,0.0,0.0,0.0,0.0,0.0,0.0,0.0,0.0,0.0,0.0,0.0,0.0,0.0,0.0,0.0,0.0,0.0,0.0,0.0,0.0,0.0,0.0,0.0,0.0,0.0,0.0,0.0,0.0,0.0,0.0,0.0,0.0,0.0,0.0,0.0,0.0,0.0,0.0,0.0,0.0,0.0,0.0,0.0,0.0,0.0,0.0,0.0,0.0,0.0,0.0,0.0,0.0,0.0,0.0,0.0,0.0,0.0,0.0,0.0,0.0,0.0,0.0,0.0,0.0,0.0,0.0,0.0,0.0,0.0,0.0,0.0,0.0,0.0,0.0,0.0,0.0,0.0,0.0,0.0,0.0,0.0,0.0,0.0,0.0,0.0,0.0,0.0,0.0,0.0,0.0,0.0,0.0,0.0,0.0,0.0,0.0,0.0,0.0,0.0,0.0,0.0,0.0,0.0,0.0,0.0,0.0,0.0,0.0,0.0,0.0,0.0,0.0,0.0,0.0,0.0,0.0,0.0,0.0,0.0,0.0,0.0,0.0,0.0,0.0,0.0,0.0,0.0,0.0,0.0,0.0,0.0,0.0,0.0,0.0,0.0,0.0,0.0,0.0,0.0,0.0,0.0,0.0,0.0,0.0,0.0,0.0,0.0,0.0,0.0,0.0,0.0,0.0,0.0,0.0,0.0,0.0,0.0,0.0,0.0,0.0,0.0,0.0,0.0,0.0,0.0,0.0,0.0,0.0,0.0,0.0,0.0,0.0,0.0,0.0,0.0,0.0,0.0,0.0,0.0,0.0,0.0,0.0,0.0,0.0,0.0,0.0,0.0,0.0,0.0,0.0,0.0,0.0,0.0,0.0,0.0,0.0,0.0,0.0,0.0,0.0,0.0,0.0,0.0,0.0,0.0,0.0,0.0,0.0,0.0,0.0,0.0,0.0,0.0,0.0,0.0,0.0,0.0,0.0,0.0,0.0,0.0,0.0,0.0,0.0,0.0,0.0,0.0,0.0,0.0,0.0,0.0,0.0,0.0,0.0,0.0,0.0,0.0,0.0,0.0,0.0,0.0,0.0,0.0,0.0,0.0,0.0,0.0,0.0,0.0,0.0,0.0,0.0,0.0,0.0,0.0,0.0,0.0,0.0,0.0,0.0,0.0,0.0,0.0,0.0,0.0,0.0,0.0,0.0,0.0,0.0,0.0,0.0,0.0,0.0,0.0,0.0,0.0,0.0,0.0,0.0,0.0,0.0,0.0,0.0,0.0,0.0,0.0,0.0,0.0,0.0,0.0,0.0,0.0,0.0,0.0,0.0,0.0,0.0,0.0,0.0,0.0,0.0,0.0,0.0,0.0,0.0,0.0,0.0,0.0,0.0,0.0,0.0,0.0,0.0,0.0,0.0,0.0,0.0,0.0,0.0,0.0,0.0,0.0,0.0,0.0,0.0,0.0,0.0,0.0,0.0,0.0,0.0,0.0,0.0,0.0,0.0,0.0,0.0,0.0,0.0,0.0,0.0,0.0,0.0,0.0,0.0,0.0,0.0,0.0,0.0,0.0,0.0,0.0,0.0,0.0,0.0,0.0,0.0,0.0,0.0,0.0,0.0,0.0,0.0,0.0,0.0,0.0,0.0,0.0,0.0,0.0,0.0,0.0,0.0,0.0,0.0,0.0,0.0,0.0,0.0,0.0,0.0,0.0,0.0,0.0,0.0,0.0,0.0,0.0,0.0,0.0,0.0,0.0,0.0,0.0,0.0,0.0,0.0,0.0,0.0,0.0,0.0,0.0,0.0,0.0,0.0,0.0,0.0,0.0,0.0,0.0,0.0,0.0,0.0,0.0,0.0,0.0,0.0,0.0,0.0,0.0,0.0,0.0,0.0,0.0,0.0,0.0,0.0,0.0,0.0,0.0,0.0,0.0,0.0,0.0,0.0,0.0,0.0,0.0,0.0,0.0,0.0,0.0,0.0,0.0,0.0,0.0,0.0,0.0,0.0,0.0,0.0,0.0,0.0,0.0,0.0,0.0,0.0,0.0,0.0,0.0,0.0,0.0,0.0,0.0,0.0,0.0,0.0,0.0,0.0,0.0,0.0,0.0,0.0,0.0,0.0,0.0,0.0,0.0,0.0,0.0,0.0,0.0,0.0,0.0,0.0,0.0,0.0,0.0,0.0,0.0,0.0,0.0,0.0,0.0,0.0,0.0,0.0,0.0,0.0,0.0,0.0,0.0,0.0,0.0,0.0,0.0,0.0,0.0,0.0,0.0,0.0,0.0,0.0,0.0,0.0,0.0,0.0,0.0,0.0,0.0,0.0,0.0,0.0,0.0,0.0,0.0,0.0,0.0,0.0,0.0,0.0,0.0,0.0,0.0,0.0,0.0,0.0,0.0,0.0,0.0,0.0,0.0,0.0,0.0,0.0,0.0,0.0,0.0,0.0,0.0,0.0,0.0,0.0,0.0,0.0,0.0,0.0,0.0,0.0,0.0,0.0,0.0,0.0,0.0,0.0,0.0,0.0,0.0,0.0,0.0,0.0,0.0,0.0,0.0,0.0,0.0,0.0,0.0,0.0,0.0,0.0,0.0,0.0,0.0,0.0,0.0,0.0,0.0,0.0,0.0,0.0,0.0,0.0,0.0,0.0,0.0,0.0,0.0,0.0,0.0,0.0,0.0,0.0,0.0,0.0,0.0,0.0,0.0,0.0,0.0,0.0,0.0,0.0,0.0,0.0,0.0,0.0,0.0,0.0,0.0,0.0,0.0,0.0,0.0,0.0,0.0,0.0,0.0,0.0,0.0,0.0,0.0,0.0,0.0,0.0,0.0,0.0,0.0,0.0,0.0,0.0,0.0,0.0,0.0,0.0,0.0,0.0,0.0,0.0,0.0,0.0,0.0,0.0,0.0,0.0,0.0,0.0,0.0,0.0,0.0,0.0,0.0,0.0,0.0,0.0,0.0,0.0,0.0,0.0,0.0,0.0,0.0,0.0,0.0,0.0,0.0,0.0,0.0,0.0,0.0,0.0,0.0,0.0,0.0,0.0,0.0,0.0,0.0,0.0,0.0,0.0,0.0,0.0,0.0,0.0,0.0,0.0,0.0,0.0,0.0,0.0,0.0,0.0,0.0,0.0,0.0,0.0,0.0,0.0,0.0,0.0,0.0,0.0,0.0,0.0,0.0,0.0,0.0,0.0,0.0,0.0,0.0,0.0,0.0,0.0,0.0,0.0,0.0,0.0,0.0,0.0,0.0,0.0,0.0,0.0,0.0,0.0,0.0,0.0,0.0,0.0,0.0,0.0,0.0,0.0,0.0,0.0,0.0,0.0,0.0,0.0,0.0,0.0,0.0,0.0,0.0,0.0,0.0,0.0,0.0,0.0,0.0,0.0,0.0,0.0,0.0,0.0,0.0,0.0,4.4584,0.0,0.0,0.0,0.0,0.0,0.0,0.0,0.0,0.0,0.0,0.0,0.0,0.0,0.0,0.0,0.0,0.0,0.0,0.0,0.0,0.0,0.0,0.0,0.0,0.0,0.0,0.0,0.0,0.0,0.0,0.0,0.0,0.0,0.0,0.0,0.0,0.0,0.0,4.004,3.9849,3.9969,4.0374,3.9765,3.9476,3.9476,0.0,0.0,0.0,0.0,0.0,0.0,0.0,0.0,0.0,0.0,0.0,0.0,0.0,0.0,0.0,0.0,0.0,0.0,0.0,0.0,0.0,0.0,0.0,0.0,0.0,0.0,0.0,0.0,0.0,0.0,0.0,0.0,0.0,0.0,0.0,0.0,0.0,0.0,0.0,0.0,0.0,0.0,0.0,0.0,0.0,0.0,0.0,0.0,0.0,0.0,0.0,0.0,0.0,0.0,0.0,0.0,0.0,0.0,0.0,0.0,0.0,0.0,0.0,0.0,0.0,0.0,0.0,0.0,0.0,0.0,0.0,4.5229,0.0,0.0,0.0,0.0,0.0,0.0,0.0,0.0,0.0,0.0,0.0,0.0,0.0,0.0,0.0,0.0,0.0,0.0,0.0,0.0,0.0,0.0,0.0,3.8209,3.808,3.7775,3.7856,3.7861,3.7774,0.0,0.0,0.0,0.0,0.0,3.9692,3.9819,4.0166,4.0767,4.0541,4.056,4.0865,4.0626,4.0505,4.0522,4.0698,0.0,0.0,0.0,0.0,0.0,0.0,0.0,0.0,0.0,0.0,0.0,0.0,0.0,0.0,0.0,0.0,0.0,0.0,0.0,0.0,0.0,0.0,0.0,0.0,0.0,0.0,0.0,0.0,0.0,0.0,0.0,0.0,0.0,0.0,0.0,0.0,0.0,0.0,0.0,0.0,0.0,0.0,0.0,0.0,0.0,0.0,0.0,0.0,0.0,0.0,0.0,0.0,0.0,0.0,0.0,0.0,0.0,0.0,0.0,0.0,0.0,0.0,0.0,4.7569,4.7635,4.7484,4.7581,4.7663,4.7663,4.7234,4.7017,4.6961,4.646,0.0,0.0,0.0,0.0,0.0,0.0,0.0,0.0,0.0,0.0,0.0,0.0,0.0,0.0,0.0,0.0,0.0,0.0,0.0,3.8351,3.8223,3.8209,3.8123,3.7874,3.845,3.8816,3.8786,0.0,0.0,0.0,0.0,4.0451,4.0451,4.1036,4.1367,4.1478,4.1162,4.1024,4.1066,4.0677,4.0505,4.0522,4.0698,4.0783,4.0783,0.0,0.0,0.0,0.0,0.0,0.0,0.0,0.0,0.0,0.0,0.0,0.0,0.0,0.0,0.0,0.0,0.0,0.0,0.0,0.0,0.0,0.0,0.0,0.0,0.0,0.0,0.0,0.0,0.0,0.0,0.0,0.0,0.0,0.0,0.0,0.0,0.0,0.0,0.0,0.0,0.0,4.412,4.4706,0.0,0.0,0.0,0.0,0.0,0.0,0.0,0.0,0.0,0.0,0.0,0.0,0.0,4.7151,4.7521,4.7571,4.7754,4.8065,4.8597,4.8912,4.9028,4.9541,4.9873,5.0042,4.9974,0.0,4.732,4.7253,0.0,0.0,0.0,0.0,0.0,0.0,0.0,0.0,0.0,0.0,0.0,0.0,0.0,0.0,0.0,0.0,0.0,0.0,0.0,0.0,0.0,3.8323,3.8381,3.8608,3.8914,3.9253,3.9612,4.0175,0.0,0.0,4.104,4.1324,4.1324,4.1413,4.139,4.1321,4.1052,4.0933,4.0933,4.0763,4.0677,4.0663,4.0953,4.1052,4.0967,4.0967,0.0,0.0,0.0,0.0,0.0,0.0,0.0,0.0,0.0,0.0,0.0,0.0,0.0,0.0,0.0,0.0,0.0,0.0,0.0,0.0,0.0,0.0,0.0,0.0,0.0,0.0,0.0,0.0,0.0,0.0,0.0,0.0,0.0,0.0,0.0,0.0,0.0,0.0,0.0,4.5231,4.5605,4.6013,4.5993,4.5946,0.0,0.0,0.0,0.0,0.0,0.0,0.0,0.0,0.0,4.7823,4.8608,4.9109,4.926,4.9443,4.9624,4.9788,5.0123,5.0257,5.0274,5.0526,5.071,5.076,5.076,5.0308,4.9509,4.9127,4.8771,4.8409,0.0,0.0,0.0,0.0,4.7759,4.8167,0.0,0.0,0.0,0.0,0.0,0.0,0.0,0.0,0.0,0.0,0.0,0.0,3.8408,3.857,3.885,3.9234,3.9621,3.9996,4.0454,4.1082,4.142,4.1373,4.1693,4.1898,4.1817,4.1473,4.1223,4.11,4.0899,4.0783,4.0783,4.0783,4.0783,4.08,4.1156,4.1237,4.11,4.11,4.1083,4.1001,0.0,0.0,0.0,0.0,0.0,0.0,0.0,0.0,0.0,0.0,0.0,0.0,0.0,0.0,0.0,0.0,0.0,0.0,0.0,0.0,0.0,0.0,0.0,0.0,0.0,0.0,0.0,0.0,0.0,0.0,0.0,0.0,0.0,0.0,0.0,0.0,0.0,4.646,4.6704,4.698,4.7013,4.691,0.0,0.0,0.0,0.0,0.0,0.0,4.7586,4.8504,4.909,4.9259,5.0159,5.0627,5.0677,5.0908,5.1073,5.1073,5.1355,5.1423,5.1342,5.1747,5.1915,5.1915,5.2118,5.2252,5.2234,5.0944,5.0274,5.0052,4.9516,4.9355,4.937,4.9269,4.9481,4.9863,0.0,0.0,0.0,0.0,0.0,0.0,0.0,0.0,0.0,0.0,0.0,3.8408,3.8408,3.9037,3.9458,3.9491,4.0722,4.1499,4.1517,4.2041,4.2269,4.2045,4.1932,4.1801,4.1621,4.1406,4.1223,4.11,4.0899,4.0783,4.0783,4.0783,4.0783,4.08,4.1156,4.1237,4.11,4.11,4.0984,4.0848,4.1001,0.0,0.0,0.0,0.0,0.0,0.0,0.0,0.0,0.0,0.0,0.0,0.0,0.0,0.0,0.0,0.0,0.0,0.0,0.0,0.0,0.0,0.0,0.0,0.0,0.0,0.0,0.0,0.0,0.0,0.0,0.0,0.0,0.0,0.0,0.0,0.0,0.0,0.0,4.7303,4.7268,0.0,0.0,0.0,0.0,4.8353,4.9231,4.973,4.9747,5.0173,5.046,5.061,5.0859,5.1056,5.1169,5.1185,5.1185,5.1185,5.1911,5.2216,5.2283,5.3754,5.4431,5.4465,5.5158,5.5462,5.5242,5.2185,5.0842,5.061,5.0274,5.0154,5.0103,4.9948,5.012,5.0476,0.0,0.0,0.0,0.0,0.0,0.0,0.0,0.0,3.8408,3.8408,3.8408,3.857,3.907,3.9329,3.9803,4.0589,4.1105,4.1543,4.1884,4.2221,4.2302,4.2109,4.2045,4.1801,4.1288,4.129,4.1355,4.1409,4.143,4.1612,4.197,4.2186,4.2291,4.2309,4.2691,4.2759,4.2507,4.1526,4.0967,4.0831,4.1001,4.11,0.0,0.0,0.0,0.0,0.0,0.0,0.0,0.0,0.0,0.0,0.0,0.0,0.0,0.0,0.0,0.0,0.0,0.0,0.0,0.0,0.0,0.0,0.0,0.0,0.0,0.0,0.0,0.0,0.0,0.0,0.0,0.0,0.0,0.0,0.0,0.0,0.0,4.838,4.8547,0.0,4.9443,4.9522,4.9603,4.979,5.009,5.0375,5.0593,5.1179,5.1833,5.2488,5.3028,5.3568,5.4076,5.4109,5.4109,5.4109,5.4346,5.4481,5.4515,5.5056,5.531,5.5327,5.5597,5.5699,5.5631,5.4497,5.3904,5.3698,5.3576,5.3487,5.3363,5.34,5.3523,5.3714,0.0,0.0,0.0,0.0,0.0,0.0,0.0,3.8408,3.8505,3.8732,3.8764,3.9037,3.975,4.0042,4.05,4.1254,4.1528,4.1803,4.2174,4.2317,4.2333,4.2206,4.2366,4.2344,4.2079,4.2181,4.2248,4.2315,4.2336,4.2519,4.286,4.3096,4.3202,4.322,4.3535,4.3587,4.3333,4.2316,4.1755,4.1617,4.1789,4.1889,4.1892,0.0,0.0,0.0,0.0,0.0,0.0,0.0,0.0,0.0,0.0,0.0,0.0,0.0,0.0,0.0,0.0,0.0,0.0,0.0,0.0,0.0,0.0,0.0,0.0,0.0,0.0,0.0,0.0,0.0,0.0,0.0,0.0,0.0,0.0,0.0,4.8397,4.9493,4.9726,5.0025,5.0676,5.081,5.1044,5.1464,5.1749,5.2085,5.2556,5.3062,5.3602,5.4211,5.4735,5.5344,5.6071,5.6071,5.6206,5.6461,5.6461,5.6461,5.6461,5.6713,5.6815,5.6815,5.7085,5.7187,5.7187,5.7187,5.7099,5.6889,5.5911,5.5418,5.5311,5.5453,5.5489,5.5542,0.0,0.0,0.0,0.0,0.0,0.0,3.8408,3.8408,3.8699,3.9394,3.9523,3.9782,4.0448,4.116,4.152,4.1335,4.1979,4.2381,4.2381,4.2413,4.2461,4.2461,4.2976,4.3484,4.4001,4.4018,4.3947,4.374,4.3549,4.3462,4.3476,4.3476,4.3476,4.3493,4.3682,4.3665,4.3476,4.3476,4.342,4.3292,4.3374,4.3396,4.3413,0.0,0.0,0.0,0.0,0.0,0.0,0.0,0.0,0.0,0.0,0.0,0.0,0.0,0.0,0.0,0.0,0.0,0.0,0.0,0.0,0.0,0.0,0.0,0.0,0.0,0.0,0.0,0.0,0.0,0.0,0.0,0.0,0.0,4.8687,4.8893,4.9543,5.0626,5.0777,5.0926,5.127,5.1864,5.2573,5.3501,5.4228,5.4972,5.5699,5.5733,5.5767,5.58,5.58,5.6139,5.69,5.69,5.7273,5.7967,5.7967,5.7967,5.7983,5.8727,5.9013,5.9081,5.981,6.0114,6.0114,6.0114,6.0114,5.981,5.695,5.5834,5.5834,5.5834,5.5852,5.5887,0.0,0.0,0.0,0.0,0.0,0.0,3.8408,3.8829,3.9264,3.9458,3.9841,4.0333,4.101,4.116,4.1372,4.1709,4.2013,4.2174,4.2174,4.2912,4.3654,4.435,4.4366,4.4347,4.4357,4.4523,4.4665,4.4854,4.4817,4.4967,4.5302,4.5352,4.5352,4.5352,4.5511,4.5508,4.5348,4.5348,4.5241,4.4998,4.3839,4.3396,4.3413,0.0,0.0,0.0,0.0,0.0,0.0,0.0,0.0,0.0,0.0,0.0,0.0,0.0,0.0,0.0,0.0,0.0,0.0,0.0,0.0,0.0,0.0,0.0,0.0,0.0,0.0,0.0,0.0,0.0,0.0,0.0,5.041,5.0527,5.0008,5.0109,5.0627,5.1597,5.2337,5.2977,5.3619,5.4278,5.4819,5.509,5.5293,5.5716,5.6461,5.6494,5.7002,5.8066,5.81,5.8438,5.9201,5.9201,5.9302,5.9505,5.9505,5.9505,5.9505,5.9708,5.981,5.981,6.0013,6.0114,6.0114,6.0114,6.0114,6.0013,5.9201,5.8896,5.8896,5.8896,5.9063,5.9318,0.0,0.0,0.0,0.0,0.0,0.0,3.8408,3.9037,3.9573,3.9824,4.0365,4.095,4.1579,4.1581,4.1646,4.1964,4.2077,4.2334,4.2864,4.3958,4.4947,4.5814,4.575,4.5816,4.6045,4.6094,4.6241,4.6516,4.6363,4.6403,4.6585,4.653,4.6509,4.6439,4.6509,4.6457,4.633,4.633,4.6152,4.5837,4.4907,4.4471,4.44,4.4311,4.4275,4.4239,4.4041,4.3969,4.3969,4.3969,0.0,0.0,0.0,0.0,0.0,0.0,0.0,0.0,0.0,0.0,0.0,0.0,0.0,0.0,0.0,0.0,0.0,0.0,0.0,0.0,0.0,0.0,0.0,0.0,5.1967,5.2438,5.2253,5.2034,5.2186,5.3045,5.3906,5.4583,5.5006,5.575,5.6274,5.6596,5.6916,5.739,5.8152,5.8186,5.8592,5.9419,5.9471,5.9844,6.0588,6.0588,6.0757,6.1061,6.1061,6.1061,6.1061,6.1061,6.1061,6.1061,6.1061,6.1061,6.1061,6.1061,6.1061,0.0,0.0,0.0,0.0,0.0,6.0467,6.0692,0.0,0.0,0.0,0.0,0.0,0.0,3.8505,3.9135,3.9821,4.032,4.0998,4.1563,4.2029,4.2077,4.2077,4.2077,4.2126,4.2735,4.4149,4.5359,4.6337,4.7086,4.7119,4.7498,4.8257,4.8147,4.813,4.8274,4.7902,4.7671,4.7488,4.7303,4.7134,4.703,4.7078,4.6989,4.6816,4.6895,4.6667,4.6261,4.6243,4.6086,4.5787,4.5536,4.5476,4.5426,4.5204,4.5129,4.5129,4.5129,0.0,0.0,0.0,0.0,0.0,0.0,0.0,0.0,0.0,0.0,0.0,0.0,0.0,0.0,0.0,0.0,0.0,0.0,0.0,0.0,0.0,0.0,0.0,0.0,5.3788,5.4753,5.4854,5.4363,5.4194,5.4769,5.5513,5.5969,5.6071,5.6747,5.7442,5.8103,5.8761,5.9453,6.0216,0.0,0.0,0.0,0.0,6.0689,6.1472,6.1472,6.1777,6.2459,6.244,6.242,6.242,6.24,6.24,6.24,6.24,6.24,6.24,6.24,6.24,6.2285,6.0931,6.0408,6.0446,6.0702,6.0889,6.1058,0.0,0.0,0.0,0.0,0.0,0.0,3.9199,3.988,4.05,4.1028,4.1596,4.1917,4.1947,4.1931,4.1931,4.1931,4.2286,4.3405,4.556,4.6663,4.7665,4.8547,4.8596,4.8664,4.8845,4.8673,4.8576,4.8608,4.8276,4.8082,4.8049,4.7886,4.7787,4.782,4.8246,4.8339,4.815,4.8647,4.8285,4.7395,4.7201,4.6593,4.5769,4.542,4.5241,4.5204,4.4867,4.4704,4.4704,4.4704,4.4704,4.4704,4.4704,4.4704,0.0,0.0,0.0,0.0,0.0,0.0,0.0,0.0,0.0,0.0,0.0,0.0,0.0,0.0,0.0,0.0,0.0,0.0,0.0,5.4126,5.4905,5.5699,5.6292,5.6765,5.6867,5.6427,5.7036,5.7712,5.8303,5.9032,5.9505,5.9674,5.981,6.0216,6.1028,6.1061,6.1332,6.1941,6.196,6.2087,6.2411,6.2411,6.2576,6.2885,0.0,0.0,6.2649,6.2459,6.24,6.24,6.24,6.24,6.24,6.24,6.2479,6.2635,6.2329,6.2289,6.2461,6.2499,6.2744,6.3041,0.0,0.0,0.0,0.0,0.0,0.0,3.9394,4.0074,4.0664,4.1145,4.1741,4.1997,4.1784,4.1833,4.1979,4.2141,4.3504,4.5013,4.6635,4.7729,4.8502,4.8969,4.9018,4.9015,4.9092,4.8938,4.8892,4.8935,4.872,4.8563,4.8517,4.8789,4.8908,4.8827,4.9477,4.9641,4.9522,4.98,4.944,4.8592,4.8073,4.7398,4.6648,4.5588,4.5185,4.5129,4.4723,4.4591,4.4591,4.4591,4.4591,4.4591,4.4591,4.4591,4.4591,0.0,0.0,0.0,0.0,0.0,0.0,0.0,0.0,0.0,0.0,0.0,0.0,0.0,0.0,5.3108,5.3787,0.0,5.5154,5.5631,5.6325,5.707,5.7814,5.8524,5.8727,5.7983,5.8558,5.9133,5.9487,6.025,6.0689,6.0689,6.1028,6.1434,6.1839,6.1839,6.2067,6.2537,6.2537,6.2635,6.2847,6.2847,6.3075,6.3566,6.345,6.3597,6.3991,6.3893,6.3854,6.3854,6.3972,6.4011,6.3976,6.3698,6.3498,6.3399,6.3399,6.3287,6.317,6.3396,6.362,6.3876,0.0,0.0,0.0,0.0,0.0,0.0,3.9588,4.0268,4.0845,4.1245,4.1773,4.1964,4.1638,4.1817,4.2173,4.2765,4.4867,4.6516,4.7435,4.8471,4.908,4.9111,4.9111,4.9138,4.926,4.9107,4.9077,4.9199,4.9061,4.8956,4.8866,4.9591,4.9848,4.9719,5.0575,5.0894,5.081,5.091,5.0588,4.989,4.8975,4.8319,4.7687,4.6067,4.5407,4.5241,4.4867,4.4704,4.4704,4.4704,4.4704,4.4704,4.4704,4.4704,4.4735,4.4859,4.5079,0.0,0.0,0.0,0.0,0.0,0.0,0.0,0.0,5.1543,5.2182,5.2691,5.3752,5.4612,5.4768,5.5547,5.6308,5.6934,5.7746,5.8592,5.9317,5.9979,6.0182,5.9689,6.008,6.0385,6.052,6.1129,6.1501,6.1501,6.2042,6.242,6.244,6.2575,6.2741,6.2989,6.3125,6.329,6.3521,6.3521,6.3813,6.4434,6.4429,6.4737,6.5412,6.5373,6.5392,6.5456,6.5707,6.5822,6.5773,6.5321,6.4993,6.4741,6.4777,6.4563,6.4237,6.4124,6.4199,6.4411,0.0,0.0,0.0,0.0,0.0,0.0,0.0,0.0,4.1603,4.1949,4.2061,4.1964,4.1638,4.1883,4.2671,4.4156,4.5487,4.673,4.7789,4.8685,4.926,4.9426,4.9426,4.9441,4.9456,4.9275,4.9184,4.9199,4.9061,4.9003,4.8987,4.9747,5.0069,5.0121,5.1377,5.1933,5.1934,5.2435,5.2129,5.1206,5.0132,4.9181,4.8267,4.6945,4.6138,4.5696,4.526,4.5129,4.5129,4.5129,4.5129,4.5129,4.5129,4.5129,4.5254,4.5865,4.6285,4.6747,4.7585,4.855,4.9634,5.0935,5.1289,5.1743,0.0,5.3917,5.4256,5.5122,5.5445,5.5546,5.5564,5.6697,5.7697,5.7746,5.893,6.0148,6.0926,6.1129,6.1366,6.1941,6.1501,6.1434,6.2076,6.2231,6.2299,6.2299,6.2367,6.2459,6.2669,6.33,6.3737,6.3937,6.464,6.5114,6.5289,6.5308,6.5439,6.5681,6.5523,6.5577,6.5819,6.5665,6.5746,6.6038,6.6393,6.6593,6.6576,6.6705,6.6813,6.6953,6.7127,6.735,6.7342,6.5488,6.5009,6.536,0.0,0.0,0.0,0.0,0.0,0.0,0.0,0.0,4.17,4.2046,4.2093,4.1964,4.1638,4.2077,4.3166,4.5094,4.5909,4.6928,4.8428,4.8877,4.9107,4.9233,4.9199,4.9199,4.9199,4.9123,4.9077,4.9077,4.9049,4.9018,4.9018,4.9729,5.0338,5.0761,5.1778,5.2488,5.2927,5.3146,5.2724,5.1765,5.076,4.9808,4.8828,4.7699,4.7115,4.6806,4.5945,4.5614,0.0,4.5554,4.5554,4.5554,4.5554,4.5806,4.6202,4.6615,4.7223,4.807,4.9469,5.0189,5.0914,5.2182,5.2891,5.3498,5.4293,5.4817,5.5239,5.5614,5.6393,5.6968,5.6968,5.8186,5.9336,5.981,6.0385,6.1061,6.1839,6.1941,6.2042,6.2367,6.211,6.2042,6.2367,6.24,6.244,6.2557,6.2964,6.33,6.3514,6.4249,6.4757,6.4971,6.528,6.5548,6.5761,6.5876,6.6198,6.6723,6.6761,6.7083,6.769,6.7633,6.7899,6.8433,6.8717,6.8731,6.8509,6.8594,6.8478,6.8249,6.8314,6.8574,6.8723,6.74,6.717,6.7489,0.0,0.0,0.0,0.0,0.0,0.0,0.0,0.0,0.0,0.0,4.2061,4.1964,4.1753,4.2302,4.3531,4.5616,4.6152,4.7108,4.8901,4.9018,4.9018,4.9018,4.9018,4.9018,4.9018,4.9018,4.9018,4.9018,4.9018,4.9018,4.9018,4.9729,5.0371,5.093,5.1691,5.2334,5.2875,5.2875,5.2487,5.1781,5.0842,5.0057,4.9341,4.8298,4.7886,4.7721,4.6724,4.6337,4.623,4.623,4.6323,4.6478,4.6478,4.6925,4.7549,4.7906,4.8757,4.9888,5.1399,5.1984,5.2395,5.3599,5.4413,5.4938,5.5141,5.5615,5.6105,5.6511,5.7476,5.8254,5.8457,5.9573,6.0622,6.1197,6.1467,6.1772,6.2313,6.24,6.24,6.24,6.24,6.2522,6.2764,6.2784,6.2843,6.2979,6.3772,6.4318,6.4478,6.527,6.5779,6.5974,6.618,6.6381,6.6593,6.6746,6.7121,6.7791,6.798,6.8483,6.9268,6.9453,6.9867,7.0441,7.0678,7.062,7.0358,7.0358,7.0107,6.9756,6.9694,6.9915,7.0125,6.9648,6.9297,6.9104,0.0,0.0,0.0,0.0,0.0,0.0,0.0,0.0,0.0,0.0,4.198,4.1947,4.2061,4.2587,4.3672,4.5631,4.621,4.7214,4.8901,4.9018,4.9018,4.9018,4.9018,4.9018,4.9018,4.9018,4.9018,4.9018,4.9018,4.9018,4.9018,4.9729,5.0117,5.0184,5.0897,5.1235,5.1269,5.1269,5.1269,5.1151,5.0265,4.9898,4.9781,4.8849,4.8356,4.8114,4.7555,4.7354,4.7354,4.7354,4.7693,4.8142,4.8142,4.8615,4.9367,5.0098,5.1197,5.2442,5.3583,5.4064,5.4441,5.5376,5.5665,5.5834,5.6562,5.6765,5.7171,5.8607,5.8945,5.9182,5.9911,6.0723,6.1264,6.1298,6.1907,6.2347,6.24,6.24,6.24,6.24,6.24,6.2764,6.3693,6.3761,6.3781,6.3781,6.4678,6.5338,6.5514,6.6254,6.6765,6.6945,6.7669,6.8113,6.8308,6.8327,6.854,6.8954,6.9159,6.9453,6.9885,7.0613,7.1029,7.1187,7.1593,7.1749,7.1749,7.1749,7.1821,7.1885,7.1754,7.1927,7.2226,7.2197,7.1085,6.9617,0.0,0.0,0.0,0.0,0.0,0.0,0.0,0.0,0.0,0.0,0.0,0.0,0.0,0.0,0.0,0.0,4.6152,4.7108,4.8901,4.9018,4.9018,4.9018,4.9018,4.9018,4.9018,4.9018,4.9018,4.9018,4.9018,4.9018,4.9018,4.9255,4.9627,5.0117,5.0371,5.0744,5.1201,5.1201,5.0897,5.0439,5.0139,4.9752,4.9263,4.8946,4.8783,4.8704,0.0,4.8179,4.7853,4.8365,4.8628,4.8874,4.9369,5.0045,5.0806,5.1605,5.2582,5.355,5.4064,5.4624,5.515,5.5596,5.6071,5.663,5.734,5.7915,5.854,5.9539,6.0129,6.0622,6.0858,6.1501,6.2009,6.2009,6.2265,6.24,6.24,6.24,6.24,6.24,6.2959,6.3464,6.3781,6.3815,0.0,6.4942,6.574,6.6323,6.6538,6.7227,6.7738,6.7919,6.8161,6.8455,6.88,6.9064,6.9362,6.9742,7.0286,7.0644,7.0778,7.1288,7.1589,7.1759,7.2009,7.2159,7.2248,7.2248,7.2292,7.2336,7.2277,7.2321,7.2423,7.2423,7.205,7.1545,0.0,0.0,0.0,0.0,0.0,0.0,0.0,0.0,0.0,0.0,0.0,0.0,0.0,0.0,0.0,0.0,0.0,4.7063,4.8886,4.9018,4.9018,4.9018,4.9018,4.9018,4.9018,4.9018,4.9018,4.9018,4.9018,4.9018,4.9018,4.9018,4.9255,4.9695,4.9695,4.9965,5.0423,5.0423,5.0135,4.9695,4.9695,4.9424,4.9018,4.9018,4.9018,0.0,4.9289,4.9108,4.8807,4.9291,4.9792,5.0243,5.0743,5.141,5.2144,5.3053,5.3729,5.4355,5.5033,5.554,5.6048,5.6729,5.7221,5.778,5.8524,5.9066,5.9588,6.0385,6.0926,6.1366,6.1637,6.2076,6.24,6.24,6.24,6.24,6.24,6.24,6.2522,6.2871,6.343,6.4078,6.4781,6.4834,6.5138,6.5926,6.6745,6.7296,6.751,6.796,6.8319,6.8609,6.8628,6.8857,6.9324,6.9634,7.0043,7.0611,7.1139,7.1479,7.1604,7.1857,7.2039,7.2204,7.2307,7.2409,7.2496,7.2496,7.2496,7.2496,7.2496,7.2496,7.2496,7.2496,7.2496,7.2496,0.0,0.0,0.0,0.0,0.0,0.0,0.0,0.0,0.0,0.0,0.0,0.0,0.0,0.0,0.0,0.0,0.0,0.0,4.8818,4.8984,4.9018,4.9018,4.9018,4.9018,4.9018,4.9018,4.9018,4.9018,4.9018,4.9018,4.9018,4.9018,4.9018,4.9018,4.9018,4.9018,4.9018,4.9018,4.9018,4.9018,4.9018,4.9018,4.9018,4.9018,4.9018,4.9154,4.9846,5.015,5.0218,5.0218,5.107,5.2186,5.2186,5.2691,5.3449,5.4329,5.4651,5.5006,5.6427,5.6867,5.7273,5.8641,5.9013,5.925,5.9979,6.0148,6.0385,6.1197,6.1366,6.1569,6.2245,6.24,6.24,6.24,6.24,6.24,6.24,6.2434,6.2798,6.3693,6.3883,6.4639,6.6524,6.6755,6.6775,6.6775,0.0,6.8201,6.8416,6.8435,6.8628,6.9045,6.9064,6.9361,6.9938,7.0113,7.0661,7.1526,7.1734,7.2015,7.2314,7.2365,7.2439,7.2496,7.2532,7.2532,7.2496,7.2496,7.2496,7.2496,7.2496,7.2496,7.2496,7.2496,7.2496,7.2496,0.0,0.0,0.0,0.0,0.0,0.0,0.0,0.0,0.0,0.0,0.0,0.0,0.0,0.0,0.0,0.0,0.0,0.0,4.8108,4.8698,4.9018,4.9018,4.9018,4.9018,4.9018,4.9018,4.9018,4.9018,4.9018,4.9018,4.9018,4.9018,4.9018,4.9018,4.9018,4.9018,4.9018,4.9018,4.9018,4.9018,4.9018,4.9018,4.9018,4.9018,4.9357,4.983,5.0049,5.0811,5.1725,5.1725,5.2368,5.3146,5.3146,5.3653,5.4278,5.4532,5.5378,5.6325,5.6697,5.7611,5.854,5.8912,5.9419,6.0047,6.0825,6.0994,6.1197,6.1941,6.211,6.2178,6.2367,6.24,6.24,6.24,6.24,6.24,6.24,6.2854,6.3354,6.3761,6.494,6.5992,6.6647,6.7477,6.7964,6.7964,6.8196,6.8474,6.8838,6.8857,6.9101,6.9652,6.976,7.0113,7.0714,7.1236,7.1728,7.2084,7.2248,7.2351,7.2475,7.3061,7.3054,7.2532,7.312,7.3046,7.2496,7.2496,7.2496,7.2496,7.2496,7.2496,7.2496,7.2496,7.2496,7.2496,0.0,0.0,0.0,0.0,0.0,0.0,0.0,0.0,0.0,0.0,0.0,0.0,0.0,0.0,0.0,0.0,0.0,0.0,0.0,4.8332,4.8798,4.891,4.891,4.8941,4.9018,4.9018,4.9018,4.9018,4.9018,4.9018,4.9018,4.9018,4.9018,4.9018,4.9018,4.9018,4.9018,4.9018,4.9018,0.0,0.0,4.9018,4.9018,4.9018,4.9458,5.015,5.0473,5.1555,5.2841,5.2841,5.3145,5.3551,5.389,5.4262,5.4735,5.5378,5.6156,5.6934,5.7611,5.8371,5.9148,5.9844,6.0317,6.0825,6.1603,6.1772,6.1907,6.2333,6.24,6.24,6.24,6.24,6.24,6.24,6.24,6.2516,6.2854,6.326,6.3868,6.4832,6.579,6.6679,6.7404,6.8018,6.8551,6.8914,6.8762,6.8857,6.925,6.9399,6.976,7.0357,7.0509,7.0861,7.1431,7.1897,7.2401,7.293,7.2966,7.3193,7.356,7.4037,7.4001,7.3597,0.0,7.3964,7.356,7.356,7.356,7.356,7.356,7.356,7.356,7.356,7.356,7.3523,0.0,0.0,0.0,0.0,0.0,0.0,0.0,0.0,0.0,0.0,0.0,0.0,0.0,0.0,0.0,0.0,0.0,0.0,0.0,0.0,4.8383,4.8707,4.8738,4.8832,4.8987,4.9003,4.9018,4.9018,4.9018,4.9018,4.9018,4.9018,4.9018,4.9018,4.8987,4.8987,4.8987,4.8987,4.8987,4.8987,4.8969,4.9018,4.9018,0.0,4.9526,5.0338,5.1201,5.2351,5.3518,5.3518,5.3518,5.3619,5.438,5.4685,5.5006,5.6393,5.6867,5.7239,5.8641,5.9081,5.9487,6.096,6.1366,6.1603,6.2245,6.24,6.24,6.24,6.24,6.24,6.24,6.24,6.24,6.24,6.24,6.2651,6.3376,6.3579,6.4335,6.6205,6.6505,6.7058,6.8308,6.8513,6.8876,6.9616,6.9434,6.9399,6.9778,7.0078,7.0526,7.111,7.1252,7.1568,7.2063,7.2343,7.2878,7.3722,7.3817,7.4221,7.4903,7.5014,7.5014,7.4903,7.5014,7.5014,7.4903,7.4903,7.4903,7.4903,7.4903,7.4903,7.4903,7.4903,7.4903,7.4793,0.0,0.0,0.0,0.0,0.0,0.0,0.0,0.0,0.0,0.0,4.0712,4.08,0.0,0.0,0.0,0.0,0.0,0.0,0.0,0.0,0.0,4.8242,4.8452,4.8659,4.8816,4.8956,4.9018,4.9018,4.9018,4.9018,4.9018,4.9018,4.9018,4.9003,4.8879,4.8832,4.8832,4.8832,4.8832,4.8832,4.8972,4.9018,4.9018,4.9018,0.0,0.0,5.2588,5.3281,5.3518,5.3518,5.3518,5.3619,5.438,5.5006,5.5665,5.6562,5.7239,5.7881,5.8743,5.9419,6.0148,6.1061,6.1772,6.2265,6.2367,6.24,6.24,6.24,6.24,6.24,6.24,6.24,6.24,6.24,6.24,6.2651,6.3376,6.4018,6.4911,6.624,6.709,6.7827,6.859,6.9101,6.9544,6.9991,7.0407,7.0697,7.0747,7.0911,7.1268,7.1821,7.2024,7.2204,7.2409,7.3113,7.3546,7.3722,7.4368,7.4757,7.4903,7.5579,7.5542,7.494,7.5616,0.0,7.4903,7.4903,7.4903,7.4903,7.4903,7.4903,7.4903,7.4903,7.4903,7.4867,0.0,0.0,0.0,0.0,0.0,0.0,0.0,4.0574,4.0505,4.0505,4.0591,4.0663,4.0797,4.112,4.1438,0.0,0.0,0.0,0.0,0.0,0.0,4.7754,4.7869,4.8114,4.8501,4.8642,4.8767,4.8894,0.0,4.9018,4.9018,4.9018,4.9018,4.8969,4.8863,4.8785,4.8785,4.8691,4.8707,4.8801,4.8863,4.8941,4.9018,4.9018,0.0,0.0,5.2926,5.3518,5.3518,5.3518,5.3518,5.3687,5.4837,5.5428,5.5902,5.7036,5.7611,5.8118,5.9268,5.9844,6.0385,6.1569,6.2144,6.24,6.24,6.24,6.24,6.24,6.24,6.24,6.24,6.24,6.24,6.24,6.24,6.2787,6.3903,6.4478,6.5365,6.6947,6.7698,6.8397,6.9101,6.958,7.0096,7.0609,7.109,7.1352,7.1256,7.1589,7.1912,7.2263,7.2351,7.2423,7.2496,7.2899,7.3303,7.3722,7.4515,7.5124,7.5542,7.6371,7.6518,7.6188,7.6555,0.0,7.6151,7.6151,7.6151,7.6151,7.6151,7.6151,7.6151,7.6151,7.6151,7.6078,0.0,0.0,0.0,0.0,0.0,0.0,0.0,4.0505,4.0505,4.0505,4.0505,4.0574,4.0729,4.0766,4.0902,0.0,0.0,0.0,0.0,0.0,0.0,0.0,0.0,0.0,4.8033,0.0,0.0,4.8675,4.8832,0.0,0.0,0.0,0.0,0.0,4.8816,4.8738,4.8722,4.8515,4.8547,0.0,0.0,4.8879,4.9018,0.0,0.0,0.0,0.0,5.3348,5.3518,5.3518,5.3518,5.3754,5.5225,5.5699,5.6003,5.7476,5.79,5.8204,5.9505,5.9877,6.0182,6.1569,6.1927,6.1927,6.1927,6.1927,6.196,6.211,6.2144,6.2212,6.2367,6.24,6.24,6.24,6.24,6.2874,6.4234,6.474,6.5639,6.7467,6.8254,6.8935,6.9724,7.0148,7.0678,7.1316,7.1661,7.1836,7.1713,7.2114,7.2365,7.2496,7.2496,7.2496,7.2496,7.2679,7.3083,7.3722,7.4515,7.5234,7.5873,7.6481,7.6885,7.7032,7.7032,0.0,7.7289,7.7289,7.7289,7.7289,7.7289,7.7289,7.7289,7.7289,7.7289,7.7215,0.0,0.0,0.0,0.0,0.0,0.0,0.0,4.0505,4.0505,4.0505,4.0505,4.0522,4.0539,4.0712,4.08,0.0,0.0,0.0,0.0,0.0,0.0,0.0,0.0,0.0,0.0,0.0,0.0,4.8243,4.8452,0.0,0.0,0.0,0.0,0.0,0.0,4.8531,4.8515,4.8308,0.0,0.0,0.0,0.0,0.0,0.0,0.0,0.0,0.0,5.2875,5.3518,5.3518,5.3518,5.3754,5.5225,5.5699,5.6003,5.7476,5.79,5.8103,5.8878,5.9115,5.9284,6.0114,6.0317,6.0317,6.0317,6.0317,6.052,6.1264,6.14,6.1603,6.2299,6.24,6.24,6.24,6.24,6.273,6.3721,6.4619,6.571,6.7173,6.8572,6.9653,7.0251,7.096,7.1526,7.1897,7.2263,7.2423,7.2409,7.2452,7.2481,7.2496,7.2496,7.2496,7.2496,7.323,7.3634,7.3722,7.4515,7.494,7.5014,7.5087,7.5527,7.6203,7.6203,0.0,0.0,7.7289,7.7289,7.7289,7.7289,7.7289,7.7289,7.7289,7.7289,7.7289,0.0,0.0,0.0,0.0,0.0,0.0,4.0522,4.0505,4.0505,4.0505,4.0505,4.0505,4.0505,4.056,4.0643,4.0643,0.0,0.0,0.0,0.0,0.0,0.0,0.0,0.0,0.0,0.0,4.7253,4.7704,4.7935,0.0,0.0,0.0,0.0,0.0,0.0,4.8563,4.8675,4.8468,0.0,0.0,0.0,0.0,0.0,0.0,0.0,0.0,0.0,0.0,5.3518,5.3518,5.3518,5.3754,5.5225,5.5699,5.6003,5.7476,5.79,5.8051,5.8776,5.9013,5.9182,5.9911,6.0114,6.0114,6.0114,6.0114,6.0182,6.052,6.096,6.14,6.167,6.211,6.244,6.2557,6.2557,6.2945,6.3991,6.5057,6.6255,6.7638,6.9123,7.0268,7.0845,7.1427,7.1942,7.2292,7.2423,7.2496,7.2496,7.2496,7.2496,7.2496,7.2496,7.2496,7.2496,7.2826,7.2973,7.2973,7.378,7.4184,7.4184,7.4683,7.505,7.538,7.538,0.0,0.0,7.6371,7.6592,7.6628,7.7105,7.7289,7.7289,7.7289,7.7289,7.7289,0.0,0.0,0.0,0.0,0.0,4.0505,4.0505,4.0505,4.0505,4.0505,4.0505,4.0505,4.0505,4.0505,4.0505,4.0505,4.0643,0.0,0.0,0.0,0.0,0.0,0.0,0.0,0.0,0.0,4.653,4.7083,4.727,4.7588,0.0,0.0,4.8243,4.8612,0.0,0.0,0.0,0.0,0.0,0.0,0.0,0.0,0.0,0.0,0.0,0.0,0.0,0.0,0.0,0.0,0.0,5.3721,5.4972,5.553,5.6003,5.7476,5.79,5.8035,5.8524,5.8693,5.8795,5.9302,5.9438,5.9438,5.9438,5.9438,5.9505,5.9742,6.025,6.0757,6.1231,6.1762,6.23,6.262,6.2823,6.3186,6.4061,6.5223,6.6505,6.7852,6.9415,7.0639,7.1379,7.1882,7.2263,7.2481,7.2496,7.2496,7.2496,7.2496,7.2496,7.2496,7.2496,7.2496,7.2496,7.2496,7.2496,7.2496,7.3083,7.334,7.334,7.3927,7.4316,7.4551,7.4551,0.0,0.0,7.5506,7.5763,7.5836,7.6628,7.6959,7.6959,7.7215,7.7289,7.7289,0.0,0.0,0.0,0.0,0.0,0.0,4.0505,4.0505,4.0505,4.0505,4.0505,4.0505,4.0505,4.0505,4.0505,4.0505,4.0505,0.0,0.0,0.0,0.0,0.0,0.0,0.0,0.0,0.0,4.5765,4.6319,4.6512,4.6877,4.7404,4.7621,4.7886,4.8195,0.0,0.0,0.0,0.0,0.0,0.0,0.0,0.0,0.0,0.0,0.0,0.0,0.0,0.0,0.0,0.0,0.0,0.0,0.0,5.5108,5.6003,5.7476,5.79,5.79,5.7934,5.7934,5.7934,5.7934,5.7934,5.7934,5.7934,5.7934,5.8118,5.8844,5.9013,5.9487,6.1028,6.1471,6.1862,6.2571,6.3019,6.3358,6.3581,6.4896,6.6285,6.7645,6.9289,7.0749,7.1885,7.2307,7.2496,7.2496,7.2496,0.0,7.2496,7.2496,7.2496,7.2496,7.2496,7.2496,7.2496,7.2496,7.2496,7.2496,7.2496,7.2496,7.2496,7.2532,7.2973,0.0,0.0,0.0,0.0,7.4903,7.4903,7.4977,7.5799,7.613,7.6203,7.6995,7.7289,7.7289,0.0,0.0,0.0,0.0,0.0,0.0,0.0,4.0505,4.0505,4.0505,4.0505,4.0505,4.0505,4.0505,4.0505,4.0505,4.0505,0.0,0.0,0.0,0.0,0.0,0.0,0.0,0.0,0.0,4.5321,4.5746,4.5832,4.6124,4.6669,4.6722,4.7015,4.7455,4.7538,4.7836,0.0,0.0,0.0,0.0,0.0,0.0,4.9018,0.0,0.0,0.0,0.0,0.0,0.0,0.0,0.0,0.0,0.0,0.0,0.0,5.6731,5.7527,5.79,5.79,5.79,5.79,5.79,5.79,5.79,5.79,5.79,5.7967,5.8186,5.866,5.9373,6.054,6.1212,6.1961,6.3109,6.3433,6.3765,6.4446,6.5596,6.6896,6.8371,7.0392,7.1837,7.2299,7.2438,7.2496,7.2496,7.2496,7.2496,7.2496,7.2496,7.2496,7.2496,7.2496,7.2496,7.2496,7.2496,7.2496,7.2496,7.2496,7.2496,7.2496,7.2496,7.2642,0.0,0.0,0.0,7.3303,7.3854,7.4074,7.4147,7.4992,7.5616,7.613,7.6387,7.6812,7.7289,0.0,0.0,0.0,0.0,0.0,0.0,0.0,4.0505,4.0505,4.0505,4.0505,4.0505,4.0505,4.0505,4.0505,4.0505,4.0505,0.0,0.0,0.0,0.0,0.0,0.0,0.0,4.3772,4.444,4.4949,4.5284,4.5284,4.551,4.5999,4.5999,4.6301,4.6793,4.7015,4.7438,0.0,0.0,0.0,0.0,0.0,0.0,4.9018,0.0,0.0,0.0,0.0,0.0,0.0,0.0,0.0,0.0,0.0,0.0,0.0,0.0,5.6697,5.7543,5.7832,5.79,5.79,5.79,5.79,5.79,5.79,5.79,5.7918,5.7991,5.8363,5.9063,6.0353,6.1065,6.1937,6.3372,6.391,6.4358,6.4996,6.595,6.7222,6.9056,7.0843,7.2064,7.2445,7.2496,7.2496,7.2496,7.2496,7.2496,7.2496,7.2496,7.2496,7.2496,7.2496,7.2496,7.2496,7.2496,7.2496,7.2496,7.2496,7.2496,7.2496,7.2496,7.2496,0.0,0.0,7.2496,0.0,7.3046,7.323,7.334,7.4147,7.4735,7.5212,7.5542,7.6151,7.6848,0.0,0.0,0.0,0.0,0.0,0.0,0.0,4.0505,4.0505,4.0505,4.0505,4.0505,4.0505,4.0505,4.0505,4.0505,0.0,0.0,0.0,0.0,0.0,0.0,0.0,0.0,4.3531,4.4221,4.4685,4.4874,4.4874,4.508,4.545,4.545,4.571,4.623,4.6442,4.6963,0.0,0.0,0.0,0.0,0.0,0.0,0.0,0.0,0.0,0.0,0.0,0.0,0.0,0.0,0.0,0.0,0.0,0.0,0.0,0.0,0.0,0.0,0.0,5.7866,5.79,5.79,5.79,5.79,5.7918,5.7918,0.0,5.8171,5.8241,5.8755,6.0419,6.1056,6.186,6.3434,6.4446,6.5097,6.5278,6.6083,6.7476,6.9659,7.0722,7.1637,7.2422,7.2496,7.2496,7.2496,7.2496,7.2496,7.2496,7.2496,7.2496,7.2496,7.2496,7.2496,7.2496,7.2496,7.2496,7.2496,7.2496,7.2496,7.2496,7.2496,7.2496,0.0,0.0,7.2496,7.2496,7.2496,7.2496,7.2569,7.3303,7.3648,7.378,7.4551,7.5307,7.6019,0.0,0.0,0.0,0.0,0.0,0.0,0.0,0.0,0.0,0.0,4.0505,4.0505,4.0505,4.0505,4.0505,0.0,0.0,0.0,0.0,0.0,0.0,0.0,0.0,0.0,4.2817,4.4006,4.461,4.4667,4.4667,4.4799,4.5042,4.5042,4.5191,4.5481,4.5828,4.6615,0.0,0.0,0.0,0.0,0.0,0.0,0.0,0.0,0.0,0.0,5.066,5.1201,0.0,0.0,0.0,0.0,0.0,0.0,0.0,0.0,5.5243,5.6105,5.6867,0.0,5.79,5.79,5.79,5.7936,0.0,5.8117,5.8205,5.8401,5.8509,5.9112,6.0835,6.15,6.2388,6.434,6.5045,6.552,6.6125,6.7331,6.8637,6.9879,7.0779,7.1637,7.2422,7.2496,7.2496,7.2496,7.2496,7.2496,7.2496,7.2496,7.2496,7.2496,7.2496,7.2496,7.2496,7.2496,7.2496,7.2496,7.2496,7.2496,7.2496,7.2496,7.2496,0.0,0.0,7.2496,7.2496,7.2496,7.2496,7.2532,7.2716,7.3156,7.3707,7.3891,7.4478,7.516,0.0,0.0,0.0,0.0,0.0,0.0,0.0,0.0,0.0,0.0,0.0,0.0,0.0,0.0,0.0,0.0,0.0,0.0,0.0,0.0,0.0,0.0,0.0,4.2602,4.2602,4.3895,4.4591,4.4591,4.4591,4.4648,4.4761,4.4761,4.4855,4.5092,4.5724,4.6667,0.0,0.0,0.0,0.0,4.9018,0.0,0.0,0.0,0.0,0.0,5.0304,5.0897,0.0,5.2554,5.3179,5.3518,0.0,0.0,0.0,0.0,5.4634,5.5362,5.6212,5.7213,5.8027,5.8027,5.8099,5.8189,5.833,5.8348,5.8401,5.8596,5.8736,5.9392,6.1224,6.1934,6.2932,6.4881,6.5584,6.6151,6.6867,6.7696,6.8559,6.9435,7.0257,7.105,7.1857,7.2275,7.2496,7.2496,7.2496,7.2496,7.2496,7.2496,7.2496,7.2496,7.2496,7.2496,7.2496,7.2496,7.2496,7.2496,7.2496,7.2496,7.2496,7.2496,7.2496,0.0,0.0,7.2496,7.2496,7.2496,7.2496,7.2496,7.2496,7.2789,7.3156,7.3156,7.367,7.4368,0.0,0.0,0.0,0.0,0.0,0.0,0.0,0.0,0.0,0.0,0.0,0.0,0.0,0.0,0.0,0.0,0.0,0.0,0.0,0.0,0.0,0.0,4.1907,4.2602,4.2602,4.3895,4.4591,4.4591,4.4591,4.4591,4.4591,4.4591,4.4723,4.4986,4.5837,4.6756,0.0,0.0,0.0,0.0,4.9018,0.0,0.0,0.0,0.0,0.0,0.0,0.0,0.0,5.2063,5.2841,5.3518,5.3517,0.0,0.0,0.0,0.0,0.0,5.5774,5.7069,5.8124,5.8225,5.8401,5.8543,5.8578,5.8613,5.8684,5.8875,5.915,5.9874,6.169,6.256,6.3564,6.5303,6.6182,6.6867,6.7442,6.762,6.7994,6.8788,6.9486,7.0293,7.1197,7.1931,7.2386,7.2496,7.2496,7.2496,7.2496,7.2496,7.2496,7.2496,7.2496,7.2496,7.2496,7.2496,7.2496,7.2496,7.2496,7.2496,7.2496,7.2496,7.2496,7.2496,0.0,0.0,7.2496,7.2496,7.2496,7.2496,7.2496,7.2496,7.2496,7.2496,7.2936,7.3538,0.0,0.0,0.0,0.0,0.0,0.0,0.0,0.0,0.0,0.0,0.0,0.0,0.0,0.0,0.0,0.0,0.0,0.0,0.0,0.0,0.0,4.1401,4.2202,4.2602,4.2602,4.3895,4.4591,4.4591,4.4591,4.4591,4.4591,4.4591,4.4811,4.5167,4.5651,4.646,4.7455,4.7853,0.0,0.0,4.9018,0.0,0.0,0.0,0.0,0.0,0.0,0.0,0.0,5.2063,5.2841,5.3501,5.3617,0.0,0.0,0.0,0.0,0.0,5.5962,5.6919,5.7809,5.8319,5.8562,5.8719,5.8875,5.9047,5.9234,5.9454,6.0125,6.1072,6.2329,6.3522,6.476,6.612,6.691,6.7428,6.7633,6.7687,6.7994,6.8788,6.8995,6.9655,7.116,7.1417,7.1784,7.2459,7.2496,7.2496,7.2496,7.2496,7.2496,7.2496,7.2496,7.2496,7.2496,7.2496,7.2496,7.2496,7.2496,7.2496,7.2496,7.2496,7.2496,7.2496,0.0,7.2496,7.2496,7.2496,7.2496,7.2496,7.2496,7.2496,7.2496,7.2496,7.2569,7.2789,0.0,0.0,0.0,0.0,0.0,0.0,0.0,0.0,0.0,0.0,0.0,0.0,0.0,0.0,0.0,0.0,0.0,0.0,0.0,0.0,4.1247,4.1586,4.2571,4.3143,4.3143,4.4098,4.4591,4.4591,4.4591,4.4591,4.4591,4.4704,4.4968,4.5389,4.5868,4.6635,4.7605,4.7951,4.8436,4.9018,0.0,0.0,0.0,0.0,0.0,0.0,0.0,0.0,0.0,0.0,5.2974,5.3651,5.38,0.0,0.0,0.0,0.0,0.0,5.6029,5.6678,5.7295,5.8479,5.8892,5.9081,5.9267,5.9451,5.9617,5.9832,6.0606,6.1622,6.2769,6.4024,6.5349,6.6794,6.7373,6.762,6.7687,6.77,6.7847,6.8201,6.8641,6.9178,6.9912,7.0403,7.0991,7.1784,7.1857,7.2041,7.2496,7.2496,7.2496,7.2496,7.2496,7.2496,7.2496,7.2496,7.2496,7.2496,7.2496,7.2496,7.2496,7.2496,7.2496,7.2496,0.0,7.2496,7.2496,7.2496,7.2496,7.2496,7.2496,7.2496,7.2496,7.2496,7.2496,7.2569,0.0,0.0,0.0,0.0,0.0,0.0,0.0,0.0,0.0,0.0,0.0,0.0,0.0,0.0,0.0,0.0,0.0,0.0,0.0,4.1168,4.1678,4.1832,4.2959,4.3593,4.3593,4.4252,4.4591,4.4591,4.4591,4.461,4.4667,4.4818,4.5136,4.5578,4.607,4.6808,4.7654,4.8049,4.8483,4.8972,0.0,0.0,0.0,0.0,0.0,0.0,0.0,0.0,0.0,0.0,0.0,0.0,0.0,0.0,0.0,5.4094,5.411,5.4485,5.6159,5.6622,5.6965,5.8494,5.913,5.9436,5.9668,5.9895,6.0139,6.0524,6.1333,6.2348,6.3473,6.475,6.6091,6.7332,6.7633,6.77,6.77,6.77,6.77,6.77,6.8238,6.8678,6.8898,6.9449,7.0146,7.094,7.1013,7.127,7.1908,7.1945,7.1945,7.1945,7.1945,7.1945,7.1945,7.2129,7.2312,7.2496,7.2496,7.2496,7.2496,7.2496,7.2496,7.2496,7.2496,7.2496,7.2496,7.2496,7.2496,7.2496,7.2496,7.2496,7.2496,7.2496,7.2496,7.2496,0.0,0.0,0.0,0.0,0.0,0.0,0.0,0.0,0.0,0.0,0.0,0.0,0.0,0.0,0.0,0.0,0.0,0.0,0.0,4.1168,4.1894,4.2509,4.3205,4.3593,4.3593,4.4252,4.4591,4.4591,4.4591,4.4685,4.4874,4.4893,4.521,4.5773,4.6124,4.6739,4.7455,4.7984,4.842,4.8816,4.8956,0.0,0.0,0.0,0.0,0.0,0.0,0.0,0.0,0.0,0.0,0.0,0.0,0.0,5.4223,5.4399,5.4447,5.4839,5.6519,5.6949,5.7189,5.8201,5.9015,5.9652,5.9994,6.0419,6.1016,6.193,6.2831,6.3794,6.4929,6.6351,6.7396,6.766,6.7687,6.77,6.77,6.77,6.77,6.77,6.7737,6.8091,6.8825,6.8958,6.9339,7.0146,7.0183,7.022,7.0257,7.0257,7.0257,7.0257,7.0257,7.0257,7.0257,7.1013,7.1747,7.2496,7.2496,7.2496,7.2496,7.2496,7.2496,7.2496,7.2496,7.2496,7.2496,7.2496,7.2496,7.2496,7.2496,7.2496,7.2496,7.2496,7.2496,7.2496,0.0,0.0,0.0,0.0,0.0,0.0,0.0,0.0,0.0,0.0,0.0,0.0,0.0,0.0,0.0,0.0,0.0,0.0,0.0,4.1832,4.2509,4.3205,4.3852,4.4221,4.4221,4.4468,4.4591,4.4591,4.4591,4.4704,4.4893,4.5036,4.5407,4.6008,4.6474,4.6997,4.7638,4.8163,4.8565,4.8801,4.8956,4.9018,0.0,0.0,0.0,0.0,0.0,0.0,0.0,0.0,5.3887,5.4159,5.4319,5.4383,5.4399,5.4463,5.4608,5.5048,5.6584,5.7097,5.7506,5.8822,5.9541,5.9854,5.971,6.0327,6.1287,6.2478,6.3459,6.46,6.6184,6.7042,6.7524,6.7674,6.77,6.77,6.77,6.77,6.77,6.77,6.77,6.7811,6.8128,6.8128,6.8495,6.9302,6.9339,6.9559,7.0073,7.011,7.011,7.011,7.011,7.011,7.011,7.0403,7.0697,7.1027,7.2018,7.2496,7.2496,7.2496,7.2496,7.2496,7.2496,7.2496,7.2496,7.2496,7.2496,7.2496,7.2496,7.2496,7.2496,7.2496,7.2496,7.2496,0.0,0.0,0.0,0.0,0.0,0.0,0.0,0.0,0.0,0.0,0.0,0.0,0.0,0.0,0.0,0.0,0.0,0.0,4.1586,4.2417,4.3113,4.3593,4.4221,4.4591,4.4591,4.4591,4.4629,4.4685,4.4742,4.4874,4.508,4.5297,4.5701,4.628,4.6771,4.7285,4.782,4.8308,4.8628,4.8801,4.8956,4.9018,0.0,0.0,0.0,0.0,0.0,0.0,0.0,0.0,5.4255,5.4319,5.4447,5.4478,5.4478,5.4478,5.4655,5.5142,5.668,5.7099,5.7463,5.9147,5.9736,5.994,5.9796,6.0703,6.1946,6.3241,6.4495,6.5781,6.707,6.7442,6.7579,6.7687,6.77,6.77,6.77,6.77,6.77,6.77,6.77,6.77,6.77,6.77,6.7921,6.8495,6.8531,6.8752,6.9302,6.9339,6.9339,6.9339,6.9339,6.9339,6.9339,6.9596,6.9706,6.9743,7.1101,7.1872,7.2114,7.2386,7.2496,7.2496,7.2496,7.2496,7.2496,7.2496,7.2496,7.2496,7.2496,7.2496,7.2496,7.2496,7.2496,7.2496,0.0,0.0,0.0,0.0,0.0,0.0,0.0,0.0,0.0,0.0,0.0,0.0,0.0,0.0,0.0,0.0,0.0,0.0,4.1617,4.2866,4.3593,4.3624,4.4252,4.4591,4.4591,4.4591,4.4704,4.4893,4.5092,4.5297,4.5481,4.5714,4.6098,4.6617,4.7013,4.752,4.8017,4.8356,4.861,4.8801,4.8956,4.9018,4.9018,0.0,0.0,0.0,0.0,0.0,0.0,0.0,5.4335,5.4478,5.4478,5.4478,5.4478,5.4478,5.4655,5.5189,5.6836,5.6963,5.7073,5.8941,5.9561,5.9893,6.0497,6.1812,6.3233,6.4361,6.6158,6.7483,6.7483,6.7606,6.77,6.77,6.77,6.77,6.77,6.77,6.77,6.77,6.77,6.77,6.77,6.77,6.77,6.77,6.77,6.77,6.77,6.77,6.77,6.77,6.77,6.77,6.77,6.8495,6.8885,6.8885,6.9706,7.0513,7.1307,7.2129,7.2496,7.2496,7.2496,7.2496,7.2496,7.2496,7.2496,7.2496,7.2496,7.2496,7.2496,7.2496,7.2496,7.2496,0.0,0.0,0.0,0.0,0.0,0.0,0.0,0.0,0.0,0.0,0.0,0.0,0.0,0.0,0.0,0.0,0.0,0.0,4.2959,4.3377,4.3809,4.4283,4.4498,4.4591,4.4591,4.4886,4.498,4.4893,4.5092,4.5297,4.5481,4.5714,4.6098,4.6617,4.7117,4.7588,4.8033,4.8517,4.8738,4.8801,4.8956,4.9018,4.9052,0.0,0.0,0.0,0.0,0.0,0.0,0.0,0.0,0.0,5.4478,5.4478,5.4545,5.467,5.5223,5.5931,5.6628,5.7686,5.8744,5.9553,6.0367,6.1221,6.2193,6.2783,6.366,6.5536,6.6846,6.7633,6.7633,6.7674,6.77,6.77,6.77,6.77,6.77,6.77,6.77,6.77,6.77,6.77,6.77,6.77,6.77,6.77,6.77,6.77,6.77,6.77,6.77,6.77,6.77,6.77,6.77,6.7958,6.8068,6.8068,6.8862,6.9669,7.0477,7.127,7.1674,7.1674,7.2261,7.2496,7.2496,7.2496,7.2496,7.2496,7.2496,7.2496,7.2496,7.2496,7.2496,7.2496,0.0,0.0,0.0,0.0,0.0,0.0,0.0,0.0,0.0,0.0,4.0505,4.0505,0.0,0.0,0.0,0.0,0.0,0.0,0.0,4.387,4.416,4.4591,4.4591,4.4591,4.4591,4.4999,4.5129,4.5036,4.5371,4.5646,4.5814,4.6205,4.6597,4.7049,4.7505,4.7951,4.8341,4.8659,4.8816,4.8879,4.8972,4.9187,4.9492,0.0,0.0,0.0,0.0,0.0,0.0,0.0,0.0,0.0,5.4478,5.4478,5.4526,5.4733,5.5521,5.6361,5.6611,5.7945,5.9371,5.9996,6.0738,6.1765,6.3553,6.4203,6.4908,6.663,6.737,6.77,6.77,6.77,6.77,6.77,6.77,6.77,6.77,6.77,6.77,6.77,6.77,6.77,6.77,6.77,6.77,6.77,6.77,6.77,6.77,6.77,6.77,6.77,6.77,6.77,6.77,6.77,6.77,6.77,6.8201,6.8678,6.9155,7.033,7.083,7.0866,7.1674,7.2202,7.2496,7.2496,7.2496,7.2496,7.2496,7.2496,7.2496,7.2496,7.2496,7.2496,0.0,0.0,0.0,0.0,0.0,0.0,0.0,0.0,0.0,0.0,4.0505,4.0505,0.0,0.0,0.0,0.0,0.0,0.0,0.0,4.4252,4.4591,4.4591,4.4591,4.4591,4.4591,4.4999,4.5217,4.5222,4.5841,4.6205,4.6354,4.6944,4.7387,4.7737,4.8082,4.842,4.8785,4.8801,4.8928,4.9086,4.9086,4.9526,5.0218,5.0286,0.0,0.0,0.0,0.0,0.0,0.0,0.0,0.0,5.4478,5.4478,5.456,5.4818,5.5668,5.6584,5.6911,5.8089,5.9434,6.035,6.0986,6.2076,6.4626,6.5863,6.6673,6.7527,6.77,6.77,6.77,6.77,6.77,6.77,6.77,6.77,6.77,6.77,6.77,6.77,6.77,6.77,6.77,6.77,6.77,6.77,6.77,6.77,6.77,6.77,6.77,6.77,6.77,6.77,6.77,6.77,6.77,6.77,6.77,6.77,6.7737,6.9265,7.0036,7.0146,7.094,7.1711,7.2422,7.2459,7.2496,7.2496,7.2496,7.2496,7.2496,7.2496,7.2496,7.2496,0.0,0.0,0.0,0.0,0.0,0.0,0.0,0.0,0.0,0.0,0.0,0.0,0.0,0.0,0.0,0.0,0.0,0.0,0.0,4.4529,4.4591,4.4591,4.4591,4.4591,4.4591,4.4999,4.5278,4.5431,4.5994,4.6354,4.6547,4.71,4.7522,4.7869,4.8276,4.8563,4.8801,4.891,4.9292,4.9864,4.9864,5.0304,5.1048,5.1623,5.2029,0.0,0.0,0.0,0.0,0.0,0.0,0.0,5.4478,5.4478,5.4695,5.5633,5.6563,5.7498,5.8101,5.9595,6.096,6.1019,6.2743,6.4707,6.5909,6.6803,6.744,6.7664,6.77,6.77,6.77,6.77,6.77,6.77,6.77,6.77,6.77,6.77,6.77,6.77,6.77,6.77,6.77,6.77,6.77,6.77,6.77,6.77,6.77,6.77,6.77,6.77,6.77,6.77,6.77,6.77,6.77,6.77,6.77,6.77,6.7737,6.8715,6.9486,7.0146,7.094,7.1417,7.16,7.2239,7.2496,7.2496,7.2496,7.2496,7.2496,7.2496,7.2496,7.2496,0.0,0.0,0.0,0.0,0.0,0.0,0.0,0.0,0.0,0.0,0.0,0.0,0.0,0.0,0.0,0.0,0.0,0.0,0.0,0.0,4.4591,4.4591,4.4591,4.4648,4.4742,4.5148,4.5468,4.5728,4.6477,4.6894,4.6997,4.7622,4.8048,4.834,4.861,4.8816,4.8944,4.9359,4.9729,5.015,5.0473,5.1082,5.1776,5.2164,5.2536,5.2959,5.3515,0.0,0.0,0.0,0.0,0.0,0.0,0.0,5.473,5.5873,5.6901,5.7831,5.853,6.0202,6.1887,6.2438,6.3951,6.5508,6.6329,6.71,6.77,6.77,6.77,6.77,6.77,6.77,6.77,6.77,6.77,6.77,6.77,6.77,6.77,6.77,6.77,6.77,6.77,6.77,6.77,6.77,6.77,6.77,6.77,6.77,6.77,6.77,6.77,6.77,6.77,6.77,6.77,6.77,6.77,6.77,6.77,6.8128,6.8752,6.9559,6.9949,7.0353,7.0807,7.16,7.1931,7.1967,7.2349,7.2496,7.2496,7.2496,7.2496,7.2496,0.0,0.0,0.0,0.0,0.0,0.0,0.0,0.0,0.0,0.0,0.0,0.0,0.0,0.0,0.0,0.0,0.0,0.0,0.0,0.0,0.0,4.4591,4.4591,4.4685,4.4893,4.5302,4.5692,4.6092,4.7015,4.7488,4.7605,4.826,4.8626,4.8832,4.8956,4.9086,4.9221,4.983,5.0252,5.0541,5.1133,5.1844,5.2503,5.2503,5.2925,5.3551,5.3701,5.3882,5.4062,5.4207,0.0,0.0,0.0,0.0,5.4903,5.6015,5.7126,5.8138,5.89,6.0586,6.2466,6.3938,6.4824,6.5545,6.6476,6.7223,6.77,6.77,6.77,6.77,6.77,6.77,6.77,6.77,6.77,6.77,6.77,6.77,6.77,6.77,6.77,6.77,6.77,6.77,6.77,6.77,6.77,6.77,6.77,6.77,6.77,6.77,6.77,6.77,6.77,6.77,6.77,6.77,6.77,6.77,6.77,6.77,6.8068,6.8715,6.8862,6.9302,6.9963,7.0903,7.1307,7.138,7.2188,7.2496,7.2496,7.2496,7.2496,7.2496,0.0,0.0,0.0,0.0,0.0,0.0,0.0,0.0,0.0,0.0,4.1045,4.1494,0.0,0.0,0.0,0.0,0.0,0.0,4.4591,0.0,0.0,4.4591,4.4591,4.4685,4.4893,4.5302,4.5819,4.6512,4.7302,4.7902,4.8372,4.8644,4.8832,4.8987,4.9003,4.9357,4.9981,5.0083,5.0845,5.1995,5.2097,5.2638,5.3348,5.3348,5.3466,5.3701,5.3882,5.4045,5.4207,5.4383,5.4463,0.0,0.0,0.0,5.563,5.6619,5.7704,5.8897,6.0315,6.1587,6.2943,6.4699,6.5215,6.5692,6.7187,6.7627,6.77,6.77,6.77,6.77,6.77,6.77,6.77,6.77,6.77,6.77,6.77,6.77,6.77,6.77,6.77,6.77,6.77,6.77,6.77,6.77,6.77,6.77,6.77,6.77,6.77,6.77,6.77,6.77,6.77,6.77,6.77,6.77,6.77,6.77,6.77,6.77,6.7774,6.7921,6.8605,6.8972,6.9192,7.0683,7.1307,7.138,7.2188,7.2496,7.2496,7.2496,7.2496,7.2496,0.0,0.0,0.0,0.0,0.0,0.0,0.0,0.0,0.0,0.0,0.0,4.1894,0.0,0.0,0.0,4.4148,4.4437,4.4591,4.4591,4.4591,4.4591,4.4591,4.4704,4.4911,4.5228,4.5692,4.6319,4.7049,4.7655,4.8211,4.8675,4.8848,4.8956,4.9018,4.9424,4.9812,5.015,5.098,5.1725,5.2334,5.2807,5.3229,5.3635,5.3635,5.3717,5.3899,5.4062,5.4159,5.4239,5.4431,5.4478,5.4478,5.4478,0.0,0.0,0.0,5.7811,5.9104,6.0911,6.1919,6.2832,6.4259,6.4971,6.5582,6.6769,6.737,6.77,6.77,6.77,6.77,6.77,6.77,6.77,6.77,6.77,6.77,6.77,6.77,6.77,6.77,6.77,6.77,6.77,6.77,6.77,6.77,6.77,6.77,6.77,6.77,6.77,6.77,6.77,6.77,6.77,6.77,6.77,6.77,6.77,6.77,6.77,6.77,6.77,6.7737,6.8054,6.8238,6.8311,6.9486,7.0206,7.0697,7.149,7.2078,7.2496,7.2496,7.2496,7.2496,0.0,0.0,0.0,0.0,0.0,0.0,0.0,0.0,0.0,0.0,0.0,0.0,0.0,0.0,0.0,0.0,4.4591,4.4591,4.4591,4.4591,4.4591,4.4591,4.4799,4.5098,4.5486,4.6034,4.6704,4.7471,4.7968,4.8404,4.8848,4.9141,4.9289,4.9289,4.983,5.032,5.0726,5.1826,5.2435,5.2672,5.3297,5.3635,5.3717,5.3767,5.3899,5.4062,5.4175,5.4239,5.4303,0.0,5.4616,5.4789,5.4789,5.5409,0.0,0.0,0.0,5.9518,6.1193,6.2037,6.2668,6.3806,6.4714,6.5508,6.6329,6.71,6.77,6.77,6.77,6.77,6.77,6.77,6.77,6.77,6.77,6.77,6.77,6.77,6.77,6.77,6.77,6.77,6.77,6.77,6.77,6.77,6.77,6.77,6.77,6.77,6.77,6.77,6.77,6.77,6.77,6.77,6.77,6.77,6.77,6.77,6.77,6.77,6.77,6.77,6.77,6.77,6.7774,6.8568,6.9265,6.9889,7.0903,7.1674,7.2224,7.2422,7.2496,7.2496,0.0,0.0,0.0,0.0,0.0,0.0,0.0,0.0,0.0,0.0,0.0,0.0,4.3593,4.4178,4.456,4.4591,4.4591,4.4591,4.4591,4.4591,4.4591,4.4591,4.4799,0.0,4.5486,4.6034,4.6756,4.7688,4.8033,4.8468,4.9003,4.9695,5.0049,5.0049,5.0083,5.0879,5.2198,5.2266,5.2739,5.345,5.3634,5.3701,5.3734,5.3915,5.4062,5.4191,5.4207,0.0,0.0,0.0,0.0,5.5547,5.5547,5.6582,5.7805,0.0,0.0,0.0,6.1329,6.1955,6.2668,6.3806,6.4714,6.5508,6.6329,6.71,6.77,6.77,6.77,6.77,6.77,6.77,6.77,6.77,6.77,6.77,6.77,6.77,6.77,6.77,6.77,6.77,6.77,6.77,6.77,6.77,6.77,6.77,6.77,6.77,6.77,6.77,6.77,6.77,6.77,6.77,6.77,6.77,6.77,6.77,6.77,6.77,6.77,6.77,6.77,6.77,6.7774,6.8568,6.8921,6.9105,7.0683,7.1344,7.1454,7.2224,7.2496,7.2496,0.0,0.0,0.0,0.0,0.0,0.0,0.0,0.0,0.0,0.0,0.0,0.0,0.0,4.4437,4.4591,4.4591,4.4591,4.4591,4.4591,4.4591,4.4648,4.478,4.4999,4.5376,4.5999,4.6533,4.7219,4.8017,4.8421,4.8974,4.9695,4.9981,5.0624,5.1522,5.1522,5.1792,5.2334,5.2841,5.3247,5.3501,5.3634,5.3783,5.3915,5.4078,5.4239,0.0,0.0,0.0,0.0,0.0,0.0,0.0,0.0,0.0,5.8046,5.8764,5.9698,6.0656,6.1329,6.1955,6.2522,6.3133,6.3906,6.4751,6.5558,6.6366,6.7076,6.759,6.77,6.77,6.77,6.77,6.77,6.77,6.77,6.77,6.77,6.77,6.77,6.77,6.77,6.77,6.77,6.77,6.77,6.77,6.77,6.77,6.77,6.77,6.77,6.77,6.77,6.77,6.77,6.77,6.77,6.77,6.77,6.77,6.77,6.77,6.77,6.77,6.77,6.7754,6.7834,6.8128,6.8609,6.9205,6.9781,7.0611,7.1448,7.1742,7.2126,7.2496,0.0,0.0,0.0,0.0,0.0,0.0,0.0,0.0,0.0,4.3882,0.0,0.0,0.0,0.0,4.4591,4.4591,4.4648,4.4685,4.4685,4.4742,4.4874,4.5098,4.5297,4.5737,4.6389,4.719,4.7916,4.8577,4.9216,4.9841,5.0473,5.071,5.1352,5.23,5.257,5.2706,5.2739,5.3281,5.3518,5.3534,5.3717,5.3882,5.4013,5.4223,5.4555,0.0,0.0,0.0,0.0,0.0,0.0,0.0,0.0,0.0,0.0,5.9331,6.004,6.0656,6.1329,6.1955,6.2449,6.273,6.3466,6.4249,6.4787,6.5742,6.6659,6.7187,6.7517,6.77,6.77,6.77,6.77,6.77,6.77,6.77,6.77,6.77,6.77,6.77,6.77,6.77,6.77,6.77,6.77,6.77,6.77,6.77,6.77,6.77,6.77,6.77,6.77,6.77,6.77,6.77,6.77,6.77,6.77,6.77,6.77,6.77,6.77,6.77,6.77,6.7781,6.7913,6.7965,6.8376,6.9011,6.9307,7.0045,7.094,7.1142,7.1687,7.2304,0.0,0.0,0.0,0.0,0.0,0.0,0.0,0.0,4.4591,4.4591,0.0,0.0,0.0,0.0,0.0,4.461,4.4799,4.4911,4.4911,4.5111,4.5315,4.5554,4.575,4.613,4.6682,4.7902,4.8809,4.9343,5.0474,5.1089,5.1235,5.1945,5.23,5.2367,5.3145,5.3518,5.3518,5.3518,5.3518,5.3551,5.3883,5.4031,5.4063,5.4386,0.0,0.0,5.5651,5.615,0.0,5.6856,0.0,0.0,0.0,0.0,0.0,0.0,0.0,6.0656,0.0,0.0,0.0,6.273,6.3429,6.4066,6.4103,6.5314,6.6439,6.6476,6.71,6.7664,6.77,6.77,6.77,6.77,6.77,6.77,6.77,6.77,6.77,6.77,6.77,6.77,6.77,6.77,6.77,6.77,6.77,6.77,6.77,6.77,6.77,6.77,6.77,6.77,6.77,6.77,6.77,6.77,6.77,6.77,6.77,6.77,6.77,6.77,6.77,6.7781,6.7926,6.8031,6.821,6.8481,6.9372,6.9731,6.9878,7.0485,7.1211,7.1852,0.0,0.0,0.0,0.0,0.0,4.4314,4.4314,4.4468,4.4591,0.0,0.0,0.0,4.4591,4.4723,4.4818,4.4818,4.5136,4.5339,4.5339,4.5601,4.6095,4.6821,4.7195,4.7881,4.8944,4.9571,5.0109,5.0524,5.0938,5.1439,5.1995,5.2198,5.2604,5.3179,5.3416,5.3518,5.3518,5.3518,5.3518,5.3551,5.3883,5.4304,0.0,0.0,0.0,0.0,0.0,5.706,5.7832,0.0,5.84,5.9124,0.0,0.0,0.0,0.0,0.0,0.0,6.1472,0.0,0.0,0.0,0.0,0.0,6.3943,6.4433,6.5094,6.6256,6.6659,6.699,6.759,6.77,6.77,6.77,6.77,6.77,6.77,6.77,6.77,6.77,6.77,6.77,6.77,6.77,6.77,6.77,6.77,6.77,6.77,6.77,6.77,6.77,6.77,6.77,6.77,6.77,6.77,6.77,6.77,6.77,6.77,6.77,6.77,6.77,6.77,6.7781,6.7926,6.8133,6.8407,6.8728,6.907,6.9565,7.0126,7.028,7.0794,7.1491,0.0,0.0,0.0,0.0,0.0,4.4591,4.4591,4.4591,4.4591,0.0,0.0,0.0,4.4848,4.4961,4.5042,4.5136,4.5775,4.6244,4.6389,4.7023,4.7684,4.8403,4.8683,4.9228,5.0121,5.0692,5.1145,5.1461,5.1947,5.2401,5.2807,5.2807,5.3044,5.3518,5.3518,5.3518,5.3518,5.3822,5.3957,5.3991,5.4326,0.0,0.0,5.6048,5.6711,0.0,0.0,0.0,5.8892,5.8892,5.9285,0.0,0.0,0.0,0.0,0.0,0.0,0.0,0.0,0.0,6.2449,6.273,0.0,0.0,6.3429,6.3833,6.436,6.5314,6.5778,6.6256,6.704,6.7187,6.7297,6.7664,6.77,6.77,6.77,6.77,6.77,6.77,6.77,6.77,6.77,6.77,6.77,6.77,6.77,6.77,6.77,6.77,6.77,6.77,6.77,6.77,6.77,6.77,6.77,6.77,6.77,6.77,6.77,6.77,6.77,6.77,6.77,6.7781,6.7926,6.8121,6.8431,6.8832,6.9012,6.9422,6.9949,6.9912,7.0383,7.1066,0.0,0.0,4.4591,4.4591,4.4591,4.4591,4.4591,4.4591,4.461,0.0,4.4818,4.5055,4.5329,4.5403,4.5551,4.5835,4.6793,4.7525,4.7916,4.8875,4.9619,5.0064,5.0116,5.0338,5.081,5.1597,5.2085,5.2269,5.3078,5.3518,5.3518,5.3518,5.3518,5.3518,5.3585,5.3619,5.3687,5.4397,5.4786,5.4906,5.5127,5.5823,0.0,0.0,5.7767,5.8591,5.8607,5.9171,5.9908,5.994,6.0088,0.0,0.0,0.0,0.0,0.0,6.0873,0.0,0.0,0.0,0.0,0.0,6.2793,0.0,6.2793,6.3392,6.3992,6.4066,6.4677,6.5398,6.6219,6.6366,6.6586,6.7333,6.7444,6.7517,6.7664,6.77,6.77,6.77,6.77,6.77,6.77,6.77,6.77,6.77,6.77,6.77,6.77,6.77,6.77,6.77,6.77,6.77,6.77,6.77,6.77,6.77,6.77,6.77,6.77,6.77,6.77,6.77,6.77,6.7767,6.7899,6.8006,6.8334,6.876,6.9045,6.9321,6.9556,6.9501,6.9964,7.0606,0.0,4.4591,4.4591,4.4591,4.4591,4.4591,4.4591,4.4591,4.4648,4.4818,4.5154,4.5614,4.6197,4.6674,4.728,4.8075,4.8742,4.9215,4.9457,4.9969,5.054,5.1139,5.1513,5.2001,5.2656,5.2994,5.3197,5.323,5.3399,5.3518,5.3518,5.3518,5.3518,5.3518,5.4126,5.4414,5.4431,5.5175,5.5939,5.6572,5.6133,5.6644,5.765,5.7996,5.8808,5.9781,5.9874,6.0231,6.0646,6.0918,6.1022,6.1087,0.0,0.0,0.0,0.0,0.0,0.0,0.0,0.0,0.0,0.0,0.0,0.0,6.2793,6.2939,6.3246,6.3943,6.4213,6.4567,6.5411,6.5508,6.5582,6.5729,6.5765,6.6219,6.7517,6.77,6.77,6.77,6.77,6.77,6.77,6.77,6.77,6.77,6.77,6.77,6.77,6.77,6.77,6.77,6.77,6.77,6.77,6.77,6.77,6.77,6.77,6.77,6.77,6.77,6.77,6.77,6.77,6.7714,6.7754,6.7899,6.8134,6.8502,6.876,6.9034,6.93,6.944,6.9675,6.9982,4.4591,4.4591,4.4591,4.4591,4.4591,4.4629,4.4723,4.4742,4.4855,4.5154,4.5916,4.6812,4.7791,4.8178,4.8612,4.9269,5.0018,5.0547,5.0839,5.1479,5.2051,5.2488,5.2691,5.296,5.3348,5.3433,5.3518,5.3518,5.3518,5.3518,5.3518,5.3518,5.3687,5.4059,5.4533,5.4958,5.5348,5.6198,5.6917,5.7484,5.6987,0.0,5.8663,5.9074,5.9752,6.0481,6.0691,6.0992,6.1286,6.1579,6.165,0.0,0.0,6.1594,6.1579,0.0,6.1914,6.2037,0.0,0.0,0.0,6.2768,0.0,0.0,0.0,6.2793,6.2903,6.3356,6.3466,6.3723,6.4567,6.4714,6.4824,6.5215,6.5288,6.5582,6.6402,6.6843,6.726,6.7664,6.77,6.77,6.77,6.77,6.77,6.77,6.77,6.77,6.77,6.77,6.77,6.77,6.77,6.77,6.77,6.77,6.77,6.77,6.77,6.77,6.77,6.77,6.77,6.77,6.77,6.77,6.7714,6.7781,6.7902,6.8084,6.8442,6.8749,6.9034,6.9225,6.9371,6.9597,4.461,4.4629,4.4648,4.4648,4.4685,4.478,4.4986,4.5024,4.5222,4.5827,4.7043,4.8293,4.9509,4.973,4.9989,5.0518,5.1289,5.1879,5.2152,5.2876,5.3382,5.3501,5.3518,5.3518,5.3518,5.3518,5.3518,5.3518,5.3518,5.3518,5.3518,5.3653,5.4042,5.4669,5.5128,5.5672,5.632,5.7242,5.7792,5.8081,0.0,5.8444,5.952,6.0027,6.0512,6.0977,6.1358,6.1656,6.1892,6.2064,6.2105,6.2105,6.2105,6.2091,0.0,0.0,0.0,0.0,0.0,0.0,0.0,0.0,0.0,6.2793,0.0,0.0,0.0,6.2793,6.2793,6.3013,6.3723,6.3833,6.4053,6.4701,6.4811,6.4884,6.5031,6.5632,6.6402,6.737,6.748,6.7517,6.7664,6.77,6.77,6.77,6.77,6.77,6.77,6.77,6.77,6.77,6.77,6.77,6.77,6.77,6.77,6.77,6.77,6.77,6.77,6.77,6.77,6.77,6.77,6.77,6.77,6.77,6.77,6.7754,6.8147,6.843,6.8705,6.887,6.9036,6.9193,4.4629,4.4742,4.4855,4.4855,4.5017,4.5204,4.5395,4.5431,4.5926,4.7273,4.8556,4.9768,5.0862,5.1307,5.1916,5.2927,5.3264,0.0,5.3482,0.0,5.3584,5.3518,5.3518,5.3518,5.3518,5.3518,5.3518,5.3518,5.3518,5.3518,5.3518,5.416,5.4601,5.4941,5.6267,5.7018,5.7277,5.8046,5.8581,0.0,5.9028,5.9448,0.0,6.0403,6.0923,6.1487,6.2078,6.237,6.2513,0.0,6.2539,6.2539,0.0,6.2449,6.237,6.2513,0.0,0.0,0.0,0.0,0.0,0.0,6.2793,0.0,0.0,0.0,6.2793,6.2793,0.0,6.2829,6.2939,0.0,0.0,6.3086,6.3086,6.3343,6.4139,6.4323,6.4947,6.6439,6.6623,6.6916,6.7627,6.77,6.77,6.77,6.77,6.77,6.77,6.77,6.77,6.77,6.77,6.77,6.77,6.77,6.77,6.77,6.77,6.77,6.77,6.77,6.77,6.77,6.77,6.77,6.77,6.77,6.77,6.7714,6.7876,6.8044,6.8209,6.8394,6.8574,6.8702,4.478,4.5024,4.5247,4.5247,4.5819,4.6379,4.658,4.7333,4.835,4.9615,5.0413,5.1274,5.2352,5.2724,0.0,0.0,0.0,5.3882,0.0,0.0,5.3684,5.3601,5.3534,5.3518,5.3518,5.3518,5.3518,5.3518,5.3923,5.4126,5.416,5.4905,5.5584,5.6216,5.7037,5.7741,5.8359,5.8994,5.9468,0.0,0.0,6.0461,0.0,6.0948,6.1437,6.2176,6.2513,6.2667,6.2717,0.0,6.2717,0.0,0.0,0.0,0.0,0.0,0.0,0.0,0.0,0.0,0.0,0.0,0.0,0.0,6.2793,0.0,6.2793,0.0,0.0,0.0,0.0,0.0,0.0,0.0,6.2793,6.2939,6.3282,6.3356,6.398,6.5632,6.5802,6.6109,6.6916,6.699,6.7187,6.7664,6.77,6.77,6.77,6.77,6.77,6.77,6.77,6.77,6.77,6.77,6.77,6.77,6.77,6.77,6.77,6.77,6.77,6.77,6.77,6.77,6.77,6.77,6.77,6.7714,6.7767,6.7873,6.798,6.8095,6.8185,6.8309,4.5896,4.595,4.599,4.6099,4.6984,4.7776,4.806,4.9282,5.0531,5.139,5.2,5.2657,5.3499,5.3937,0.0,0.0,5.464,5.4727,0.0,0.0,5.4242,0.0,0.0,0.0,0.0,5.4178,5.4144,5.4109,5.4634,5.4905,5.4905,5.5701,5.6468,5.7222,5.7741,5.8427,5.92,5.9683,6.0088,6.0419,6.1031,6.1722,6.2354,6.1989,6.2436,6.3288,6.3195,6.316,6.3123,6.2866,6.2793,0.0,6.2793,0.0,0.0,0.0,0.0,0.0,6.2793,0.0,0.0,0.0,0.0,0.0,0.0,0.0,0.0,0.0,0.0,0.0,0.0,0.0,0.0,0.0,0.0,6.2793,6.2793,6.2793,6.3343,6.4787,6.5191,6.5508,6.6109,6.6366,6.6733,6.7333,6.759,6.77,6.77,6.77,6.77,6.77,6.77,6.77,6.77,6.77,6.77,6.77,6.77,6.77,6.77,6.77,6.77,6.77,6.77,6.77,6.77,6.77,6.77,6.77,6.77,6.7767,6.786,6.786,6.7926,6.8004,4.8459,4.7805,4.718,4.7559,4.8533,4.936,4.9761,5.0906,5.1816,0.0,0.0,0.0,0.0,0.0,0.0,0.0,0.0,5.6637,5.6436,0.0,5.5599,0.0,0.0,5.5331,0.0,0.0,5.5807,5.5631,5.5665,5.5665,5.5699,5.6604,5.7188,5.7448,5.8497,5.92,5.9584,5.9962,6.0278,6.0706,6.1938,6.335,6.4621,0.0,6.4154,6.4935,6.4308,0.0,0.0,6.3086,6.2793,0.0,0.0,0.0,0.0,0.0,0.0,0.0,0.0,0.0,0.0,6.2793,0.0,0.0,0.0,0.0,6.2793,0.0,0.0,0.0,0.0,0.0,0.0,0.0,0.0,0.0,0.0,6.2793,6.3123,6.4029,6.4824,6.5288,6.5325,6.6035,6.6512,6.6549,6.726,6.77,6.77,6.77,6.77,6.77,6.77,6.77,6.77,6.77,6.77,6.77,6.77,6.77,6.77,6.77,6.77,6.77,6.77,6.77,6.77,6.77,6.77,6.77,6.77,6.77,6.7714,6.7714,6.7714,6.7714,4.936,4.9783,4.9818,4.9237,5.0059,5.1086,5.205,5.2674,0.0,0.0,0.0,0.0,0.0,5.6089,5.6326,0.0,0.0,5.6772,5.6723,5.6331,0.0,0.0,0.0,5.6013,0.0,0.0,0.0,5.6116,5.6609,5.683,5.683,5.765,5.8132,5.8358,5.8961,5.9451,5.9978,6.1058,6.1762,0.0,0.0,6.4913,6.5817,0.0,6.4862,6.5199,6.4995,6.4897,0.0,6.3943,6.3649,6.3576,6.2976,6.2793,6.2793,6.2793,6.2793,0.0,0.0,0.0,6.2793,6.2793,0.0,0.0,0.0,0.0,0.0,0.0,0.0,0.0,0.0,0.0,0.0,0.0,0.0,0.0,0.0,6.2793,6.2903,6.3209,6.349,6.3857,6.4457,6.4751,6.5338,6.6402,6.6733,6.715,6.7664,6.77,6.77,6.77,6.77,6.77,6.77,6.77,6.77,6.77,6.77,6.77,6.77,6.77,6.77,6.77,6.77,6.77,6.77,6.77,6.77,6.77,6.77,6.77,6.77,6.77,6.77,6.77,5.0989,5.1781,5.195,5.0926,5.1681,5.2758,0.0,0.0,0.0,0.0,5.5768,0.0,5.6554,0.0,5.7288,0.0,5.7598,5.7702,5.7978,5.7378,0.0,5.7379,5.7054,0.0,0.0,0.0,0.0,0.0,5.7551,5.779,5.7807,5.8355,5.8666,5.884,5.9217,5.9857,6.0653,6.1819,6.2765,0.0,0.0,6.6113,0.0,0.0,6.6079,6.6109,0.0,6.5742,6.5595,6.4787,6.453,6.4383,6.3539,6.3282,6.3209,6.2903,6.2793,6.2793,6.2793,6.2793,0.0,6.2793,6.2793,0.0,6.2793,0.0,0.0,0.0,0.0,0.0,0.0,0.0,0.0,0.0,0.0,0.0,0.0,6.2793,6.2793,6.2793,6.2793,6.3013,6.3576,6.3919,6.4543,6.5558,6.6182,6.6733,6.726,6.7554,6.77,6.77,6.77,6.77,6.77,6.77,6.77,6.77,6.77,6.77,6.77,6.77,6.77,6.77,6.77,6.77,6.77,6.77,6.77,6.77,6.77,6.77,6.77,6.77,6.77,6.77,5.323,5.3634,5.3497,5.2618,5.3357,0.0,0.0,0.0,5.5716,0.0,5.6775,5.6909,5.6978,5.7633,5.8357,5.903,5.9099,5.9461,6.0185,5.8875,0.0,0.0,5.8426,5.8272,5.8874,0.0,0.0,0.0,5.8525,5.8525,5.8525,5.8718,5.8822,5.8823,5.9405,6.0352,6.1565,6.2322,6.3372,6.4676,6.587,6.6883,6.77,6.77,6.77,6.759,6.6843,6.6549,6.6439,6.5618,6.5362,6.5215,6.442,6.4176,6.3992,6.3123,6.2866,6.2866,6.2793,6.2793,6.2793,6.2793,0.0,0.0,0.0,0.0,6.2793,0.0,0.0,0.0,0.0,0.0,0.0,0.0,0.0,0.0,0.0,0.0,6.2793,6.2793,6.2793,6.2793,6.2793,6.3539,6.4066,6.4103,6.5521,6.6402,6.6512,6.7223,6.7664,6.77,6.77,6.77,6.77,6.77,6.77,6.77,6.77,6.77,6.77,6.77,6.77,6.77,6.77,6.77,6.77,6.77,6.77,6.77,6.77,6.77,6.77,6.77,6.77,6.77,5.3748,5.4539,5.5027,0.0,5.4928,5.5101,0.0,0.0,0.0,0.0,5.8048,5.8668,5.9254,5.9978,6.0496,6.0703,6.0703,0.0,0.0,0.0,0.0,6.0703,6.0013,5.9685,5.984,5.9254,0.0,5.8858,0.0,5.8858,5.8875,5.8909,5.8944,5.8996,5.9958,6.0873,6.1758,6.3647,6.5359,6.6875,6.7203,6.749,6.77,0.0,6.77,6.7664,6.748,6.7407,6.726,6.6476,6.6182,6.6035,6.5264,6.5007,6.4824,6.4016,6.3759,6.3613,6.2976,6.2793,6.2793,6.2793,6.2793,6.2793,0.0,0.0,0.0,0.0,0.0,0.0,0.0,0.0,0.0,0.0,0.0,0.0,0.0,0.0,0.0,6.2793,0.0,6.2793,6.2793,6.3013,6.3392,6.4066,6.447,6.5228,6.6439,6.6696,6.7076,6.7664,6.77,6.77,6.77,6.77,6.77,6.77,6.77,6.77,6.77,6.77,6.77,6.77,6.77,6.77,6.77,6.77,6.77,6.77,6.77,6.77,6.77,6.77,6.77,6.77,5.4603,5.5468,5.6099,5.6099,0.0,0.0,5.6484,5.7221,0.0,5.8806,5.9564,0.0,6.0634,6.1047,6.1427,6.1772,6.1496,0.0,6.1806,0.0,0.0,6.143,6.112,6.093,6.093,6.0151,0.0,5.9735,0.0,5.92,5.9268,5.9166,5.9166,5.932,6.0435,6.1487,6.2513,6.4971,6.666,6.77,6.77,6.77,0.0,6.77,6.77,6.77,6.77,6.77,6.7627,6.7187,6.704,6.688,6.6072,6.5815,6.5668,6.4861,6.4396,6.3992,6.3503,6.3086,6.2793,6.2793,6.2793,6.2793,6.2793,6.2793,6.2793,0.0,0.0,0.0,0.0,0.0,0.0,0.0,0.0,0.0,0.0,0.0,0.0,0.0,6.2793,6.2793,6.2793,6.2793,6.3013,6.3503,6.3882,6.4506,6.5411,6.6109,6.6696,6.715,6.7517,6.77,6.77,6.77,6.77,6.77,6.77,6.77,6.77,6.77,6.77,6.77,6.77,6.77,6.77,6.77,6.77,6.77,6.77,6.77,6.77,6.77,6.77,6.77,5.5616,5.6391,0.0,0.0,0.0,0.0,0.0,5.8823,0.0,6.0254,0.0,6.1461,6.1461,6.153,6.1893,6.2601,0.0,6.1963,6.269,6.2246,6.1988,6.1988,6.2074,6.2142,6.2142,6.1375,6.0922,0.0,0.0,5.9574,5.967,5.947,5.9521,5.9911,6.1006,6.23,6.3821,6.6221,6.7405,6.77,6.77,6.77,6.77,6.77,6.77,6.77,6.77,6.77,6.77,6.77,6.77,6.759,6.688,6.6659,6.6512,6.5692,6.4971,6.436,6.4176,6.3539,6.2939,6.2829,6.2793,6.2793,6.2793,6.2793,6.2793,6.2793,6.2793,6.2793,0.0,0.0,0.0,0.0,0.0,0.0,0.0,0.0,0.0,0.0,0.0,0.0,6.2793,6.2793,6.2793,6.2793,6.3503,6.3992,6.4103,6.5521,6.6402,6.6512,6.7297,6.77,6.77,6.77,6.77,6.77,6.77,6.77,6.77,6.77,6.77,6.77,6.77,6.77,6.77,6.77,6.77,6.77,6.77,6.77,6.77,6.77,6.77,6.77,5.6564,5.7185,5.7909,0.0,0.0,6.0065,6.0826,6.0393,6.0254,6.1013,6.1806,6.2307,6.2307,6.2806,6.3328,6.3647,6.3526,0.0,0.0,0.0,0.0,6.3921,6.3619,6.3488,6.3488,6.2713,6.2026,0.0,0.0,6.0478,6.001,5.9814,6.0226,6.1197,6.22,6.3921,6.6153,6.7059,0.0,6.77,6.77,6.77,6.77,6.77,6.77,6.77,6.77,6.77,6.77,6.77,6.77,6.7664,6.7517,6.748,6.7333,6.6512,6.6182,6.5778,6.447,6.3992,6.3686,6.2976,6.2793,6.2793,6.2793,6.2793,6.2793,6.2793,6.2793,6.2793,6.2793,0.0,0.0,0.0,0.0,0.0,0.0,0.0,0.0,0.0,0.0,6.2793,0.0,6.2793,6.2793,6.2793,6.2939,6.3356,6.4066,6.5007,6.5815,6.6476,6.7297,6.77,0.0,0.0,6.77,6.77,6.77,6.77,6.77,6.77,6.77,6.77,6.77,6.77,6.77,6.77,6.77,6.77,6.77,6.77,6.77,6.77,6.77,6.77,5.7978,5.8875,5.9806,0.0,0.0,0.0,0.0,6.2092,6.1919,6.2143,6.2781,6.3282,6.3391,6.3612,6.3856,6.4128,6.4145,6.427,6.455,6.4722,6.4875,6.5076,6.497,0.0,6.503,6.4314,6.3676,6.3191,0.0,0.0,6.1242,6.0689,6.101,6.2103,6.3602,6.5283,6.6961,0.0,0.0,6.77,6.77,6.77,6.77,6.77,6.77,6.77,6.77,6.77,6.77,6.77,6.77,6.77,6.77,6.77,6.7627,6.726,6.6843,6.6329,6.5558,6.4763,6.3992,6.3576,6.3123,6.2793,6.2793,6.2793,6.2793,6.2793,6.2793,6.2793,6.2793,6.2793,0.0,0.0,0.0,0.0,0.0,0.0,0.0,0.0,0.0,0.0,0.0,0.0,0.0,6.2793,0.0,6.2976,6.3392,6.4628,6.5472,0.0,0.0,0.0,6.77,0.0,6.77,6.77,6.77,6.77,6.77,6.77,6.77,6.77,6.77,6.77,6.77,6.77,6.77,6.77,6.77,6.77,6.77,6.77,6.77,6.77,5.9685,6.0618,0.0,0.0,6.1971,0.0,6.3517,6.3708,6.3623,6.338,6.3744,6.4073,6.4269,6.4127,6.4145,6.4533,6.4619,6.4756,6.5093,6.5341,6.5584,6.5871,6.6094,6.6264,6.6385,6.5752,6.531,0.0,0.0,0.0,0.0,6.1986,6.2217,6.3263,6.5192,0.0,0.0,0.0,6.7593,6.77,6.77,6.77,6.77,6.77,6.77,6.77,6.77,6.77,6.77,6.77,6.77,6.77,6.77,6.77,6.77,6.77,6.726,6.6733,6.6549,6.5558,6.4543,6.4176,6.3576,6.3013,6.2829,6.2793,6.2793,6.2793,6.2793,6.2793,6.2793,6.2793,0.0,0.0,0.0,0.0,0.0,0.0,0.0,0.0,0.0,0.0,6.2793,0.0,0.0,0.0,0.0,0.0,6.2793,0.0,0.0,0.0,0.0,6.77,6.77,0.0,6.77,6.77,6.77,6.77,6.77,6.77,6.77,6.77,6.77,6.77,6.77,6.77,6.77,6.77,6.77,6.77,6.77,6.77,6.77,6.77,0.0,0.0,0.0,0.0,0.0,0.0,6.4814,6.5039,6.4905,6.4583,6.4411,6.4446,6.462,6.4481,6.4567,6.5095,6.5242,6.5452,6.5875,6.6202,6.6385,6.6431,6.6735,6.6896,6.691,6.6852,6.6438,0.0,0.0,6.4737,0.0,6.3921,6.4404,0.0,0.0,0.0,0.0,6.762,6.7687,6.77,6.77,6.77,6.77,6.77,6.77,6.77,6.77,6.77,6.77,6.77,6.77,6.77,6.77,6.77,6.77,6.77,6.7664,6.7444,6.6696,6.6402,6.5925,6.447,6.4029,6.3759,6.2976,6.2793,6.2793,6.2793,6.2793,6.2793,6.2793,6.2793,6.2793,0.0,0.0,0.0,0.0,0.0,0.0,0.0,0.0,0.0,0.0,6.2793,0.0,0.0,6.2793,0.0,0.0,0.0,0.0,6.5288,6.6843,6.77,6.77,6.77,6.77,6.77,6.77,6.77,6.77,6.77,6.77,6.77,6.77,6.77,6.77,6.77,6.77,6.77,6.77,6.77,6.77,6.77,6.77,6.77,0.0,0.0,0.0,0.0,0.0,0.0,0.0,6.5887,6.5949,6.5922,6.5425,6.5128,6.533,6.5261,6.5357,6.576,6.5965,6.6197,6.6587,6.6735,6.6896,6.7083,6.7233,6.7345,6.7428,6.7428,6.7204,0.0,0.0,0.0,0.0,0.0,0.0,0.0,0.0,6.762,6.762,6.7674,6.77,6.77,6.77,6.77,6.77,6.77,6.77,6.77,6.77,6.77,6.77,6.77,6.77,6.77,6.77,6.77,6.77,6.77,6.77,6.7627,6.7297,6.688,6.6329,6.5705,6.4787,6.4029,6.3649,6.316,6.2793,6.2793,6.2793,6.2793,6.2793,6.2793,6.2793,0.0,0.0,0.0,0.0,0.0,0.0,0.0,0.0,0.0,0.0,6.2793,0.0,0.0,0.0,0.0,0.0,0.0,0.0,6.5288,0.0,6.77,6.77,6.77,6.77,6.77,6.77,6.77,6.77,6.77,6.77,6.77,6.77,6.77,6.77,6.77,6.77,6.77,6.77,6.77,6.77,6.77,6.77,6.77,6.4618,0.0,6.5536,0.0,6.5855,6.6043,6.6364,6.6551,6.672,6.6816,6.637,6.6016,6.6052,6.6001,6.6074,6.6416,6.6595,6.6838,6.7134,6.719,6.7317,6.7538,6.7552,0.0,6.77,6.77,6.7647,6.7552,6.7002,0.0,0.0,0.0,0.0,0.0,6.7444,6.77,6.77,6.77,6.77,6.77,6.77,6.77,6.77,6.77,6.77,6.77,6.77,6.77,6.77,6.77,6.77,6.77,6.77,6.77,6.77,6.77,6.77,6.77,6.77,6.7297,6.6806,6.6549,6.5632,6.469,6.4213,6.3613,6.3123,6.2866,6.2793,6.2793,6.2793,6.2793,6.2793,6.2793,0.0,0.0,0.0,0.0,0.0,0.0,6.2793,6.2793,6.2793,6.2793,0.0,0.0,0.0,0.0,0.0,0.0,0.0,0.0,0.0,0.0,6.77,6.77,6.77,6.77,6.77,6.77,6.77,6.77,6.77,6.77,6.77,6.77,6.77,6.77,6.77,6.77,6.77,6.77,6.77,6.77,6.77,6.77,6.6182,6.6182,6.6243,6.6446,6.6476,6.6581,6.6925,6.6968,6.7026,6.7182,6.7196,6.7032,6.6714,6.6566,6.6646,6.6954,6.7111,6.7266,6.747,6.762,6.7687,0.0,0.0,6.77,6.77,6.77,6.77,6.77,0.0,0.0,6.77,0.0,6.7664,6.77,6.77,6.77,6.77,6.77,6.77,6.77,6.77,6.77,6.77,6.77,6.77,6.77,6.77,6.77,6.77,6.77,6.77,6.77,6.77,6.77,6.77,6.77,6.77,6.77,6.77,6.77,6.748,6.6696,6.6476,6.6035,6.447,6.4103,6.3833,6.2976,6.2793,6.2793,6.2793,6.2793,6.2793,6.2793,0.0,0.0,0.0,0.0,0.0,0.0,6.2793,6.2793,6.2793,6.2793,0.0,0.0,0.0,0.0,0.0,0.0,0.0,6.5288,6.6843,0.0,6.77,6.77,6.77,6.77,6.77,6.77,6.77,6.77,6.77,6.77,6.77,6.77,6.77,6.77,6.77,6.77,6.77,6.77,6.77,6.77,6.77,6.77,6.686,6.6889,6.6903,6.6946,6.7097,6.7233,6.7317,6.7428,6.7497,6.7552,6.7515,6.7488,6.7392,6.7252,6.7233,0.0,6.747,6.7579,0.0,6.7674,6.77,6.77,6.77,6.77,6.77,6.77,6.77,6.77,0.0,0.0,0.0,6.77,6.77,6.77,6.77,6.77,6.77,6.77,6.77,6.77,6.77,6.77,6.77,6.77,6.77,6.77,6.77,6.77,6.77,6.77,6.77,6.77,6.77,6.77,6.77,6.77,6.77,6.77,6.77,6.77,6.7627,6.737,6.6916,6.6366,6.5852,6.4897,6.3833,6.2976,6.2793,6.2793,6.2793,6.2793,6.2793,6.2793,6.2793,0.0,0.0,0.0,0.0,0.0,6.2793,6.2793,6.2793,6.2793,0.0,0.0,0.0,0.0,0.0,0.0,0.0,0.0,6.6843,0.0,6.77,6.77,6.77,6.77,6.77,6.77,6.77,6.77,6.77,6.77,6.77,6.77,6.77,6.77,6.77,6.77,6.77,6.77,6.77,6.77,6.77,6.77,6.7364,6.7378,6.7378,6.7378,6.7497,6.7565,6.7565,6.7647,6.77,6.77,6.77,6.77,6.77,6.762,0.0,6.7565,6.7647,6.77,6.77,6.77,6.77,6.77,6.77,6.77,6.77,6.77,0.0,6.77,6.77,6.77,6.77,6.77,6.77,6.77,6.77,6.77,6.77,6.77,6.77,6.77,6.77,6.77,6.77,6.77,6.77,6.77,6.77,6.77,6.77,6.77,6.77,6.77,6.77,6.77,6.77,6.77,6.77,6.77,6.77,6.77,6.77,6.77,6.7333,6.688,6.6549,6.5277,6.3956,6.3392,6.3013,6.2793,6.2793,6.2793,6.2793,6.2793,6.2793,6.2793,6.2793,0.0,0.0,0.0,0.0,0.0,0.0,6.2793,6.2793,0.0,0.0,0.0,0.0,0.0,0.0,6.5366,6.6935,0.0,6.786,6.7807,6.7781,6.7781,6.7727,6.77,6.77,6.77,6.77,6.77,6.77,6.77,6.77,6.77,6.77,6.77,6.77,6.77,6.77,6.77,6.77,6.77,6.77,6.77,6.77,0.0,6.77,0.0,6.77,6.77,6.77,6.77,6.77,6.77,6.77,6.77,6.77,6.77,0.0,0.0,0.0,6.77,6.77,6.77,6.77,6.77,6.77,6.77,6.77,6.77,6.77,6.77,6.77,6.77,6.77,6.77,6.77,6.77,6.77,6.77,6.77,6.77,6.77,6.77,6.77,6.77,6.77,6.77,6.77,6.77,6.77,6.77,6.77,6.77,6.77,6.77,6.77,6.77,6.77,6.77,6.77,6.77,6.77,6.77,6.77,6.748,6.6659,6.5338,6.4249,6.4213,6.3503,6.2903,6.2903,6.2829,6.2793,6.2793,6.2793,6.2793,6.2793,0.0,0.0,0.0,0.0,0.0,0.0,6.2793,6.2793,0.0,0.0,0.0,0.0,0.0,6.5353,6.5506,6.7066,6.7991,6.8095,6.8017,6.7952,6.7939,6.7794,6.7727,6.7714,6.7714,6.7714,6.77,6.77,6.77,6.77,6.77,6.77,6.77,6.77,6.77,6.77,6.77,6.77,6.77,0.0,0.0,6.77,6.77,6.77,6.77,6.77,6.77,6.77,6.77,6.77,6.77,6.77,6.77,6.77,6.77,6.77,6.77,6.77,6.77,6.77,6.77,6.77,6.77,6.77,6.77,6.77,6.77,6.77,6.77,6.77,6.77,6.77,6.77,6.77,6.77,6.77,6.77,6.77,6.77,6.77,6.77,6.77,6.77,6.77,6.77,6.77,6.77,6.77,6.77,6.77,6.77,6.77,6.77,6.77,6.77,6.77,6.77,6.77,6.77,6.77,6.77,6.77,6.748,6.6659,6.6219,6.5742,6.5154,6.4347,6.3796,6.3796,6.3246,6.2793,6.2793,6.2793,6.2793,6.2793,6.2793,0.0,0.0,6.2793,6.2793,6.2793,6.2793,6.2793,0.0,0.0,0.0,6.3759,6.4751,6.5353,6.5506,6.7168,6.8108,6.8234,6.8309,6.8297,6.8184,6.8057,6.7928,6.786,6.786,6.7807,6.77,6.77,6.77,6.77,6.77,6.77,6.77,6.77,6.77,6.77,6.77,6.77,6.77,6.77,6.77,6.77,6.77,6.77,6.77,6.77,6.77,6.77,6.77,6.77,6.77,6.77,6.77,6.77,6.77,6.77,6.77,6.77,6.77,6.77,6.77,6.77,6.77,6.77,6.77,6.77,6.77,6.77,6.77,6.77,6.77,6.77,6.77,6.77,6.77,6.77,6.77,6.77,6.77,6.77,6.77,6.77,6.77,6.77,6.77,6.77,6.77,6.77,6.77,6.77,6.77,6.77,6.77,6.77,6.77,6.77,6.77,6.77,6.77,6.77,6.77,6.77,6.759,6.7136,6.6769,6.6366,6.5925,6.4934,6.4103,6.4103,6.3392,6.2793,6.2793,6.2793,6.2793,6.2793,6.2793,0.0,6.2793,6.2793,6.2793,6.2793,6.2793,6.2793,6.2793,6.2793,0.0,6.4066,6.4861,6.5537,6.6022,6.7378,6.8184,6.8383,6.8565,6.8587,6.8516,6.8383,6.8284,6.821,6.8121,6.7993,6.7886,6.782,6.7767,6.77,6.77,6.77,6.77,6.77,6.77,6.77,6.77,6.77,6.77,6.77,6.77,6.77,6.77,6.77,6.77,6.77,6.77,6.77,6.77,6.77,6.77,6.77,6.77,6.77,6.77,6.77,6.77,6.77,6.77,6.77,6.77,6.77,6.77,6.77,6.77,6.77,6.77,6.77,6.77,6.77,6.77,6.77,6.77,6.77,6.77,6.77,6.77,6.77,6.77,6.77,6.77,6.77,6.77,6.77,6.77,6.77,6.77,6.77,6.77,6.77,6.77,6.77,6.77,6.77,6.77,6.77,6.77,6.77,6.77,6.77,6.77,6.77,6.77,6.77,6.7187,6.6659,6.6659,6.5485,6.4433,6.4323,6.3576,6.2939,6.2829,6.2793,6.2793,6.2793,0.0,6.2793,6.2793,6.2793,6.2793,6.2793,6.2793,6.2793,6.2793,6.2903,6.3392,6.4249,6.5044,6.5904,6.6806,6.7674,6.8247,6.8565,6.874,6.8877,6.8885,6.8749,6.8679,6.8668,6.8456,6.8297,6.8133,6.798,6.786,6.7727,6.7714,6.77,6.77,6.77,6.77,6.77,6.77,6.77,6.77,6.77,6.77,6.77,6.77,6.77,6.77,6.77,6.77,6.77,6.77,6.77,6.77,6.77,6.77,6.77,6.77,6.77,6.77,6.77,6.77,6.77,6.77,6.77,6.77,6.77,6.77,6.77,6.77,6.77,6.77,6.77,6.77,6.77,6.77,6.77,6.77,6.77,6.77,6.77,6.77,6.77,6.77,6.77,6.77,6.77,6.77,6.77,6.77,6.77,6.77,6.77,6.77,6.77,6.77,6.77,6.77,6.77,6.77,6.77,6.77,6.77,6.77,6.77,6.77,6.77,6.759,6.7517,6.7517,6.6783,6.5925,6.5228,6.4457,6.3649,6.2903,6.2793,6.2793,6.2793,0.0,6.2793,6.2793,6.2793,6.2793,6.2793,6.2793,6.2793,6.2793,6.3466,6.4237,6.5068,6.5888,6.6673,6.7507,6.7917,6.8383,6.8911,6.8956,6.9122,6.9399,6.9198,6.9089,6.9003,6.8806,6.8611,6.8333,6.8159,6.798,6.7873,6.7754,6.77,6.77,6.77,6.77,6.77,6.77,6.77,6.77,6.77,6.77,6.77,6.77,6.77,6.77,6.77,6.77,6.77,6.77,6.77,6.77,6.77,6.77,6.77,6.77,6.77,6.77,6.77,6.77,6.77,6.77,6.77,6.77,6.77,6.77,6.77,6.77,6.77,6.77,6.77,6.77,6.77,6.77,6.77,6.77,6.77,6.77,6.77,6.77,6.77,6.77,6.77,6.77,6.77,6.77,6.77,6.77,6.77,6.77,6.77,6.77,6.77,6.77,6.77,6.77,6.77,6.77,6.77,6.77,6.77,6.77,6.77,6.77,6.77,6.77,6.77,6.77,6.7063,6.6402,6.5999,6.4934,6.3992,6.3576,6.3086,0.0,0.0,6.2793,6.2793,6.2793,6.2793,6.2793,6.2793,6.2793,6.2976,6.3466,6.387,6.464,6.5888,6.6292,6.688,6.7664,6.7978,6.8334,6.876,6.9001,6.9241,6.9511,6.9559,6.9569,6.9521,6.9305,6.903,6.8757,6.8467,6.821,6.8017,6.7873,6.7767,6.77,6.77,6.77,6.77,6.77,6.77,6.77,6.77,6.77,6.77,6.77,6.77,6.77,6.77,6.77,6.77,6.77,6.77,6.77,6.77,6.77,6.77,6.77,6.77,6.77,6.77,6.77,6.77,6.77,6.77,6.77,6.77,6.77,6.77,6.77,6.77,6.77,6.77,6.77,6.77,6.77,6.77,6.77,6.77,6.77,6.77,6.77,6.77,6.77,6.77,6.77,6.77,6.77,6.77,6.77,6.77,6.77,6.77,6.77,6.77,6.77,6.77,6.77,6.77,6.77,6.77,6.77,6.77,6.77,6.77,6.77,6.77,6.77,6.77,6.77,6.7223,6.6733,6.6512,6.5485,6.4543,6.4176,0.0,0.0,0.0,6.2793,6.2793,6.2793,6.2793,6.2866,6.3086,6.3086,6.3466,6.431,6.4543,6.5204,6.6439,6.6659,6.7063,6.7664,6.7939,6.8222,6.8502,6.8889,6.9198,6.9471,6.9699,6.9853,6.9891,6.9669,6.944,6.9155,6.884,6.8528,6.8209,6.8006,6.7873,6.7741,6.7714,6.77,6.77,6.77,6.77,6.77,6.77,6.77,6.77,6.77,6.77,6.77,6.77,6.77,6.77,6.77,6.77,6.77,6.77,6.77,6.77,6.77,6.77,6.77,6.77,6.77,6.77,6.77,6.77,6.77,6.77,6.77,6.77,6.77,6.77,6.77,6.77,6.77,6.77,6.77,6.77,6.77,6.77,6.77,6.77,6.77,6.77,6.77,6.77,6.77,6.77,6.77,6.77,6.77,6.77,6.77,6.77,6.77,6.77,6.77,6.77,6.77,6.77,6.77,6.77,6.77,6.77,6.77,6.77,6.77,6.77,6.77,6.77,6.77,6.7664,6.737,6.6623,6.6402,6.5852,6.436,0.0,0.0,6.2903,6.2793,6.2793,6.2793,6.2793,6.3123,6.3906,6.3992,6.4347,6.5141,6.5888,6.6366,6.6476,6.7223,6.7627,6.77,6.7847,6.8031,6.8235,6.8502,6.8874,6.9319,6.9471,6.9669,6.9891,6.9748,6.9592,6.946,6.9133,6.8832,6.8526,6.8234,6.803,6.7886,6.7754,6.77,6.77,6.77,6.77,6.77,6.77,6.77,6.77,6.77,6.77,6.77,6.77,6.77,6.77,6.77,6.77,6.77,6.77,6.77,6.77,6.77,6.77,6.77,6.77,6.77,6.77,6.77,6.77,6.77,6.77,6.77,6.77,6.77,6.77,6.77,6.77,6.77,6.77,6.77,6.77,6.77,6.77,6.77,6.77,6.77,6.77,6.77,6.77,6.77,6.77,6.77,6.77,6.77,6.77,6.77,6.77,6.77,6.77,6.77,6.77,6.77,6.77,6.77,6.77,6.77,6.77,6.77,6.77,6.77,6.77,6.77,6.77,6.77,6.77,6.7627,6.7297,6.6843,6.6292,6.5705,0.0,6.3992,6.3649,6.3135,6.2793,6.2793,6.3282,6.3723,6.4066,6.453,6.5191,6.5999,6.6329,6.6733,6.7223,6.7517,6.77,6.77,6.7754,6.7836,6.7994,6.8222,6.8526,6.8874,6.9139,6.9382,6.9669,6.9592,6.9582,6.9592,6.9374,6.9089,6.8843,6.854,6.8247,6.7993,6.7886,6.7781,6.77,6.77,6.77,6.77,6.77,6.77,6.77,6.77,6.77,6.77,6.77,6.77,6.77,6.77,6.77,6.77,6.77,6.77,6.77,6.77,6.77,6.77,6.77,6.77,6.77,6.77,6.77,6.77,6.77,6.77,6.77,6.77,6.77,6.77,6.77,6.77,6.77,6.77,6.77,6.77,6.77,6.77,6.77,6.77,6.77,6.77,6.77,6.77,6.77,6.77,6.77,6.77,6.77,6.77,6.77,6.77,6.77,6.77,6.77,6.77,6.77,6.77,6.77,6.77,6.77,6.77,6.77,6.77,6.77,6.77,6.77,6.77,6.77,6.77,6.77,6.726,6.6769,6.6549,6.5558,6.4763,6.4494,6.3967,6.36,6.36,6.4127,6.4567,6.4837,6.5338,6.5999,6.6806,6.688,6.71,6.7664,6.77,6.77,6.77,6.77,6.7741,6.7847,6.8007,6.8235,6.8456,6.876,6.9019,6.9214,6.9277,6.9399,6.946,6.9384,6.9225,6.899,6.8737,6.8492,6.8197,6.8094,6.7926,6.7767,6.7767,6.7741,6.77,6.77,6.77,6.77,6.77,6.77,6.77,6.77,6.77,6.77,6.77,6.77,6.77,6.77,6.77,6.77,6.77,6.77,6.77,6.77,6.77,6.77,6.77,6.77,6.77,6.77,6.77,6.77,6.77,6.77,6.77,6.77,6.77,6.77,6.77,6.77,6.77,6.77,6.77,6.77,6.77,6.77,6.77,6.77,6.77,6.77,6.77,6.77,6.77,6.77,6.77,6.77,6.77,6.77,6.77,6.77,6.77,6.77,6.77,6.77,6.77,6.77,6.77,6.77,6.77,6.77,6.77,6.77,6.77,6.77,6.77,6.77,6.77,6.7444,6.6623,6.6512,6.6219,6.5398,6.5288,6.5288,6.5288,6.5288,6.5618,6.6402,6.6512,6.6843,6.7627,6.77,6.77,6.77,6.77,6.77,6.77,6.77,6.77,6.77,6.7847,6.7978,6.8083,6.8309,6.8467,6.8597,6.8889,6.899,6.9001,6.9122,6.9111,6.899,6.8866,6.867,6.8481,6.8346,6.8121,6.7913,6.7913,6.782,6.77,6.77,6.77,6.77,6.77,6.77,6.77,6.77,6.77,6.77,6.77,6.77,6.77,6.77,6.77,6.77,6.77,6.77,6.77,6.77,6.77,6.77,6.77,6.77,6.77,6.77,6.77,6.77,6.77,6.77,6.77,6.77,6.77,6.77,6.77,6.77,6.77,6.77,6.77,6.77,6.77,6.77,6.77,6.77,6.77,6.77,6.77,6.77,6.77,6.77,6.77,6.77,6.77,6.77,6.77,6.77,6.77,6.77,6.77,6.77,6.77,6.77,6.77,6.77,6.77,6.77,6.77,6.77,6.77,6.77,6.77,6.77,6.77,6.7627,6.737,6.688,6.6402,6.6182,6.5655,6.5288,6.5288,6.5802,6.6256,6.6476,6.699,6.7444,6.7664,6.77,6.77,6.77,6.77,6.77,6.77,6.77,6.77,6.77,6.7741,6.7834,6.7978,6.8018,6.8184,6.8408,6.8481,6.8575,6.8702,6.8749,6.8832,6.8866,6.8832,6.8728,6.865,6.8614,6.8408,6.8159,6.8094,6.7978,6.7834,6.77,6.77,6.77,6.77,6.77,6.77,6.77,6.77,6.77,6.77,6.77,6.77,6.77,6.77,6.77,6.77,6.77,6.77,6.77,6.77,6.77,6.77,6.77,6.77,6.77,6.77,6.77,6.77,6.77,6.77,6.77,6.77,6.77,6.77,6.77,6.77,6.77,6.77,6.77,6.77,6.77,6.77,6.77,6.77,6.77,6.77,6.77,6.77,6.77,6.77,6.77,6.77,6.77,6.77,6.77,6.77,6.77,6.77,6.77,6.77,6.77,6.77,6.77,6.77,6.77,6.77,6.77,6.77,6.77,6.77,6.77,6.77,6.77,6.77,6.7297,6.6953,6.6953,6.6549,6.6256,6.6256,6.6659,6.6953,6.6953,6.7407,6.77,6.77,6.77,6.77,6.77,6.77,6.77,6.77,6.77,6.77,6.77,6.77,6.7741,6.7834,6.7834,6.7926,6.8044,6.8108,6.8209,6.8334,6.8443,6.8528,6.8611,6.8705,6.8742,6.8721,6.8789,6.8672,6.8432,6.8297,6.8121,6.7928,6.77,6.77,6.77,6.77,6.77,6.77,6.77,6.77,6.77,6.77,6.77,6.77,6.77,6.77,6.77,6.77,6.77,6.77,6.77,6.77,6.77,6.77,6.77,6.77,6.77,6.77,6.77,6.77,6.77,6.77,6.77,6.77,6.77,6.77,6.77,6.77,6.77,6.77,6.77,6.77,6.77,6.77,6.77,6.77,6.77,6.77,6.77,6.77,6.77,6.77,6.77,6.77,6.77,6.77,6.77,6.77,6.77,6.77,6.77,6.77,6.77,6.77,6.77,6.77,6.77,6.77,6.77,6.77,6.77,6.77,6.77,6.7714,6.7727,6.7741,6.7754,6.7754,6.7754,6.7754,6.7741,6.7727,6.7714,6.7714,6.77,6.77,6.77,6.77,6.77,6.77,6.77,6.77,6.77,6.77,6.77,6.77,6.77,6.77,6.77,6.77,6.77,6.77,6.77,6.7834,6.7899,6.7913,6.8121,6.8234,6.8272,6.8529,6.8685,6.8707,6.8911,6.8903,6.8695,6.8528,6.8309,6.8094,6.77,6.77,6.77,6.77,6.77,6.77,6.77,6.77,6.77,6.77,6.77,6.77,6.77,6.77,6.77,6.77,6.77,6.77,6.77,6.77,6.77,6.77,6.77,6.77,6.77,6.77,6.77,6.77,6.77,6.77,6.77,6.77,6.77,6.77,6.77,6.77,6.77,6.77,6.77,6.77,6.77,6.77,6.77,6.77,6.77,6.77,6.77,6.77,6.77,6.77,6.77,6.77,6.77,6.77,6.77,6.77,6.77,6.77,6.77,6.77,6.77,6.77,6.77,6.77,6.77,6.77,6.77,6.77,6.77,6.77,6.77,6.7794,6.7899,6.8017,6.8083,6.8159,6.8159,6.8159,6.8083,6.7886,6.7873,6.782,6.7714,6.77,6.77,6.77,6.77,6.77,6.77,6.77,6.77,6.77,6.77,6.77,6.77,6.77,6.77,6.77,6.77,6.77,6.77,6.7727,6.7741,6.7754,6.7807,6.7899,6.8017,6.8146,6.8408,6.8707,6.8911,6.8956,6.8926,6.8774,6.8516,6.8184,6.77,6.77,6.77,6.77,6.77,6.77,6.77,6.77,6.77,6.77,6.77,6.77,6.77,6.77,6.77,6.77,6.77,6.77,6.77,6.77,6.77,6.77,6.77,6.77,6.77,6.77,6.77,6.77,6.77,6.77,6.77,6.77,6.77,6.77,6.77,6.77,6.77,6.77,6.77,6.77,6.77,6.77,6.77,6.77,6.77,6.77,6.77,6.77,6.77,6.77,6.77,6.77,6.77,6.77,6.77,6.77,6.77,6.77,6.77,6.77,6.77,6.77,6.77,6.77,6.77,6.77,6.7714,6.7794,6.7807,6.7847,6.7941,6.8031,6.8146,6.8297,6.8395,6.8456,6.8516,6.8468,6.8358,6.816,6.8108,6.7993,6.782,6.7741,6.77,6.77,6.77,6.77,6.77,6.77,6.77,6.77,6.77,6.77,6.77,6.77,6.77,6.77,6.77,6.77,6.77,6.77,6.77,6.77,6.77,6.7741,6.782,6.7965,6.8184,6.8529,6.8797,6.8934,6.8994,6.8855,6.8504,6.8057,6.77,6.77,6.77,6.77,6.77,6.77,6.77,6.77,6.77,6.77,6.77,6.77,6.77,6.77,6.77,6.77,6.77,6.77,6.77,6.77,6.77,6.77,6.77,6.77,6.77,6.77,6.77,6.77,6.77,6.77,6.77,6.77,6.77,6.77,6.77,6.77,6.77,6.77,6.77,6.77,6.77,6.77,6.77,6.77,6.77,6.77,6.77,6.7714,6.7741,6.7767,6.7781,6.7781,6.7781,6.7754,6.7741,6.7741,6.7714,6.77,6.77,6.77,6.77,6.77,6.77,6.77,6.77,6.7714,6.7781,6.7926,6.7954,6.8057,6.8309,6.8395,6.8505,6.8679,6.8737,6.8783,6.8885,6.8817,6.8679,6.849,6.8334,6.8159,6.7939,6.7781,6.77,6.77,6.77,6.77,6.77,6.77,6.77,6.77,6.77,6.77,6.77,6.77,6.77,6.77,6.77,6.77,6.77,6.77,6.77,6.77,6.77,6.77,6.7714,6.7834,6.8006,6.8297,6.8623,6.882,6.8937,6.8774,6.837,6.7926,6.77,6.77,6.77,6.77,6.77,6.77,6.77,6.77,6.77,6.77,6.77,6.77,6.77,6.77,6.77,6.77,6.77,6.77,6.77,6.77,6.77,6.77,6.77,6.77,6.77,6.77,6.77,6.77,6.77,6.77,6.77,6.77,6.77,6.77,6.77,6.77,6.77,6.77,6.77,6.77,6.77,6.77,6.77,6.77,6.77,6.77,6.77,6.7781,6.7899,6.803,6.8068,6.8068,6.8068,6.7978,6.7886,6.7886,6.7794,6.77,6.77,6.77,6.77,6.77,6.77,6.77,6.77,6.7794,6.7926,6.8068,6.8197,6.837,6.8514,6.8763,6.8979,6.9171,6.9298,6.9361,6.9419,6.9409,6.9214,6.8783,6.837,6.8094,6.7926,6.7781,6.77,6.77,6.77,6.77,6.77,6.77,6.77,6.77,6.77,6.77,6.77,6.77,6.77,6.77,6.77,6.77,6.77,6.77,6.77,6.77,6.77,6.77,6.77,6.7727,6.7899,6.8146,6.8383,6.8575,6.8695,6.8456,6.8234,6.8055,6.77,6.77,6.77,6.77,6.77,6.77,6.77,6.77,6.77,6.77,6.77,6.77,6.77,6.77,6.77,6.77,6.77,6.77,6.77,6.77,6.77,6.77,6.77,6.77,6.77,6.77,6.77,6.77,6.77,6.77,6.77,6.77,6.77,6.77,6.77,6.7741,6.782,6.782,6.786,6.7939,6.7939,6.7939,6.7939,6.7939,6.7939,6.7952,6.803,6.8108,6.8234,6.8297,6.8309,6.8297,6.8222,6.8108,6.8017,6.7939,6.782,6.77,6.77,6.77,6.77,6.77,6.77,6.7727,6.7794,6.8006,6.8197,6.826,6.854,6.8806,6.9052,6.9273,6.945,6.9671,6.9739,6.9825,6.9882,6.9844,6.9592,6.9089,6.8587,6.8185,6.8018,6.7834,6.77,6.77,6.77,6.77,6.77,6.77,6.77,6.77,6.77,6.77,6.77,6.77,6.77,6.77,6.77,6.77,6.77,6.77,6.77,6.77,6.77,6.77,6.77,6.77,6.782,6.7993,6.8184,6.8346,6.8444,6.8247,6.8083,6.7978]}]]